GFSSGP_500_spd_003.txt.gz
Wind_Speed
19 18 17 15 14 9 21 17 23 22 23 21 20 18 20 18 24 18 20 26 27 26 28 30 29 23 23 25 24 22 20 19 17 18 18 18 19 20 18 15 14 14 17 19 19 17 18 20 24
20 18 17 16 12 8 13 23 17 20 19 18 19 18 19 20 20 21 24 25 27 25 21 18 20 21 19 18 17 17 16 15 15 15 15 17 19 18 16 13 13 15 16 17 18 17 18 20 23
20 18 16 13 5 9 19 14 20 16 16 16 17 17 18 18 21 23 23 19 16 15 16 16 16 16 16 16 15 14 14 14 16 16 16 15 13 12 12 13 13 14 16 17 16 15 15 15 16
19 17 15 11 14 28 21 18 14 13 14 14 15 17 17 17 16 13 13 12 13 12 12 12 14 12 11 12 12 12 11 11 11 10 12 13 13 12 11 11 12 14 15 14 14 14 12 9 10
17 14 5 10 20 22 18 13 11 11 13 12 10 11 10 9 10 11 11 11 9 8 9 7 5 8 9 8 8 8 7 6 6 9 10 10 12 13 13 13 13 14 15 15 14 12 10 11 12
15 10 9 11 11 12 12 11 8 9 10 8 9 7 8 9 10 9 7 6 4 2 3 6 6 6 6 6 5 5 5 6 7 9 11 11 12 12 13 13 14 15 15 14 14 13 14 14 13
11 13 11 19 9 9 7 6 7 8 9 9 7 7 3 1 4 7 7 5 4 3 4 5 3 3 4 5 5 6 7 9 10 13 14 14 15 14 13 14 14 15 14 14 14 14 15 16 16
16 17 20 13 3 5 6 8 8 8 10 8 8 6 4 3 5 7 7 6 4 4 3 0 2 3 5 6 8 9 10 12 14 16 18 19 21 21 19 18 18 18 18 17 16 16 17 17 18
14 13 10 7 6 8 8 6 8 7 8 10 10 7 8 7 7 6 5 4 2 0 3 5 7 8 10 11 13 14 16 17 19 19 20 22 23 24 23 25 25 26 26 26 26 24 24 22 20
14 5 11 11 10 11 10 16 12 11 10 10 10 10 10 9 7 5 2 1 3 6 9 11 12 14 15 15 16 17 18 19 20 22 23 25 26 27 29 29 31 31 32 33 32 31 30 29 28
16 15 10 10 9 15 15 14 9 9 9 8 8 6 5 4 1 2 5 7 9 11 13 15 15 16 17 19 19 19 21 23 26 27 27 28 29 30 31 34 34 34 34 36 34 34 34 33 32
14 15 14 10 12 15 13 11 9 8 8 7 8 6 4 3 6 8 8 9 10 11 13 14 15 17 19 21 22 23 25 28 30 31 32 31 31 33 34 36 36 37 38 38 38 39 38 37 36
10 12 11 11 10 9 7 7 7 8 9 7 5 4 6 7 8 9 9 10 11 14 16 17 19 21 23 26 27 28 30 32 35 35 34 34 34 35 36 39 41 41 40 40 40 39 40 41 41
13 12 10 7 7 7 7 7 8 8 7 7 6 7 8 9 10 11 12 13 15 17 19 20 23 25 27 30 31 33 33 35 37 38 38 39 40 41 41 43 43 42 42 43 42 42 42 42 42
9 7 5 4 5 6 7 8 10 9 8 8 7 8 10 12 13 13 14 16 19 21 22 25 26 27 30 32 34 35 37 39 42 42 41 41 44 43 43 44 43 42 42 42 42 42 41 40 41
9 5 4 5 7 8 7 4 9 11 9 8 10 10 12 14 15 16 17 19 21 24 26 28 28 32 34 34 36 36 39 41 42 42 44 47 47 47 46 45 45 46 46 46 46 45 45 45 43
2 1 7 7 8 8 5 8 10 13 11 10 13 13 14 15 17 19 20 22 24 27 31 34 32 36 37 38 39 40 43 46 47 48 49 50 50 48 48 50 51 51 51 51 52 52 53 53 53
11 7 8 9 8 7 9 12 10 13 12 15 15 14 15 17 20 22 25 27 29 31 34 38 40 39 42 45 44 46 48 51 52 53 53 53 51 51 53 55 56 56 57 57 57 59 60 61 63
11 10 11 14 11 10 11 15 13 17 17 15 15 16 18 20 24 26 28 31 34 36 38 41 46 43 45 47 48 50 53 54 54 55 55 54 53 54 57 59 60 61 63 64 64 65 65 67 68
9 10 12 11 11 12 12 17 14 17 18 18 18 20 21 24 27 29 31 33 37 39 43 44 44 47 48 50 51 53 55 56 56 56 56 58 58 61 63 66 68 68 69 71 72 73 73 73 73
11 10 10 11 10 12 14 20 20 19 20 20 21 23 25 27 30 33 35 38 41 43 46 47 49 49 51 53 54 56 56 56 57 58 59 61 63 67 68 70 71 72 74 76 78 79 78 78 76
13 12 12 12 11 8 10 8 27 23 22 24 25 27 28 32 34 36 37 41 43 45 45 47 49 51 52 54 56 55 55 56 58 61 63 64 66 69 71 75 77 77 78 79 79 79 79 79 78
16 15 15 16 16 17 17 15 31 31 29 28 29 31 33 34 36 38 41 42 43 43 46 49 52 52 52 52 54 56 56 55 53 57 67 62 67 72 77 79 79 78 78 79 80 81 80 79 80
17 17 17 18 18 18 20 15 18 28 28 32 32 34 36 37 37 39 41 43 44 45 48 49 49 49 51 54 56 57 54 54 59 67 70 72 73 76 78 79 79 79 80 81 81 82 82 82 83
17 17 16 16 17 13 17 17 27 27 31 34 35 35 36 37 38 39 40 43 43 42 43 44 48 53 56 57 58 60 62 65 67 69 72 74 75 75 76 79 80 80 82 83 84 86 87 89 88
9 10 12 14 17 16 24 22 31 31 32 33 34 35 35 35 36 36 36 37 38 42 46 49 53 55 57 59 62 66 69 70 71 73 73 73 74 76 79 80 81 83 83 84 86 90 94 94 95
10 12 14 17 19 21 21 28 30 32 30 30 31 31 31 33 32 32 36 40 42 47 50 51 53 58 61 63 65 68 70 71 73 75 75 77 80 83 85 84 85 87 87 87 88 92 94 82 70
13 16 17 18 22 22 14 21 25 31 35 33 32 31 32 32 35 37 39 43 47 48 50 55 57 60 65 70 72 73 73 73 75 77 76 79 83 91 90 86 89 88 90 91 90 80 66 58 52
16 17 19 21 22 23 25 19 30 34 33 31 31 30 33 35 38 41 44 47 49 51 55 60 64 68 72 75 75 73 74 74 77 79 81 87 94 97 91 90 88 88 86 78 64 55 50 48 48
21 24 25 24 26 25 26 23 32 29 34 34 29 31 33 36 40 43 46 50 54 59 62 67 71 74 76 76 77 78 79 81 79 83 88 93 96 94 92 88 85 76 66 58 52 51 50 51 51

GFSSGP_500_spd_006.txt.gz
Wind_Speed
17 16 15 14 13 8 11 16 27 27 27 22 17 18 17 20 16 22 22 23 21 25 25 26 22 15 15 14 12 10 8 9 10 11 13 14 15 15 13 12 12 13 15 17 17 17 16 14 15
16 17 15 11 12 9 9 22 29 27 13 15 20 19 23 14 19 24 23 25 25 24 21 16 10 11 11 12 9 8 8 8 10 10 12 13 12 13 12 11 11 11 13 14 15 15 15 15 15
17 13 12 12 8 2 23 28 30 21 15 18 16 21 19 18 21 18 23 24 22 14 10 8 9 11 9 6 4 4 5 7 8 9 9 10 10 10 10 9 9 10 12 13 13 15 14 13 13
11 15 10 9 7 15 23 30 32 18 19 15 17 18 21 19 15 18 16 12 9 6 5 6 6 4 1 3 4 4 5 5 6 7 7 7 8 10 11 12 13 13 14 15 14 13 12 10 10
13 9 11 9 14 28 31 40 33 18 9 15 12 24 12 13 10 9 8 6 2 2 3 1 3 4 5 6 7 6 5 5 5 5 6 8 9 10 11 12 12 13 13 14 15 15 15 14 13
15 14 10 13 24 31 40 36 9 8 4 9 15 14 8 7 7 8 7 4 3 3 5 7 3 1 2 3 5 6 7 8 10 10 10 11 11 12 13 13 13 13 13 13 13 14 14 16 17
14 11 13 22 18 20 20 13 12 16 16 13 10 11 3 0 2 8 11 10 9 8 7 5 2 2 4 6 8 9 10 11 13 14 15 16 16 16 17 17 17 18 18 17 16 17 18 18 18
24 15 13 19 17 20 14 10 11 9 17 3 11 6 5 4 9 11 10 9 8 6 4 3 3 4 6 8 9 11 13 15 16 17 18 18 20 20 22 22 21 22 24 24 24 24 24 24 24
20 16 11 15 12 26 8 9 9 11 9 11 10 3 4 5 5 6 6 5 4 3 4 6 8 10 11 13 15 16 16 17 18 20 22 23 25 25 23 27 26 26 28 27 27 28 27 27 27
26 13 18 20 19 16 11 9 8 7 7 9 9 6 5 5 6 5 3 3 5 6 7 9 11 12 13 15 17 18 21 22 23 23 26 28 28 28 29 26 28 29 30 31 30 29 30 28 28
20 6 22 15 15 14 13 12 8 6 7 7 7 5 4 5 3 4 5 6 7 9 10 11 12 14 16 19 20 22 23 25 26 27 29 30 30 29 30 30 31 32 32 34 35 35 34 33 34
3 16 21 19 12 13 14 11 6 6 5 4 4 3 2 3 5 6 7 8 10 9 10 11 16 17 19 21 24 25 27 29 30 30 32 33 34 34 34 36 39 41 42 41 40 38 36 35 34
15 12 12 11 13 12 8 6 5 6 5 6 5 3 3 5 6 7 10 12 11 14 17 17 19 18 23 25 28 30 32 33 34 33 34 37 38 38 37 39 42 42 41 43 40 38 37 36 35
9 10 10 9 6 4 3 3 6 6 7 6 6 7 5 7 9 9 12 13 16 20 21 22 21 22 23 27 30 33 36 37 37 38 38 38 39 40 41 44 44 43 42 40 38 38 38 39 38
10 8 5 3 2 3 5 7 9 7 9 9 7 9 12 11 13 14 13 16 18 19 23 29 12 22 26 28 31 34 36 38 40 41 43 43 45 44 45 45 43 41 40 40 41 41 40 40 40
6 3 5 2 3 6 7 7 11 8 8 10 11 10 11 18 20 21 17 19 20 23 29 30 22 29 33 34 36 37 39 42 44 45 48 47 46 44 44 44 44 43 44 46 48 48 49 50 50
6 4 2 12 7 4 5 1 13 10 11 10 12 14 14 15 23 25 20 21 22 24 27 38 43 39 41 31 44 42 45 46 48 49 53 52 52 49 49 49 48 48 50 52 53 54 55 55 56
10 3 9 9 7 6 6 8 20 12 15 12 14 15 18 21 21 29 27 27 27 31 31 39 44 43 43 48 41 51 51 50 51 53 57 52 53 51 52 53 54 56 58 60 61 61 61 61 62
14 15 9 14 6 10 11 12 19 13 16 14 16 16 17 23 26 31 28 30 33 36 37 43 44 42 39 47 53 51 52 52 57 57 56 55 56 54 57 58 59 61 64 66 66 66 65 66 68
18 16 11 16 11 12 15 12 18 13 19 21 20 20 23 27 28 30 31 33 37 37 42 43 44 46 51 51 54 53 53 56 57 57 57 57 55 53 55 59 65 68 65 69 72 77 76 74 73
12 13 10 11 8 9 9 13 24 22 16 20 23 24 26 27 30 33 36 36 38 41 43 46 49 49 49 52 55 56 56 56 56 56 58 63 59 58 59 64 70 76 74 73 79 78 78 79 77
15 8 12 12 11 7 10 7 28 27 30 28 24 26 29 35 36 36 36 38 40 42 45 47 48 49 50 53 55 55 56 59 60 61 62 63 64 65 68 73 77 77 76 77 78 79 80 81 79
15 15 15 15 14 16 14 12 22 30 37 40 23 26 31 36 39 39 40 40 40 41 43 46 47 50 51 51 53 55 60 60 60 62 64 66 68 71 74 75 77 79 79 79 78 80 78 79 81
17 18 17 17 18 17 10 16 19 13 31 28 36 35 37 38 38 39 41 42 40 38 41 41 47 49 50 53 54 55 58 62 64 68 71 73 76 76 76 77 79 81 82 82 85 83 82 84 85
12 12 13 11 10 11 14 13 26 29 32 42 41 41 38 36 37 37 38 40 38 37 39 41 44 48 51 57 59 63 65 67 70 75 76 77 78 77 76 78 80 81 82 85 88 90 94 97 93
5 6 7 9 11 13 19 20 31 26 28 35 36 35 38 36 34 36 38 39 40 40 41 43 46 50 55 59 63 67 71 74 77 78 78 79 79 78 81 81 83 84 86 90 95 95 98 96 91
7 9 11 13 16 17 11 17 31 32 32 36 31 36 36 35 35 33 35 38 38 39 44 48 50 53 58 62 67 71 75 79 81 83 84 82 79 80 84 85 84 87 92 91 92 93 91 86 77
10 12 15 16 19 17 12 19 28 31 28 42 39 40 35 35 34 35 36 37 42 45 47 50 53 59 65 69 74 79 81 82 83 81 81 79 80 82 86 89 90 90 90 89 87 81 71 63 55
16 19 19 20 22 22 22 21 31 35 35 35 34 32 30 30 36 38 39 40 43 46 50 56 61 67 72 77 80 81 83 84 82 82 81 80 80 81 83 86 87 87 83 76 68 61 53 48 46
16 19 22 24 24 25 24 21 28 32 30 29 36 37 32 32 34 36 39 44 48 52 58 65 69 74 77 80 84 84 83 82 81 81 80 80 80 81 82 83 80 75 67 59 53 49 48 48 48

GFSSGP_500_spd_009.txt.gz
Wind_Speed
14 12 13 12 14 14 17 17 17 28 26 27 24 20 22 24 23 21 20 23 21 22 24 22 20 15 10 8 6 3 3 4 5 8 10 12 13 12 12 12 12 12 11 11 12 13 12 12 12
15 16 15 14 18 25 25 28 19 26 19 18 26 31 26 23 25 25 24 22 25 24 21 17 13 8 9 8 6 2 2 5 7 6 6 8 9 9 9 9 10 10 11 12 12 13 12 9 9
23 12 11 11 16 19 18 27 33 26 26 24 31 27 21 18 18 22 22 21 21 18 13 11 9 8 7 4 4 4 6 7 4 3 3 4 5 7 8 9 9 10 10 10 11 10 11 11 9
20 18 10 15 14 22 20 23 23 20 24 30 31 27 21 12 16 20 20 15 13 11 11 9 7 5 3 3 5 6 5 3 1 2 3 6 7 8 8 9 9 10 11 12 12 12 12 12 12
7 14 18 16 14 12 20 24 27 28 28 34 28 18 11 12 16 14 9 11 12 10 9 8 5 5 5 5 4 3 2 1 4 6 8 9 10 11 11 11 11 11 12 12 13 12 12 12 15
14 21 25 26 14 11 19 22 26 26 27 24 21 9 8 7 8 11 10 12 10 10 9 7 4 3 3 3 3 5 6 8 8 9 11 12 13 15 15 15 16 16 17 16 16 15 15 16 17
15 20 28 24 23 17 19 21 32 34 29 25 23 7 4 4 4 7 11 12 11 8 6 5 2 1 2 5 8 9 11 13 13 13 14 15 16 19 20 20 20 20 20 20 21 22 22 23 23
25 22 15 20 19 23 23 23 25 28 30 21 11 8 5 5 6 10 12 12 9 6 4 0 2 4 6 7 10 12 14 15 17 17 16 18 19 22 24 23 22 21 21 22 22 22 21 23 23
18 16 14 15 16 19 13 18 16 22 17 10 2 6 3 4 6 10 10 8 6 3 2 4 6 7 9 10 12 14 16 18 22 22 23 24 23 24 25 26 24 23 22 23 23 24 24 25 24
19 13 10 16 17 17 11 17 16 13 6 3 5 4 4 5 6 7 6 3 2 2 2 6 7 9 12 12 13 15 17 20 23 24 26 26 26 25 24 24 24 26 27 29 33 33 33 32 30
18 13 18 19 21 24 19 14 11 3 3 2 6 3 3 4 5 3 1 2 3 3 4 11 12 12 10 12 16 19 20 23 24 26 28 29 30 30 30 31 31 32 33 35 35 34 33 33 31
11 13 18 17 20 21 14 8 3 2 3 3 4 4 3 4 5 4 4 6 6 5 11 18 13 13 15 16 17 18 22 25 26 29 31 33 34 36 36 37 37 37 37 39 38 38 36 32 29
17 16 14 21 17 8 6 4 2 3 3 2 1 3 3 5 3 4 8 7 9 12 14 18 18 11 16 21 24 26 29 31 32 34 35 35 35 37 37 40 40 40 40 39 37 36 34 32 31
16 5 9 9 8 6 4 1 0 4 4 5 4 4 5 5 4 8 13 14 14 18 22 18 25 15 11 17 28 30 31 34 36 36 37 37 39 40 40 43 40 39 37 37 35 34 34 35 36
14 13 12 11 8 4 2 1 4 2 1 2 8 11 9 8 7 7 12 16 18 23 29 25 1 20 24 36 40 32 25 38 35 41 41 42 43 45 44 45 43 42 40 40 37 37 39 42 43
9 8 12 11 6 3 4 9 4 3 4 6 7 9 13 15 18 16 14 17 22 22 28 31 30 30 22 36 37 23 40 37 44 49 47 47 45 45 47 46 46 46 45 45 44 44 47 50 50
11 10 5 10 8 1 5 8 5 7 5 9 12 15 17 20 22 23 23 18 22 27 28 37 36 35 32 38 35 33 44 50 48 50 52 54 53 53 50 49 52 53 52 52 52 53 56 57 57
11 4 4 11 7 2 6 8 11 8 8 11 13 19 19 21 25 26 29 28 28 28 32 39 40 39 41 41 45 48 48 48 52 52 53 52 51 52 56 56 55 56 56 59 61 63 60 62 63
8 14 12 12 1 2 6 13 17 18 13 13 15 17 20 24 26 31 32 32 33 33 38 41 43 44 46 48 49 42 52 53 56 57 54 55 57 58 56 56 57 60 61 62 64 67 70 72 75
12 20 17 11 7 8 11 17 17 18 14 17 15 17 20 24 27 31 32 36 35 38 40 42 44 45 47 50 46 51 51 56 57 55 57 59 59 61 63 65 65 66 67 68 71 73 75 75 78
12 14 15 12 5 7 8 16 17 16 18 17 16 20 21 23 27 30 33 34 37 40 43 45 46 48 49 49 49 51 54 52 54 56 57 59 61 63 66 69 72 75 76 76 76 77 78 78 77
7 9 12 11 8 10 9 16 21 23 21 24 24 26 29 26 27 30 33 38 40 42 43 43 45 47 47 49 47 51 52 54 55 57 60 62 64 68 72 75 77 79 80 82 82 80 79 79 79
8 12 12 12 11 13 13 14 21 28 35 28 24 28 26 30 36 36 34 35 36 36 38 40 41 40 42 45 46 49 53 55 57 60 64 68 72 77 80 80 81 83 84 83 83 82 82 82 81
13 14 14 15 14 12 12 17 29 30 29 32 34 25 31 41 43 42 41 37 34 34 35 38 40 43 44 46 48 49 51 57 62 66 70 74 78 80 81 83 85 84 83 84 84 83 82 83 84
10 10 12 14 13 15 13 21 26 28 33 36 37 40 42 41 41 41 43 42 34 32 33 36 38 41 47 50 53 57 62 67 72 76 79 82 84 85 85 85 85 84 84 84 84 85 86 86 87
2 3 4 6 10 9 12 22 23 25 29 33 36 42 39 37 36 45 45 44 42 37 35 38 40 41 44 49 55 60 66 71 76 78 82 83 83 83 82 82 83 85 84 84 85 86 88 89 89
5 6 8 9 10 11 19 23 26 26 31 36 38 39 42 41 39 33 34 34 34 35 37 39 43 47 53 59 64 70 76 81 83 84 85 83 81 81 81 82 81 82 83 84 84 84 84 83 78
8 11 13 12 12 8 16 25 30 34 35 39 44 41 43 37 34 33 35 35 37 40 42 45 50 57 63 68 73 77 80 84 86 84 81 81 81 81 82 81 81 81 81 81 81 78 72 65 57
11 15 18 20 18 17 11 21 28 31 34 37 36 33 32 35 36 33 34 37 40 43 47 52 59 64 69 73 77 81 85 86 85 81 81 82 81 81 80 77 77 78 76 73 68 63 55 47 45
11 15 18 23 24 24 21 15 27 28 31 25 30 29 34 32 32 34 38 42 45 49 53 58 64 69 73 76 80 83 86 86 84 81 81 83 83 78 73 73 70 69 67 62 57 49 44 45 48

GFSSGP_500_spd_012.txt.gz
Wind_Speed
21 19 15 15 13 27 26 29 28 26 28 26 27 28 29 21 20 25 27 21 20 23 24 23 19 18 15 12 10 7 5 2 6 7 9 10 11 10 9 8 7 7 8 9 11 12 13 13 11
20 24 22 16 13 17 25 25 26 25 28 29 36 33 35 22 27 29 30 30 27 27 24 19 16 14 11 12 9 7 6 6 5 6 6 5 6 7 7 7 7 7 8 9 10 10 12 13 14
23 16 18 17 21 22 27 29 31 22 30 21 20 15 22 29 36 34 31 30 26 25 20 15 13 11 11 7 4 4 6 4 2 2 2 4 5 6 6 8 9 10 11 13 13 15 13 14 15
17 26 13 18 35 28 26 29 35 29 19 24 17 17 23 31 32 32 29 27 22 20 14 13 10 8 4 3 6 5 5 3 2 4 5 6 7 7 9 10 12 12 12 14 14 15 16 15 16
16 24 23 26 20 31 29 25 29 18 18 14 18 24 29 30 30 27 25 19 14 13 12 9 4 4 6 6 4 3 3 3 5 6 8 10 11 11 12 14 15 17 17 18 17 18 17 17 17
11 20 26 22 17 15 22 16 19 13 16 20 25 25 22 27 22 20 17 12 12 12 8 5 8 6 6 5 3 3 6 8 8 10 11 13 15 15 16 16 18 19 21 21 21 22 22 22 23
20 27 26 25 18 16 14 15 17 12 16 23 22 20 33 16 15 17 15 14 13 9 8 10 9 7 5 4 6 8 10 11 12 13 14 16 19 19 21 22 22 23 24 23 23 23 23 23 24
19 28 31 26 28 15 13 14 21 22 24 24 24 15 12 8 6 8 9 11 12 11 10 9 6 7 7 9 11 12 13 14 15 16 18 20 23 23 24 25 25 23 23 24 23 24 23 23 23
19 19 23 22 24 23 8 18 26 22 21 14 8 9 8 7 7 11 10 10 9 8 8 7 8 11 11 12 13 13 14 16 18 20 21 23 24 25 25 25 25 25 25 26 26 26 29 31 29
27 22 25 13 20 20 11 12 18 17 16 10 11 9 9 7 9 9 8 5 5 6 9 11 13 14 11 12 12 14 17 19 20 22 22 22 23 24 25 26 27 27 29 31 32 32 33 35 33
19 14 14 19 10 7 12 18 17 7 4 4 6 7 7 5 6 5 6 7 8 10 13 15 14 13 11 12 15 16 19 23 25 25 25 26 26 28 29 30 31 32 35 37 37 37 36 34 34
19 13 8 12 10 10 15 11 5 4 2 7 5 5 4 4 4 4 6 7 8 11 16 17 15 16 17 16 17 20 23 26 28 27 28 29 31 33 34 34 36 35 35 36 36 35 34 32 30
10 11 10 12 14 12 12 8 6 7 8 7 6 4 3 4 5 6 6 8 10 12 16 21 18 20 19 17 14 19 26 34 30 24 30 30 33 37 38 40 39 38 36 35 35 34 31 30 28
10 11 16 20 15 7 7 5 6 5 3 7 8 6 6 8 6 7 8 10 12 13 14 15 18 13 17 15 33 33 33 31 29 32 32 35 40 38 40 43 42 41 39 39 37 36 35 33 34
16 10 13 12 9 8 7 6 4 3 2 2 5 4 4 7 8 10 14 16 17 19 18 19 14 17 21 22 26 36 32 29 33 39 41 46 43 43 44 42 41 41 41 43 45 45 43 42 40
20 16 18 15 9 8 4 1 5 5 4 2 0 5 7 9 9 12 17 15 16 22 24 27 24 26 28 31 30 34 37 40 41 41 43 47 45 43 39 39 43 45 46 45 46 47 48 49 50
16 22 14 12 7 1 1 0 10 3 2 3 7 10 10 13 13 14 14 17 20 24 27 25 24 35 34 36 34 39 40 38 41 43 50 49 49 45 45 43 43 44 45 48 50 53 55 57 57
13 12 11 10 6 4 9 7 6 3 3 5 7 11 16 18 21 20 19 20 24 27 27 29 35 38 36 39 43 43 38 44 44 48 48 50 49 49 49 50 50 51 52 54 56 58 61 64 66
6 5 7 7 3 3 12 14 14 9 5 9 11 15 19 19 22 24 25 27 31 29 30 36 37 32 41 49 48 38 43 45 48 50 54 52 52 53 54 56 57 58 60 62 64 66 67 69 71
11 9 8 4 4 9 16 16 15 17 16 13 14 15 16 23 25 25 25 30 28 34 36 37 42 48 50 47 44 46 46 47 49 49 55 56 57 58 60 64 67 69 71 74 75 76 76 77 78
13 16 13 12 7 11 12 12 14 17 19 16 12 13 20 23 21 22 24 26 34 38 41 44 46 47 47 48 49 48 47 48 50 53 56 60 61 65 67 70 73 76 79 81 83 83 84 83 83
9 16 19 16 12 14 15 17 20 21 22 20 17 22 20 24 26 24 27 33 38 40 41 42 44 46 47 47 46 46 47 49 52 56 58 61 64 67 71 74 78 81 84 85 86 85 85 85 84
12 14 15 16 15 15 18 22 26 25 24 22 22 17 18 24 26 27 37 39 42 41 41 43 44 44 45 45 45 46 48 50 52 56 61 65 69 72 78 80 83 84 86 87 85 84 84 85 86
11 12 14 15 15 16 20 24 29 29 24 23 25 26 29 34 31 35 39 40 39 42 40 37 41 42 42 43 43 45 47 52 58 63 67 72 76 80 83 87 90 91 90 87 84 84 84 84 85
9 11 12 14 15 19 19 23 29 29 31 29 30 32 36 36 37 36 38 40 42 40 34 36 38 39 42 43 43 47 54 60 65 70 76 80 85 88 88 89 89 89 86 84 84 86 87 88 89
2 1 2 5 6 11 16 20 24 28 32 34 38 34 31 38 34 40 46 46 38 32 31 32 33 34 37 43 50 56 63 68 73 77 81 84 87 89 90 90 87 85 87 88 89 90 90 88 87
3 2 2 3 7 11 16 20 24 28 32 35 33 33 32 44 43 44 35 40 37 33 31 33 36 40 46 53 60 65 70 74 78 82 85 87 89 89 89 91 89 88 90 88 86 80 81 82 77
5 6 9 10 9 12 14 18 21 25 29 32 35 37 40 39 31 29 34 36 33 35 38 42 45 50 56 61 67 71 75 79 84 87 89 90 88 86 88 89 89 88 79 65 68 77 74 66 63
5 5 8 11 15 17 20 19 23 26 28 29 28 28 29 32 35 38 36 36 39 42 45 47 51 56 62 67 71 75 79 83 85 88 89 89 89 93 90 91 88 78 62 62 72 66 63 50 46
1 6 10 13 15 16 20 23 25 27 28 29 29 31 30 28 34 42 40 43 45 47 48 52 57 63 68 71 74 79 83 87 90 91 93 94 92 96 89 77 77 66 65 67 63 64 46 45 43

GFSSGP_500_spd_015.txt.gz
Wind_Speed
21 34 29 28 23 23 31 32 32 30 30 26 22 24 24 23 22 21 22 24 27 29 24 22 22 22 20 15 11 12 8 3 5 5 4 2 3 4 5 6 8 10 11 12 12 13 14 15 16
8 16 20 22 17 18 28 25 27 26 25 27 26 25 24 26 26 25 20 27 33 31 28 24 25 22 17 12 12 9 6 6 6 3 2 4 6 6 8 9 10 12 13 15 16 17 17 16 17
12 10 18 22 14 14 24 30 28 28 27 27 32 31 21 26 20 19 28 35 38 35 31 22 22 16 12 10 5 5 7 7 6 5 7 9 10 10 12 12 13 15 16 16 17 18 19 19 20
15 13 13 17 23 25 29 27 31 30 32 30 17 35 30 16 17 26 34 36 34 33 28 23 17 12 6 5 6 7 6 7 8 9 11 12 13 14 15 16 18 19 20 20 22 21 22 22 23
17 15 22 25 31 24 27 27 30 29 29 27 28 13 10 12 18 29 36 35 31 25 21 17 12 7 8 9 8 7 8 9 10 13 13 15 16 17 18 18 20 22 23 23 24 24 25 25 26
15 13 21 25 29 32 29 23 19 25 22 20 18 16 16 18 22 24 28 25 19 17 16 12 10 11 11 9 8 8 9 11 13 14 16 17 18 19 20 22 25 27 27 28 27 26 26 26 26
10 15 28 26 21 21 34 32 28 14 15 14 18 19 25 23 30 32 23 18 16 14 12 12 13 12 8 8 9 10 13 13 14 16 17 19 21 23 26 27 29 30 30 28 26 25 24 25 25
17 20 26 25 24 17 16 25 21 13 12 14 17 19 25 24 22 18 18 16 13 12 12 12 12 10 9 10 11 14 16 16 16 17 19 21 24 25 26 26 26 27 28 29 28 29 28 28 28
22 27 24 26 27 23 16 10 7 8 12 12 11 18 18 16 6 5 9 11 11 11 11 11 10 9 12 13 14 16 17 17 19 23 23 22 23 23 23 24 26 27 28 29 30 32 34 35 35
19 24 24 18 23 20 13 15 14 14 11 12 12 15 12 11 7 6 7 8 8 9 10 9 11 13 14 14 16 18 18 20 22 23 24 25 25 26 27 29 29 29 30 33 34 35 35 36 35
21 23 27 27 28 23 6 7 14 6 3 3 6 11 11 9 8 7 6 6 8 10 11 11 12 11 13 16 21 23 18 19 24 25 29 29 26 26 26 30 34 33 32 34 37 37 32 30 33
29 21 14 8 3 7 7 7 11 3 3 3 6 7 8 7 6 5 7 8 8 11 12 11 13 16 18 18 21 18 21 31 26 30 33 27 25 29 28 37 37 35 35 34 33 33 32 30 29
14 8 6 6 2 5 5 9 9 7 6 6 5 5 6 5 6 6 6 6 9 11 15 15 14 17 19 21 19 19 26 32 37 35 30 29 32 35 35 39 40 39 36 33 32 33 33 32 31
16 7 6 11 9 7 5 11 10 12 10 10 8 4 4 5 5 5 6 6 9 9 13 16 16 18 19 11 14 22 26 28 30 31 31 34 36 34 40 39 40 38 38 36 37 37 36 35 35
16 4 7 10 12 6 10 12 11 11 12 13 12 8 6 7 7 9 11 11 11 14 16 19 17 18 20 23 26 26 28 29 35 34 38 38 39 40 44 42 37 41 42 41 41 42 43 43 41
14 10 14 11 9 10 10 9 11 12 12 10 10 7 5 6 8 12 12 13 14 16 17 15 18 24 17 32 28 27 27 41 43 41 39 42 43 44 45 39 40 41 43 42 42 45 45 47 48
14 18 14 12 10 12 10 6 9 5 9 9 6 5 7 8 9 12 14 15 18 17 19 16 18 25 30 32 22 20 43 45 42 41 44 46 46 49 46 43 42 42 42 45 47 49 50 52 54
23 17 17 13 9 9 9 7 8 7 7 5 5 7 7 11 12 13 14 16 21 23 19 21 28 27 33 37 33 44 46 39 35 44 47 49 48 47 47 47 48 49 51 53 54 56 58 60 61
20 20 15 13 9 5 4 4 3 5 6 5 9 10 12 11 16 19 18 20 21 20 21 23 32 40 44 47 49 42 44 38 44 54 48 46 49 49 50 52 55 58 61 63 65 65 66 67 69
17 22 10 7 4 7 7 10 11 10 9 9 10 11 14 15 20 23 23 24 23 20 26 36 41 47 49 50 47 44 41 51 51 49 49 49 50 52 55 60 64 67 70 73 75 77 77 77 79
14 11 9 7 8 10 11 14 15 15 14 13 12 12 15 20 21 23 21 20 27 32 34 38 43 46 48 49 49 51 52 50 49 50 50 50 54 59 64 68 71 74 77 79 81 83 84 85 85
12 14 14 14 17 18 19 20 18 17 19 19 18 18 20 22 25 24 28 31 33 37 40 44 46 47 50 52 51 50 50 50 50 52 54 57 61 65 69 73 76 80 82 82 85 88 89 88 89
11 12 13 16 21 25 26 24 23 24 23 23 21 22 24 23 24 28 32 37 39 42 44 45 48 51 49 46 45 45 46 48 50 53 56 61 65 69 72 77 81 85 88 91 91 92 90 89 89
11 12 15 17 19 24 26 27 27 26 25 24 24 25 27 31 29 34 36 39 42 41 42 48 48 44 42 42 44 43 44 48 52 57 62 68 71 75 81 85 88 90 92 92 90 90 91 91 92
14 16 17 19 21 24 25 27 28 27 27 28 30 30 31 33 33 33 39 36 42 48 47 40 41 41 39 39 42 45 48 53 59 65 70 74 79 84 87 89 91 92 92 91 92 94 95 93 91
10 9 10 10 11 12 14 19 23 24 27 30 31 32 32 30 29 35 43 48 49 44 38 38 34 36 40 43 46 50 55 61 68 71 75 79 84 88 91 92 94 95 97 98 99 99 94 90 82
8 6 5 4 4 5 7 10 14 17 20 21 22 24 27 29 34 41 38 37 33 39 34 34 37 41 44 46 51 56 63 67 71 75 80 85 88 91 95 97 98 99 100 100 98 88 82 77 70
8 6 3 3 4 7 10 11 13 14 15 16 18 21 24 25 28 31 35 37 38 40 40 43 45 48 50 54 58 63 67 71 76 80 84 87 90 94 97 97 97 99 98 88 80 79 73 64 71
9 6 2 3 6 7 10 12 14 14 16 17 19 21 24 27 30 34 36 38 41 43 46 49 50 52 55 59 63 67 71 76 80 85 88 92 96 98 98 99 101 95 83 72 76 70 56 65 72
6 3 3 7 10 11 13 13 16 17 19 21 22 22 23 27 32 36 40 41 43 46 49 50 53 56 60 64 66 70 76 79 84 88 90 94 96 97 99 101 95 82 72 67 63 60 57 62 54

GFSSGP_500_spd_018.txt.gz
Wind_Speed
23 22 28 34 28 25 36 34 30 34 34 32 28 27 29 27 24 26 19 18 13 19 23 27 29 27 30 26 17 11 10 7 5 5 3 2 3 5 6 8 10 11 12 14 15 16 19 18 18
16 15 18 14 19 19 24 36 33 35 29 27 27 31 20 24 24 24 20 20 14 20 26 30 27 26 23 19 14 11 9 7 8 7 6 7 9 10 11 13 14 15 16 17 18 19 20 20 20
16 13 14 9 12 18 17 33 37 35 22 27 33 22 25 27 19 21 23 16 22 24 28 26 24 23 20 13 11 8 8 10 9 9 10 11 13 14 16 17 19 20 22 22 23 24 24 25 25
16 15 13 12 12 15 20 24 18 28 34 27 24 30 22 29 20 15 16 20 25 27 26 23 20 18 14 9 7 8 9 10 10 11 13 15 16 18 19 20 22 22 24 25 26 28 28 28 28
20 17 13 17 21 19 19 20 27 27 25 27 25 27 28 30 34 11 18 22 24 24 21 19 17 13 9 8 7 10 9 10 12 14 15 17 18 20 21 21 23 25 27 28 29 29 29 29 28
20 17 13 18 26 24 19 21 28 25 28 15 23 16 14 9 11 16 17 20 23 21 17 14 11 8 8 9 9 10 11 12 13 16 17 18 19 20 23 26 28 28 27 26 26 24 24 25 25
19 17 18 25 32 29 26 25 23 24 18 20 9 15 17 13 16 19 21 19 16 14 11 10 8 9 10 10 11 13 14 15 16 18 19 20 21 24 28 29 29 27 27 27 26 26 26 26 28
21 22 22 23 23 19 25 27 26 18 11 4 7 15 19 16 18 19 15 14 13 10 9 8 8 9 9 11 14 15 16 17 18 19 20 23 25 28 28 28 26 27 28 30 29 29 30 29 30
22 17 22 20 21 20 15 22 23 21 7 6 8 14 14 12 15 12 6 8 10 7 5 5 6 9 11 13 15 18 19 18 17 19 22 25 26 29 31 29 27 26 28 32 32 32 32 33 34
20 20 23 22 27 24 23 21 5 7 5 5 7 11 10 8 9 3 0 1 4 4 3 5 8 10 12 14 16 18 19 19 19 19 21 25 30 34 35 28 28 30 33 33 33 34 35 34 33
24 30 26 21 17 19 16 4 14 10 4 4 5 4 7 7 7 4 3 2 3 3 6 9 10 11 13 15 19 20 19 17 19 20 26 28 34 34 29 29 32 33 38 38 38 36 35 32 28
21 22 21 21 17 13 12 9 10 5 1 1 4 6 7 8 7 6 4 4 6 6 7 8 10 15 17 18 20 24 25 21 24 28 32 31 28 29 33 34 37 36 42 39 37 34 32 31 31
23 15 9 3 7 8 6 7 4 1 2 5 4 5 7 7 5 3 3 5 7 9 10 12 15 17 19 19 21 17 19 24 25 24 26 30 30 31 36 40 41 42 46 40 35 34 33 33 31
12 9 4 6 3 1 3 3 7 7 6 7 8 8 8 5 3 2 4 5 8 11 14 18 21 22 22 24 24 20 26 27 19 20 29 31 31 34 38 40 43 45 47 43 40 38 38 37 36
13 4 3 5 9 5 5 10 8 8 10 11 12 10 6 3 3 5 9 9 11 12 16 20 19 19 20 23 25 23 32 23 20 27 37 36 35 37 40 43 46 46 45 45 42 40 40 39 40
10 6 3 7 11 11 8 10 10 10 11 12 12 12 7 5 4 4 7 9 13 17 17 20 19 19 26 24 20 26 22 22 37 39 34 33 34 38 43 47 47 47 45 43 41 43 44 45 47
11 13 6 12 15 13 13 13 12 14 13 10 12 10 5 6 8 8 5 9 15 19 19 15 15 23 29 26 21 29 32 42 44 38 34 34 38 47 52 46 45 47 42 44 46 50 52 54 56
15 15 10 12 13 13 13 11 13 12 10 11 11 6 6 6 10 12 14 13 15 21 23 14 19 25 35 34 37 43 48 48 39 33 35 46 54 53 52 51 50 48 50 54 57 59 62 63 65
19 17 17 15 16 16 14 12 12 14 14 11 9 8 8 9 13 15 18 21 20 21 17 18 20 30 38 39 43 49 52 49 48 53 56 53 51 51 51 49 51 54 59 63 66 69 70 72 74
24 20 18 16 15 13 8 9 8 7 6 8 9 8 10 11 14 19 21 21 22 17 21 31 38 42 46 49 52 55 52 53 53 52 51 50 48 48 49 52 58 63 68 72 73 75 78 79 80
21 25 19 12 12 9 7 9 8 8 9 10 11 12 14 16 20 21 21 22 24 30 36 41 44 44 48 48 52 52 50 48 48 48 48 48 48 51 56 61 65 69 70 73 78 80 83 85 87
21 20 24 17 14 14 15 16 14 15 15 16 18 18 19 22 24 24 24 25 28 33 40 42 41 45 45 51 51 49 49 48 48 48 48 51 54 58 62 65 68 71 76 80 84 87 88 91 93
17 18 16 15 16 18 19 19 16 17 19 21 22 23 24 25 26 27 29 30 35 38 42 45 44 46 49 50 49 48 46 45 47 50 53 55 59 64 67 71 75 81 84 86 88 90 94 97 97
14 14 14 15 17 20 18 20 19 21 22 23 24 26 26 26 25 27 32 34 35 40 43 47 51 41 45 48 46 43 45 47 50 52 56 61 66 69 73 77 82 87 89 91 94 97 99 96 96
16 17 16 17 19 21 22 23 20 19 19 21 23 25 26 27 26 27 31 28 36 43 47 48 44 40 44 44 43 46 49 52 54 57 62 65 69 74 78 81 86 89 92 95 98 99 101 103 104
17 16 17 16 16 14 15 13 12 12 14 15 17 18 20 21 23 25 28 32 36 40 41 40 40 45 43 47 50 51 52 54 58 61 62 67 72 76 80 85 91 96 98 100 99 101 105 103 91
12 11 9 8 8 7 5 4 3 2 4 7 10 13 15 17 20 24 28 31 35 37 40 42 43 43 45 47 47 49 54 58 60 62 66 71 76 80 86 90 94 98 101 101 104 106 100 84 73
11 8 6 4 3 2 3 5 7 7 8 10 13 15 18 20 23 25 27 30 32 36 38 40 44 47 51 51 53 56 59 60 62 66 71 77 81 87 92 96 98 100 101 104 103 90 74 66 62
11 9 7 5 4 6 7 8 9 11 13 14 16 19 21 24 26 28 31 33 34 36 39 41 38 54 54 55 57 59 60 64 68 72 77 84 89 92 94 97 99 101 103 98 80 65 57 49 45
12 10 8 7 8 9 10 10 14 16 17 19 22 25 27 30 33 36 37 39 40 42 45 47 50 53 55 57 59 61 65 69 72 77 82 88 90 93 95 97 101 100 94 74 59 50 37 35 40

GFSSGP_500_spd_024.txt.gz
Wind_Speed
26 26 25 24 24 26 31 34 34 37 36 33 32 38 44 43 38 42 40 39 39 34 35 23 8 12 12 13 15 15 12 8 8 11 9 7 5 6 7 10 13 15 17 18 20 21 21 21 22
25 23 22 21 21 21 21 32 32 27 29 31 34 34 42 41 42 41 41 43 40 34 35 12 3 9 10 13 14 12 11 8 9 13 11 9 8 9 11 13 15 18 20 21 23 25 25 25 24
24 22 20 19 16 15 20 30 27 29 25 18 30 36 41 41 39 39 43 44 42 40 37 4 4 9 12 12 11 12 8 7 11 12 11 11 11 12 15 16 18 20 22 24 25 24 22 21 21
22 19 20 19 15 20 24 27 27 27 22 19 24 35 34 38 33 39 25 18 29 29 10 3 4 10 12 10 10 9 6 7 9 10 10 11 14 15 17 19 20 22 24 24 24 21 19 20 20
19 18 18 17 20 20 23 25 21 20 22 24 27 32 35 34 27 40 36 17 16 22 7 2 7 11 13 7 9 7 6 6 7 8 11 14 16 18 19 21 22 24 23 24 25 24 22 23 23
20 17 17 16 22 17 22 24 16 20 16 23 29 26 34 18 17 10 21 20 8 8 6 3 10 12 11 7 8 7 6 6 8 10 14 16 19 21 21 22 25 24 24 26 26 24 20 21 24
21 17 21 23 21 18 18 20 22 22 21 23 18 18 10 3 8 7 3 6 17 2 2 10 13 14 10 10 8 8 7 8 10 14 17 20 23 22 23 22 24 25 26 28 26 25 23 23 27
20 18 19 21 17 16 17 26 22 23 26 3 2 3 4 5 5 4 1 4 3 4 9 12 13 12 10 10 10 9 9 12 15 18 21 23 23 22 24 22 25 26 26 26 25 23 25 27 32
20 16 18 22 19 18 21 22 22 18 19 18 7 5 4 3 6 4 3 6 5 7 8 9 10 10 11 11 9 10 13 17 20 22 21 21 23 26 25 24 27 28 28 29 27 25 29 32 34
19 18 21 21 19 22 21 22 21 23 13 7 5 6 8 5 6 8 7 12 13 13 12 12 11 11 11 11 12 16 18 19 21 23 24 27 26 28 30 30 33 30 27 28 27 30 31 32 35
19 22 17 20 19 19 13 12 17 14 18 7 7 12 12 8 8 8 9 11 9 9 10 9 8 9 11 13 15 16 19 22 25 26 27 27 27 28 31 31 31 28 25 28 31 33 33 35 36
20 17 21 18 20 16 13 15 14 11 11 11 11 11 13 9 7 6 6 6 8 8 7 8 9 10 11 13 16 20 23 25 26 28 29 28 27 28 28 28 30 27 34 35 33 31 35 37 41
18 18 21 15 13 6 12 11 12 12 11 11 12 6 7 6 5 5 5 6 6 6 7 8 9 8 11 16 19 22 26 29 30 30 27 28 32 31 30 31 37 38 35 36 31 37 44 43 41
21 20 14 13 17 10 9 9 13 9 11 11 8 6 6 5 3 3 3 4 5 7 8 9 9 12 13 15 20 25 29 31 27 31 27 17 21 33 40 35 36 36 33 34 43 50 45 43 43
21 15 14 16 15 7 8 13 14 11 6 6 5 4 5 5 4 4 6 7 8 9 11 13 13 15 16 22 27 27 28 17 18 14 35 30 40 26 29 36 41 44 44 48 49 45 42 43 41
16 13 10 13 14 12 11 11 10 8 6 3 2 2 4 4 5 7 6 8 8 10 13 15 16 15 18 22 30 33 24 34 35 39 35 31 32 33 37 43 48 47 46 46 46 44 41 40 40
13 9 7 10 16 14 14 14 9 6 7 6 5 5 7 8 10 10 7 7 9 13 14 17 21 23 25 30 23 23 33 39 45 35 35 32 34 35 39 40 42 43 43 44 45 46 45 46 47
10 9 7 10 16 15 14 16 12 7 5 5 7 8 9 13 13 12 11 11 13 16 19 21 23 24 26 33 41 37 45 40 40 40 40 39 37 38 39 39 40 41 43 45 47 50 52 55 56
11 11 11 7 10 12 13 13 10 11 8 8 10 11 11 12 13 14 14 14 17 20 22 22 23 24 28 37 41 41 41 45 47 44 43 41 40 41 41 43 47 50 52 53 54 57 59 59 59
12 16 12 8 8 9 11 12 9 8 11 13 12 13 13 15 15 14 15 17 20 21 23 24 25 28 34 41 44 45 46 52 50 49 46 45 45 46 48 49 52 54 56 58 59 59 59 63 66
12 18 15 9 6 5 11 10 11 11 9 9 12 13 12 14 16 17 18 19 22 23 23 24 25 30 37 40 42 45 49 50 46 47 49 50 50 51 53 54 56 56 57 58 60 62 66 69 73
11 15 18 9 10 11 10 9 14 13 12 12 13 13 14 16 17 17 18 20 24 24 25 28 32 32 31 33 37 40 42 44 47 49 51 51 51 55 54 56 57 58 59 62 66 69 74 78 82
12 14 20 15 15 15 16 17 21 17 15 15 16 16 16 17 17 17 21 24 25 21 19 18 20 23 27 30 34 38 41 45 48 51 54 52 55 57 59 59 59 61 64 68 73 77 81 85 89
16 13 14 16 19 21 22 21 19 16 16 17 17 18 18 16 17 20 20 17 14 14 16 19 22 25 28 32 36 39 42 46 50 51 53 57 62 62 61 60 62 65 69 74 79 84 89 91 91
17 14 17 17 18 18 16 20 17 16 18 20 19 16 15 16 15 12 10 12 14 17 20 23 27 30 34 37 41 44 46 49 50 52 56 60 61 60 60 62 65 71 77 81 86 90 89 92 99
21 20 20 19 19 19 17 13 11 14 15 12 10 8 7 6 8 10 11 14 18 21 23 26 30 33 36 39 43 46 49 52 52 54 58 60 59 60 61 65 70 76 80 85 88 88 94 100 105
18 20 19 20 18 15 10 8 8 5 3 4 5 5 6 8 11 14 16 20 23 25 28 31 34 36 39 42 44 46 49 51 54 56 59 60 60 61 64 69 74 79 84 85 88 95 100 102 96
19 18 19 16 13 9 6 6 6 7 8 7 8 9 13 15 17 19 22 25 28 30 33 35 37 40 43 45 47 49 52 54 55 58 61 60 60 63 68 73 78 82 83 86 93 98 100 92 78
18 17 15 14 12 10 9 10 11 10 10 12 13 15 18 20 23 26 28 31 33 35 37 39 41 44 46 50 51 54 55 56 57 60 61 60 62 67 71 76 80 83 88 94 98 96 87 74 64
17 15 15 15 13 12 11 10 12 12 14 15 17 20 23 26 28 31 34 36 39 41 42 43 45 48 50 51 56 57 58 57 59 61 61 62 66 71 75 78 84 90 95 97 94 87 73 62 53

GFSSGP_500_spd_027.txt.gz
Wind_Speed
26 26 27 27 27 27 23 16 33 37 32 34 36 31 33 38 43 45 43 47 38 39 41 42 39 35 32 17 16 15 13 12 11 13 14 11 8 6 5 7 10 13 15 17 18 20 21 21 21
24 24 25 24 24 13 13 19 39 35 33 31 33 36 37 37 39 42 43 44 42 43 47 47 33 28 17 16 15 14 12 12 11 14 15 12 10 7 8 10 13 15 17 18 20 21 22 18 17
22 23 23 23 18 12 12 19 39 33 33 34 32 30 36 36 36 37 38 38 42 43 44 39 43 29 16 16 15 13 13 11 12 16 15 12 10 9 10 13 15 17 19 20 20 20 20 18 17
22 21 22 21 14 12 21 31 27 26 31 34 31 28 28 31 31 34 39 38 39 38 42 47 37 26 18 17 14 12 10 12 15 16 14 12 10 10 14 16 18 19 22 22 20 20 20 18 16
26 22 18 16 14 22 23 25 13 27 23 33 33 33 26 30 33 38 31 35 31 30 45 23 24 20 15 18 10 10 11 13 13 12 11 11 12 15 18 18 20 22 24 24 23 25 22 19 16
26 20 16 13 15 24 20 22 24 26 20 27 27 26 29 30 35 32 26 31 34 24 37 14 12 11 16 11 6 9 10 11 9 9 10 13 16 18 21 22 22 25 25 25 24 24 22 21 21
23 18 16 12 18 27 22 15 15 28 20 21 28 24 21 25 26 25 23 21 26 25 22 23 19 13 9 4 5 7 8 8 8 10 13 16 20 23 23 25 25 26 24 22 24 24 24 23 23
22 21 15 16 22 22 20 26 23 22 25 20 15 9 20 20 18 14 17 15 20 27 15 5 7 7 7 6 9 10 10 9 10 14 18 20 23 26 25 25 27 27 23 25 26 28 26 26 27
22 17 10 13 21 14 27 29 19 22 25 27 20 19 13 12 14 16 23 13 12 22 5 4 9 4 8 9 9 9 9 13 16 18 20 24 26 27 27 28 29 29 28 31 32 32 30 30 31
24 15 7 18 23 23 5 24 23 23 24 19 23 22 10 6 7 9 14 19 11 8 2 1 4 4 7 8 10 12 13 16 18 21 22 26 28 29 29 30 31 30 28 28 27 28 30 33 35
25 16 18 20 19 21 18 21 20 14 24 8 10 8 7 10 7 9 9 8 6 3 3 3 5 6 8 10 12 13 14 18 21 23 27 29 28 31 31 32 32 29 24 29 32 31 34 37 35
22 24 13 16 19 21 23 25 7 5 8 9 10 10 10 9 7 6 5 5 5 3 3 4 7 8 9 10 11 14 17 21 23 25 29 31 33 31 31 31 31 28 35 33 35 37 37 36 35
20 16 18 19 19 16 9 11 6 7 11 12 12 8 4 6 5 4 3 3 2 4 5 7 7 8 10 13 16 19 20 22 26 29 30 30 30 30 27 32 26 33 38 36 37 38 40 39 43
17 19 19 19 20 18 10 11 7 13 8 8 8 6 5 5 4 3 4 4 4 6 6 7 9 10 13 15 18 20 26 27 25 15 17 34 25 21 38 36 30 35 42 42 45 47 45 48 50
23 19 17 16 13 7 15 8 11 11 9 7 5 2 3 4 4 5 6 5 6 6 9 11 13 15 16 18 22 27 31 33 25 22 39 45 29 27 31 37 32 35 40 48 50 48 47 46 43
20 16 7 18 9 5 12 7 8 9 5 4 3 4 5 5 6 7 5 5 7 9 11 14 16 18 21 25 28 31 21 19 36 39 40 46 44 38 38 34 36 39 40 42 42 42 42 43 45
17 6 11 13 12 13 7 10 8 6 6 4 3 2 3 6 6 6 5 5 7 10 12 15 19 22 24 28 26 32 36 38 41 38 39 38 33 31 31 32 34 37 38 39 41 44 46 47 48
10 8 6 4 11 13 12 17 14 9 7 5 5 6 7 9 9 8 9 10 12 14 17 21 23 26 27 28 29 37 36 40 41 41 43 41 39 39 38 37 37 40 44 48 49 50 51 52 54
6 7 8 14 8 15 13 12 11 7 8 7 7 8 11 12 11 12 13 14 16 18 21 24 26 28 29 31 34 37 38 35 35 40 41 41 42 43 44 47 46 47 49 51 51 51 53 53 55
9 7 11 6 7 11 13 13 12 10 8 8 11 13 13 14 16 15 14 16 19 20 23 27 29 29 28 29 33 34 34 36 38 40 41 42 46 48 50 46 47 50 54 55 56 57 54 56 58
7 8 15 7 4 5 10 13 9 9 9 10 12 15 17 17 17 18 19 20 23 26 27 26 27 27 29 27 27 28 30 34 37 40 42 44 46 48 50 51 53 59 62 59 57 58 58 61 66
10 10 8 10 7 6 9 8 18 10 14 13 13 15 16 18 20 20 22 24 27 28 26 22 19 19 21 23 26 29 33 36 40 44 47 49 49 51 53 56 59 61 60 59 60 61 64 69 73
11 4 8 16 9 10 8 12 30 11 17 21 20 21 21 22 23 24 25 27 26 21 14 14 16 18 22 25 29 32 35 39 43 47 50 52 54 55 56 57 59 59 59 60 62 65 70 75 80
9 9 9 13 8 14 11 15 14 19 23 25 25 25 25 26 26 26 27 24 16 12 13 16 19 22 25 29 32 35 38 41 45 49 52 54 57 58 60 60 63 64 63 63 67 72 76 80 83
10 9 7 9 12 13 17 19 16 17 26 28 27 30 29 28 26 23 18 14 12 14 18 20 23 27 31 34 37 40 43 46 49 52 54 55 57 59 60 62 65 64 65 68 71 76 80 84 88
13 12 13 11 11 10 20 18 16 22 24 23 22 22 19 16 13 13 14 15 17 20 24 27 30 32 36 39 42 45 48 50 53 54 55 58 60 61 62 64 65 64 66 69 74 80 83 88 94
16 16 20 21 20 19 16 12 14 12 11 9 9 9 10 11 12 15 17 20 23 28 31 34 36 38 41 44 46 49 51 53 56 57 60 61 63 63 63 66 65 66 69 74 79 84 86 92 94
18 18 17 18 20 15 4 9 13 9 9 10 11 12 14 17 19 21 24 27 30 34 36 39 42 44 46 48 50 52 53 55 52 60 61 62 63 63 65 66 66 70 73 77 82 82 86 90 93
18 19 19 19 17 14 11 8 14 14 14 14 15 16 18 21 23 27 30 32 36 39 42 43 46 48 50 53 54 56 57 53 56 59 61 63 63 63 66 66 69 72 75 75 81 86 91 90 87
20 18 18 18 18 15 16 16 15 17 17 18 19 22 24 27 30 32 35 38 41 44 47 46 49 51 53 55 56 57 58 59 60 60 62 63 63 65 66 69 73 75 77 80 89 94 88 89 79

GFSSGP_500_spd_030.txt.gz
Wind_Speed
25 25 26 27 28 25 21 21 22 34 37 31 30 43 38 33 33 37 31 29 33 39 41 43 47 42 42 35 32 27 26 20 16 14 16 18 15 11 6 5 6 8 9 11 13 15 16 15 13
24 24 25 26 25 22 10 20 23 30 27 29 35 40 37 35 34 35 34 37 36 39 40 47 45 43 43 46 46 33 23 20 17 16 17 20 15 11 7 7 9 10 11 14 16 16 15 16 14
23 22 23 22 22 21 9 29 31 29 29 31 34 35 35 36 33 35 37 38 36 35 41 44 44 43 45 47 34 22 20 19 16 16 19 20 14 9 8 10 12 13 15 17 18 18 17 20 19
22 22 21 22 21 6 13 22 34 14 25 29 25 33 35 35 33 32 31 32 35 35 37 40 40 43 45 40 31 21 18 16 15 16 19 18 12 9 12 13 13 15 17 19 21 21 21 21 18
23 23 21 18 13 13 17 26 34 36 32 27 34 25 30 30 33 30 26 30 34 36 36 38 42 38 39 37 24 19 11 10 12 15 15 14 11 12 15 15 17 19 21 20 23 23 22 20 19
25 24 20 10 5 10 23 34 38 31 34 31 12 27 24 26 34 33 29 28 27 35 38 35 42 34 29 22 17 16 8 8 11 13 13 11 12 16 17 19 20 21 23 24 24 23 21 21 23
25 22 15 11 13 20 21 34 33 30 16 12 26 32 28 27 28 34 33 27 33 32 38 18 26 29 19 14 9 9 7 8 9 8 10 14 17 18 20 21 23 24 25 26 26 27 27 30 26
24 20 19 19 8 23 20 28 35 33 38 27 20 17 20 23 29 29 23 19 25 29 32 20 20 25 16 6 12 11 9 9 10 15 15 16 18 20 22 24 25 28 27 26 27 31 30 29 27
26 22 18 6 10 37 32 36 10 24 25 25 26 37 23 13 18 17 16 22 21 21 27 15 16 8 6 9 6 7 8 9 10 12 16 17 19 21 24 25 28 29 29 27 26 26 25 27 27
24 17 12 17 30 38 36 31 1 19 27 29 26 25 19 22 17 22 21 19 21 22 15 13 8 11 15 5 3 5 8 9 12 13 16 18 22 24 24 26 31 30 30 28 22 25 29 31 37
23 20 14 15 18 29 19 29 15 22 20 23 22 20 12 17 18 18 22 16 3 4 13 11 7 4 3 1 5 8 9 11 13 15 18 19 24 25 26 26 25 25 24 22 22 35 33 34 31
22 21 17 6 23 19 15 11 22 21 12 14 17 19 12 11 13 15 14 5 7 7 5 2 1 1 3 5 9 10 12 13 16 16 17 17 23 26 25 26 27 23 30 30 33 44 42 39 38
22 15 22 15 16 23 15 20 13 11 13 11 15 16 10 9 9 7 6 6 1 2 2 4 4 5 6 8 11 13 13 17 21 21 18 12 24 32 33 25 25 28 41 48 43 44 39 42 44
17 23 7 19 16 23 18 14 9 10 4 6 11 9 6 5 5 6 5 6 6 6 5 4 5 6 9 10 12 13 17 21 26 23 25 24 31 34 45 28 28 32 37 35 39 41 41 46 43
18 21 24 15 21 26 18 4 7 3 3 5 4 5 5 2 3 4 5 5 5 5 7 7 9 11 13 14 17 18 27 19 12 35 33 34 32 29 25 27 27 28 31 35 34 38 37 39 40
17 17 18 21 13 8 11 16 6 5 5 3 4 5 5 4 2 3 3 5 5 7 9 9 11 15 18 19 22 21 24 24 31 32 34 31 31 31 32 30 28 32 32 31 31 36 40 42 44
18 18 8 6 20 4 1 10 9 6 7 5 2 2 2 2 1 3 4 6 7 8 11 13 16 18 22 22 24 25 23 28 31 33 33 28 29 32 35 36 37 38 39 40 38 39 41 45 47
16 7 7 7 8 12 5 7 7 7 9 5 2 1 1 1 2 3 6 7 10 12 15 17 21 23 26 27 28 27 27 29 28 25 25 29 32 34 36 36 38 38 39 42 46 48 50 52 50
5 4 8 6 4 12 17 12 11 11 9 8 5 3 3 5 5 7 10 12 12 13 18 20 22 25 28 27 24 26 28 23 24 28 33 36 39 41 43 44 44 44 45 47 50 52 53 50 49
3 7 10 8 8 14 12 12 7 8 4 7 7 6 7 8 9 11 13 14 15 18 22 24 25 26 27 23 23 22 22 25 29 33 36 39 41 43 45 47 48 50 51 52 53 55 55 52 52
5 9 14 5 4 8 13 11 12 6 6 7 8 13 14 14 11 15 15 18 20 23 26 27 26 24 20 18 19 22 25 29 32 36 38 42 44 46 48 50 51 52 55 57 56 57 57 57 55
16 14 9 10 9 8 14 17 28 21 7 10 11 15 17 19 18 19 21 21 26 26 28 26 19 16 18 20 22 26 30 34 37 40 41 44 47 50 52 53 54 55 57 59 59 60 60 59 62
12 17 6 8 11 15 21 21 16 20 22 10 12 16 22 25 26 26 25 25 29 28 24 16 15 18 21 24 27 32 36 40 42 44 47 49 51 51 52 54 57 59 61 61 59 61 61 62 66
4 4 3 10 12 20 6 15 19 19 15 17 10 15 22 27 29 31 32 28 26 20 15 15 19 21 25 29 33 37 41 44 46 49 51 52 54 56 56 58 60 62 63 62 62 64 64 68 71
10 5 4 13 14 11 4 16 19 18 13 27 20 19 26 29 29 30 29 19 17 16 17 21 24 28 31 35 38 42 45 47 50 51 54 55 56 56 59 61 61 62 63 62 64 64 68 71 75
11 14 16 16 6 4 12 4 13 16 23 26 26 21 21 21 20 17 14 15 15 18 23 27 31 34 37 41 43 47 49 51 53 55 57 57 59 52 61 61 63 62 62 63 65 67 69 72 77
11 15 14 13 14 11 10 11 21 12 15 19 15 11 11 12 12 14 18 20 22 25 29 33 37 40 41 46 48 51 53 54 56 57 58 58 51 60 62 62 63 63 63 64 67 68 70 74 79
14 15 12 17 16 14 4 3 15 16 14 13 13 14 14 15 17 20 22 24 27 31 34 38 42 46 45 48 51 53 55 56 56 57 58 49 60 60 61 63 63 63 63 65 67 68 72 77 81
15 17 14 16 16 15 9 8 13 19 16 17 19 18 19 21 23 25 29 32 34 38 41 43 46 50 48 50 53 55 56 57 57 57 57 57 58 59 62 63 63 64 66 68 69 73 77 79 84
17 15 15 18 16 19 14 19 17 17 19 20 20 23 24 27 29 32 33 37 40 43 47 47 48 52 52 52 55 55 57 58 58 58 55 56 59 63 64 64 66 68 69 72 74 78 83 85 88

GFSSGP_500_spd_033.txt.gz
Wind_Speed
25 28 31 32 29 26 28 22 20 17 21 28 28 31 33 33 29 35 36 33 35 32 29 26 24 36 37 39 41 40 36 35 30 24 22 19 20 19 14 10 8 8 8 9 11 13 13 12 13
26 27 27 29 25 26 18 20 10 16 30 32 25 34 31 31 36 38 32 37 38 40 46 34 36 38 38 43 42 40 36 39 27 25 23 18 22 19 14 11 10 10 10 11 12 12 13 14 17
26 25 25 25 24 24 8 16 15 27 18 18 23 27 29 34 32 31 32 31 37 40 42 39 36 35 42 43 45 41 40 41 32 24 22 18 22 19 14 12 13 12 12 13 14 16 17 17 18
25 23 22 22 18 8 18 9 14 28 23 24 20 30 28 30 33 35 33 33 34 37 32 28 34 39 35 43 41 44 40 37 26 21 18 15 20 18 15 14 14 13 14 16 18 18 19 19 17
25 21 21 19 11 10 6 16 22 23 23 28 32 32 22 15 21 29 31 31 33 31 29 30 34 31 37 38 43 48 38 28 23 15 12 15 18 15 13 15 17 17 19 20 19 20 20 21 17
24 24 22 12 15 4 11 13 22 28 26 27 34 29 26 20 17 18 25 27 32 27 30 30 27 37 36 44 46 30 21 23 11 12 11 11 11 9 16 19 19 20 22 23 24 23 22 23 26
24 23 20 20 20 4 20 21 22 30 30 20 16 22 25 24 21 21 22 16 22 42 28 27 30 48 50 26 13 13 21 21 14 12 14 9 16 17 18 19 20 20 22 25 26 25 25 27 24
28 25 26 23 13 7 22 28 29 33 32 19 27 34 25 15 19 19 24 17 24 37 31 26 26 46 21 13 9 8 15 13 10 7 8 11 12 15 17 18 21 23 24 25 26 24 21 18 23
31 28 14 11 12 15 24 28 34 28 27 22 17 29 27 21 25 12 16 22 33 34 35 36 21 21 13 8 15 16 13 11 8 9 9 9 11 16 18 20 21 25 26 26 25 20 18 19 28
26 20 15 15 16 18 23 23 26 31 18 8 20 23 22 24 23 17 20 19 26 33 24 24 19 23 20 17 13 8 5 5 5 8 9 12 15 19 20 23 25 26 24 20 19 18 24 33 42
22 20 14 4 12 16 21 29 27 33 28 18 10 17 17 17 16 18 20 12 13 16 16 15 10 18 15 13 8 4 2 5 8 9 12 16 18 14 16 13 21 22 27 23 22 25 31 40 37
25 21 11 9 9 16 18 13 13 16 19 14 16 14 16 15 14 13 16 15 13 8 18 16 17 12 8 4 3 2 4 6 8 11 14 20 21 22 22 22 25 27 24 24 29 33 37 37 36
27 14 17 11 20 8 6 13 13 13 12 11 11 9 18 10 11 7 6 11 7 10 13 10 8 6 4 2 2 4 5 8 12 14 16 16 17 24 26 26 25 23 20 24 27 26 27 32 34
19 14 16 16 18 13 14 15 15 9 7 8 3 7 10 6 4 2 1 2 5 4 5 8 6 3 2 3 2 3 8 10 12 6 20 14 20 22 17 16 19 20 21 23 25 27 30 32 36
18 22 14 11 20 25 16 16 16 8 10 8 5 6 9 9 3 2 5 5 4 5 6 6 5 6 5 9 8 10 12 15 14 18 21 22 18 16 17 21 24 26 26 26 27 28 30 32 35
14 20 23 22 22 19 21 13 15 6 10 8 4 3 4 4 7 2 3 2 3 3 3 4 6 8 11 13 14 14 16 16 15 20 20 14 16 19 22 25 27 29 29 30 32 33 35 37 40
12 21 17 8 19 9 2 3 3 3 4 5 3 3 3 3 2 2 3 4 3 4 5 9 12 14 14 16 18 18 17 17 19 17 14 17 19 22 24 26 28 30 32 34 35 37 40 43 45
20 13 9 9 7 13 7 6 5 3 4 3 4 3 4 3 2 2 4 3 5 10 9 11 15 16 18 17 17 18 16 17 13 13 17 21 23 26 29 31 34 36 38 41 43 44 46 48 48
16 9 11 16 2 4 8 5 4 9 7 2 4 2 3 3 3 2 5 3 4 10 14 15 18 18 18 19 16 13 13 15 17 21 24 28 30 34 35 37 38 40 43 45 46 46 48 50 50
9 12 8 11 5 7 9 6 7 4 12 5 1 1 4 3 6 8 9 8 9 12 18 22 22 20 20 17 12 15 17 21 25 27 31 35 38 41 43 44 45 47 48 48 49 49 52 54 53
10 8 19 10 6 9 10 10 17 12 8 7 5 5 3 2 6 13 14 17 19 21 20 21 19 21 14 15 18 19 22 26 30 33 37 41 44 46 47 48 49 50 50 50 51 52 55 56 55
8 8 11 15 9 9 17 19 20 17 12 10 10 11 10 7 5 12 18 20 24 26 24 21 17 13 16 18 22 24 28 32 35 38 42 46 48 50 51 51 53 55 56 54 56 57 58 57 56
3 6 3 10 7 9 15 18 23 29 20 13 12 12 17 13 14 16 15 21 25 26 24 18 12 14 19 22 27 29 33 37 41 44 46 48 50 51 53 55 57 57 55 55 61 59 59 58 54
6 5 7 14 17 19 7 14 16 19 6 14 9 10 17 20 21 18 18 20 23 21 15 14 14 19 25 29 32 36 39 43 46 49 51 53 55 56 56 57 58 57 53 61 62 62 61 58 59
5 10 14 15 18 15 13 21 7 10 13 9 15 10 15 19 20 20 17 15 14 13 15 17 20 24 29 33 37 41 45 48 51 53 55 57 58 57 58 57 55 50 61 61 61 62 61 62 63
12 13 15 17 15 18 18 7 11 9 14 10 9 11 10 9 11 12 8 7 12 15 18 22 25 28 32 37 42 46 49 51 52 54 55 56 56 57 56 55 52 56 60 62 62 62 63 65 67
15 19 18 17 12 9 5 8 20 13 15 10 9 7 8 7 9 10 11 13 17 21 25 29 32 34 37 39 43 48 51 52 54 55 56 55 55 56 55 55 53 59 61 63 62 64 67 69 70
14 12 14 17 13 9 8 14 13 13 12 13 9 11 12 12 13 16 20 20 22 26 31 35 38 40 42 43 45 48 52 53 54 55 55 55 55 55 57 55 54 57 61 62 63 67 70 70 73
15 18 19 18 17 13 10 14 11 10 12 18 19 16 16 18 20 21 24 27 29 32 35 39 44 47 46 45 46 48 53 53 53 54 55 55 55 50 59 58 59 60 62 64 67 69 72 73 76
15 15 17 18 15 18 12 13 17 14 19 20 22 23 21 22 24 28 31 33 34 36 39 43 48 49 48 46 46 48 52 53 53 54 55 55 51 54 58 58 60 60 65 69 74 73 77 81 82

GFSSGP_500_spd_036.txt.gz
Wind_Speed
31 31 31 32 32 34 33 26 26 26 23 21 25 23 25 31 35 32 31 37 36 36 36 35 34 25 30 36 34 31 32 35 34 32 29 20 21 21 20 16 14 11 11 13 13 14 13 13 12
30 29 30 30 32 32 26 20 20 22 21 24 27 24 30 31 31 30 32 35 41 40 38 39 37 44 38 35 34 33 37 35 34 35 27 19 20 21 22 19 13 12 14 14 14 14 14 14 15
27 28 28 29 30 26 13 17 20 22 22 21 22 27 28 30 34 35 36 40 41 37 37 37 40 38 38 35 32 34 36 34 32 37 30 23 20 22 22 19 15 15 15 15 15 15 16 17 17
26 27 27 26 24 8 14 19 20 23 23 20 17 24 26 25 29 30 32 38 39 37 39 38 36 34 30 31 34 36 39 36 37 39 32 19 18 22 23 17 18 17 17 16 18 19 19 21 21
24 25 26 21 8 12 22 20 18 17 20 21 24 23 26 23 15 18 27 36 38 36 37 35 32 30 29 38 31 30 34 37 40 31 16 15 17 18 19 22 18 18 17 19 18 20 21 21 23
24 26 21 13 15 20 23 24 18 20 21 23 21 21 28 26 24 29 31 22 31 36 36 32 30 28 29 29 31 32 38 43 35 16 10 11 13 17 23 18 16 17 19 19 22 24 22 22 24
24 21 15 19 18 18 19 20 18 20 21 24 20 21 14 19 25 23 25 24 35 32 44 33 36 39 31 26 43 42 28 19 6 7 9 12 15 15 16 17 18 21 22 23 25 27 23 23 17
25 24 19 17 18 19 23 18 11 20 20 13 25 25 27 27 19 20 19 17 28 27 28 41 42 31 31 43 27 16 9 9 11 13 14 14 15 19 18 22 23 23 24 26 28 27 24 22 16
27 20 15 18 25 24 14 9 14 18 19 30 31 26 26 28 24 23 14 19 21 18 34 28 30 23 19 17 10 9 15 22 17 13 12 13 17 18 19 19 20 22 24 25 28 25 20 19 19
16 17 17 21 28 23 16 12 13 13 19 26 21 21 19 21 21 23 24 15 20 26 17 15 24 28 16 10 22 19 15 11 10 11 13 15 18 16 17 21 16 21 18 20 20 23 22 24 27
18 23 19 24 28 7 12 12 14 16 19 26 15 11 18 8 18 16 14 18 25 29 39 15 17 19 22 19 15 13 11 11 9 9 9 10 14 17 17 20 17 20 26 27 27 27 27 30 33
18 25 19 21 12 22 7 9 10 12 15 17 16 17 15 12 16 10 14 16 12 17 24 21 16 20 19 12 10 6 3 4 5 4 8 12 10 8 15 16 16 22 22 21 21 23 23 29 30
23 31 24 24 17 18 10 5 9 8 9 13 9 13 14 13 22 6 5 9 10 6 9 17 17 13 11 10 7 4 4 4 5 6 7 10 11 15 16 13 11 12 14 17 19 23 27 28 30
21 25 24 12 15 16 8 6 7 11 7 5 0 3 7 10 7 6 9 11 12 9 11 10 12 11 10 8 6 6 5 6 8 9 10 14 16 13 9 11 14 17 20 23 26 29 28 30 32
21 21 18 19 13 8 14 9 9 8 5 3 3 1 2 3 10 8 7 7 10 9 10 10 9 7 6 5 2 5 7 8 10 11 14 16 8 7 10 15 19 23 25 26 27 28 30 32 33
24 17 12 7 8 7 13 17 10 7 5 3 1 1 4 7 10 9 8 8 8 7 7 5 5 4 6 5 5 8 9 9 10 11 12 7 11 11 16 20 22 24 27 29 30 32 32 34 35
22 25 19 8 11 15 9 9 10 3 8 4 1 2 2 5 7 8 7 5 6 4 2 4 5 7 8 8 10 9 11 9 10 6 8 11 14 17 21 24 27 30 32 33 33 34 36 36 37
14 18 18 12 6 12 8 9 8 6 6 3 2 3 3 3 6 8 5 4 4 6 6 9 11 11 10 9 11 9 7 5 6 8 13 16 20 23 26 28 31 33 36 36 37 38 39 38 39
23 14 13 15 9 5 2 6 3 12 6 0 3 1 4 2 2 6 3 2 6 12 13 14 14 11 10 10 9 5 4 7 11 15 20 23 26 29 31 33 35 37 41 42 43 44 43 43 44
21 15 15 11 5 3 3 3 6 7 5 5 4 4 2 1 3 3 2 4 5 9 15 15 13 11 11 6 6 9 10 15 19 22 26 28 31 33 35 37 40 43 45 47 48 48 49 48 49
17 19 19 14 7 4 7 11 8 5 3 0 2 4 5 4 7 1 2 3 6 10 12 13 13 11 6 6 9 13 16 21 24 27 32 35 39 41 42 44 47 49 50 51 52 52 50 47 52
17 19 17 12 10 12 14 12 9 10 9 5 7 6 8 7 6 5 6 7 9 11 12 12 9 8 7 10 15 20 23 28 31 34 38 41 43 45 47 48 50 51 52 52 51 50 49 49 57
13 21 18 14 13 13 15 16 14 15 17 16 17 10 5 7 5 5 3 8 12 13 12 8 6 9 13 17 22 26 30 34 37 40 43 46 48 48 49 50 51 52 53 53 52 50 58 56 57
7 12 13 14 14 15 15 18 15 14 4 4 5 11 10 10 9 8 3 8 10 9 12 9 10 13 18 22 27 30 34 38 41 44 47 48 50 52 53 54 54 53 53 54 55 53 55 62 63
12 13 13 18 18 19 18 19 13 9 4 3 3 12 9 8 6 6 3 2 4 8 11 13 14 18 23 28 30 34 38 42 46 48 49 51 52 53 53 54 55 55 55 54 56 56 58 60 62
17 18 18 20 18 14 15 20 14 8 6 3 4 6 2 4 3 2 1 4 8 12 15 17 19 24 29 32 36 40 44 49 51 51 53 54 54 54 55 55 58 58 57 56 62 60 61 61 63
17 15 15 20 19 14 14 19 22 12 8 9 6 3 3 4 6 5 7 9 13 16 20 24 27 30 33 36 41 45 48 50 51 53 53 54 54 54 56 56 57 60 55 59 64 63 64 65 68
14 16 19 17 16 14 14 19 18 17 13 9 9 6 8 9 9 10 11 14 18 22 27 31 34 36 39 42 45 46 47 51 52 52 52 52 53 55 56 58 59 59 59 62 61 63 67 70 73
20 20 19 17 17 18 16 18 17 15 15 14 14 12 12 12 12 13 15 19 22 27 32 35 39 41 43 42 41 42 47 48 50 53 52 54 55 56 56 57 59 61 62 62 65 69 70 71 73
19 16 18 20 19 21 20 16 17 23 23 23 21 17 14 14 16 19 22 24 27 29 33 38 41 39 41 44 41 42 46 48 52 55 51 54 53 55 57 59 59 59 62 63 66 72 78 84 92

GFSSGP_500_spd_039.txt.gz
Wind_Speed
26 28 32 32 32 31 34 38 34 31 30 27 29 32 29 28 29 28 27 28 31 31 34 34 34 35 33 30 33 29 28 28 28 23 29 27 25 17 17 20 19 13 14 16 15 14 15 15 15
27 28 31 31 31 29 30 27 28 24 26 27 26 30 32 25 25 25 28 32 36 38 37 37 38 38 36 35 35 31 30 28 26 28 29 30 27 19 19 20 15 17 17 18 16 15 14 15 15
25 28 29 32 31 28 19 15 19 23 22 22 27 33 32 25 23 29 33 34 37 40 43 41 40 36 33 30 33 30 29 27 27 32 30 32 22 18 20 21 17 17 18 20 17 16 16 16 17
25 27 30 31 22 14 13 21 23 26 24 23 21 25 26 28 28 28 28 29 35 41 41 43 42 36 33 35 31 32 25 29 33 36 33 37 23 16 12 17 18 19 23 20 18 16 18 19 20
24 24 27 22 10 15 21 22 25 26 26 23 24 23 19 24 29 25 25 29 31 34 37 39 39 38 35 33 31 30 29 29 25 29 40 27 10 12 15 21 22 22 19 19 23 24 24 24 24
20 21 19 11 19 23 25 27 27 27 28 24 22 21 20 20 29 26 26 32 35 35 31 30 35 31 38 37 29 29 33 30 31 39 31 13 14 13 18 18 21 22 20 22 26 27 29 33 33
16 18 14 15 19 22 21 27 28 25 26 23 19 17 20 23 24 33 37 37 34 43 37 34 42 46 40 33 26 28 33 40 43 34 8 10 13 14 16 21 19 16 24 28 30 30 30 28 27
16 16 17 15 21 21 23 26 27 22 21 20 21 21 22 24 28 24 28 28 26 37 44 40 47 58 44 28 25 27 40 40 32 17 13 15 16 14 14 13 15 22 27 29 26 25 25 23 21
18 20 16 20 27 24 18 19 14 21 22 16 11 13 20 26 27 30 34 25 13 28 36 35 39 34 35 30 17 20 21 20 17 19 15 12 12 13 11 17 23 25 24 20 19 21 24 25 25
18 21 17 20 20 24 18 14 9 15 17 13 13 14 14 16 23 27 25 27 20 25 23 28 37 25 20 20 24 24 17 16 15 14 13 12 12 14 15 17 19 20 19 19 25 28 27 28 30
15 22 20 22 21 21 10 13 11 14 11 12 13 11 12 18 16 24 24 22 15 18 19 22 26 30 29 22 22 23 18 14 10 12 11 9 12 14 15 15 17 19 23 22 24 23 21 22 23
22 24 20 17 22 18 12 13 13 13 10 10 11 11 18 17 17 18 17 10 10 18 24 23 23 17 20 15 13 12 12 10 8 8 8 4 7 9 11 14 18 16 14 15 16 20 21 22 24
19 20 16 11 17 16 20 9 8 7 7 7 4 7 12 14 17 21 4 16 12 17 10 14 18 22 16 11 12 10 10 9 5 8 9 6 7 11 16 16 9 10 15 19 22 24 25 27 29
13 19 19 10 14 14 17 13 1 6 7 3 7 6 4 0 3 10 12 16 15 14 17 20 17 14 12 10 8 7 7 5 5 6 10 12 14 15 12 8 11 15 21 23 26 29 29 31 32
16 19 22 18 6 11 19 11 10 8 3 2 6 8 6 9 14 17 16 16 15 13 12 11 10 10 10 10 11 6 7 8 6 8 9 15 13 9 10 12 17 22 26 27 30 33 34 37 38
19 17 18 6 15 13 8 10 3 4 0 3 6 8 8 10 12 14 14 12 14 12 11 10 8 6 6 6 5 4 6 7 7 8 9 9 7 12 14 18 21 27 31 32 36 38 39 41 42
21 19 17 12 15 11 5 9 7 3 3 6 5 6 8 11 11 11 13 13 13 12 8 6 4 2 2 4 4 6 5 6 6 7 5 7 12 16 19 22 26 30 35 36 40 40 40 42 44
20 22 24 20 14 9 10 9 5 4 3 4 4 7 6 8 9 10 11 11 9 9 6 3 2 2 6 4 5 5 3 4 5 6 9 13 17 20 25 29 32 35 38 40 41 41 42 43 44
18 17 20 21 19 14 19 12 6 7 7 7 6 9 9 8 7 4 4 4 5 5 3 1 2 3 4 2 2 3 3 5 6 10 14 19 23 25 29 33 36 38 41 42 43 42 44 44 44
22 13 14 19 15 17 11 13 10 11 9 7 7 11 11 11 9 6 3 3 0 2 2 1 3 4 4 4 2 3 4 8 12 15 20 24 27 30 34 37 40 43 44 44 45 45 46 47 47
16 16 18 14 13 10 10 11 10 11 10 9 9 9 10 11 11 9 6 3 3 5 5 4 3 3 5 4 6 6 10 15 18 21 25 29 32 35 39 42 44 44 46 47 48 48 48 48 50
12 20 21 20 13 11 9 9 9 9 9 12 6 4 5 5 8 8 7 6 5 7 8 6 7 4 5 6 9 13 17 21 24 27 31 34 37 42 45 45 46 46 47 47 45 48 48 49 49
21 19 20 19 13 12 13 11 9 10 9 16 11 10 6 7 7 7 6 7 7 12 11 7 7 6 7 11 15 20 23 28 31 33 37 40 44 47 47 46 46 47 49 50 49 53 54 55 54
17 18 24 19 16 15 12 14 9 4 4 4 5 5 5 8 11 13 12 14 13 13 10 6 8 8 11 15 20 25 28 34 35 39 43 45 46 46 46 46 47 49 51 49 52 55 58 57 56
18 16 18 17 21 16 17 18 10 11 9 8 9 13 11 5 5 11 11 12 11 10 9 9 9 13 16 20 25 30 34 37 39 47 46 48 49 49 45 47 50 52 54 54 57 57 58 60 61
26 24 20 19 20 19 18 14 15 12 10 13 12 11 6 4 3 5 6 8 10 12 11 10 13 18 22 27 31 34 39 43 43 43 47 48 51 47 47 49 49 53 56 57 58 61 61 64 67
20 18 18 19 20 20 17 18 12 14 14 16 14 10 7 5 5 5 7 9 10 15 12 16 20 24 28 32 36 41 44 42 39 42 45 51 50 49 47 48 56 56 58 60 63 64 64 67 69
20 19 20 24 21 18 19 20 15 16 17 16 15 12 11 8 8 9 10 11 14 17 20 23 26 29 33 38 41 41 35 44 39 45 49 51 50 50 50 54 56 58 60 62 63 64 67 70 73
25 24 26 24 25 22 20 19 15 16 19 18 21 17 16 12 12 13 15 16 17 20 25 28 31 35 39 40 39 41 40 45 48 47 53 54 54 52 52 57 58 62 62 64 65 67 71 74 77
24 28 28 25 23 25 22 18 16 18 20 22 21 19 18 17 18 18 19 19 22 26 30 32 34 36 38 41 42 44 43 41 45 54 57 54 50 52 56 60 60 65 66 67 69 73 74 78 83

GFSSGP_500_spd_042.txt.gz
Wind_Speed
23 25 26 33 33 31 33 32 36 35 38 35 31 28 29 28 30 32 30 28 25 25 26 27 30 31 34 34 32 28 29 29 22 22 22 18 20 23 16 13 10 11 9 12 16 15 16 15 14
19 22 26 31 33 32 30 26 27 34 35 33 34 32 34 30 31 29 30 29 28 29 29 30 32 33 33 33 33 29 27 27 25 20 20 19 24 24 18 12 12 12 11 16 18 16 16 16 17
16 20 25 30 32 30 27 19 25 29 32 30 29 30 29 35 35 32 32 28 28 29 30 32 33 36 35 35 29 28 27 28 28 28 20 21 25 26 20 14 15 18 15 17 19 18 16 17 20
16 18 22 26 25 23 18 22 26 24 28 27 26 25 26 29 32 33 27 28 29 33 33 33 34 34 33 31 31 24 29 28 25 24 27 26 28 27 23 21 20 13 16 16 20 18 20 21 25
14 15 17 19 21 17 16 21 25 26 26 26 26 26 23 25 27 31 30 32 29 29 28 31 31 35 36 33 22 29 31 29 27 25 28 26 26 29 15 9 10 16 18 22 14 17 22 24 24
12 11 11 12 14 17 20 26 25 27 26 28 30 27 23 25 24 28 32 33 26 28 30 36 35 30 32 22 34 27 30 28 31 27 33 31 31 11 9 13 15 21 20 16 20 22 26 29 29
8 6 9 14 15 19 22 26 29 29 25 24 24 22 21 21 26 27 28 31 30 35 35 47 40 33 33 38 33 32 26 26 28 33 36 35 14 10 10 10 14 19 16 19 20 22 28 28 26
6 11 16 14 17 17 20 22 25 24 16 19 23 23 23 24 28 27 32 22 30 31 37 41 50 34 38 33 40 35 26 24 23 33 30 13 10 10 11 10 15 18 15 16 23 25 23 27 24
8 18 14 17 16 20 19 13 21 12 18 20 24 24 31 24 27 29 32 29 26 32 21 42 49 53 42 45 40 34 35 23 27 28 12 11 10 11 12 11 12 15 20 24 22 26 22 26 28
17 17 12 17 15 19 21 11 4 8 10 19 26 11 15 17 17 27 31 25 33 28 41 25 24 37 44 41 17 17 22 24 19 17 17 15 12 10 12 16 16 16 18 24 24 22 24 22 19
17 20 19 14 14 20 15 12 11 11 13 16 18 14 13 14 14 19 15 17 24 25 24 18 19 24 37 33 21 23 25 17 19 14 12 11 11 12 16 19 18 17 18 20 19 17 17 21 24
15 17 15 12 11 13 11 8 9 12 12 12 14 13 13 12 14 17 16 21 21 16 19 14 17 28 29 34 24 26 19 14 12 9 10 10 13 17 16 13 12 15 14 12 14 16 20 24 27
16 15 19 5 8 8 5 11 13 6 6 6 8 4 8 8 8 14 11 11 8 12 11 8 19 22 19 18 18 12 9 10 10 11 13 12 8 5 9 11 15 11 11 14 19 22 26 29 30
12 11 13 4 3 3 8 7 17 6 3 5 7 5 10 10 6 15 12 11 20 25 22 18 17 16 17 10 10 9 10 10 9 8 11 12 15 10 11 6 7 11 16 19 24 28 29 32 34
11 10 11 11 1 2 11 9 10 11 1 3 7 9 14 15 17 21 16 20 19 20 21 17 15 16 18 16 15 15 15 15 9 9 10 10 12 12 6 8 12 17 22 26 28 31 33 36 39
17 8 6 8 13 8 11 9 12 7 4 3 6 12 14 15 12 15 19 20 17 14 15 13 10 10 10 11 12 10 11 12 11 8 9 8 9 7 10 13 18 22 26 30 32 36 38 41 43
13 14 9 13 8 12 13 9 10 8 5 5 8 11 12 13 12 14 15 17 17 16 13 11 9 9 10 9 11 11 12 12 10 9 6 5 6 11 14 19 23 26 31 35 38 41 43 45 46
13 16 16 16 20 6 8 10 11 7 4 4 6 10 11 10 10 10 11 11 10 9 8 7 6 8 7 6 7 9 8 8 7 7 6 8 13 16 20 23 27 32 36 39 42 44 45 45 45
12 16 17 20 22 19 15 13 8 12 6 5 4 7 9 10 9 7 7 7 8 8 6 5 3 4 6 6 5 6 7 8 8 9 11 15 17 21 24 28 32 37 40 43 45 46 47 48 48
11 11 15 15 21 14 16 12 10 12 10 7 6 7 8 7 8 10 9 9 9 7 5 5 6 5 7 7 8 8 8 8 11 14 17 20 23 25 29 33 37 40 43 44 44 45 44 45 45
13 15 12 16 14 14 16 16 9 9 8 6 5 4 4 6 8 9 10 9 9 7 6 7 8 10 11 11 12 11 11 13 15 18 22 26 28 30 34 37 40 42 43 43 44 43 42 46 45
10 16 16 15 13 15 20 15 14 9 9 11 10 7 5 7 8 9 11 11 11 8 6 7 10 12 13 15 15 13 13 17 20 22 27 30 34 32 39 41 40 42 41 42 43 42 45 46 49
18 22 20 16 14 12 12 11 12 12 8 12 18 13 13 14 14 14 14 12 11 13 11 11 12 13 14 17 16 14 17 21 23 26 31 38 34 38 46 41 42 40 41 42 43 45 50 51 52
17 15 17 20 17 14 12 7 4 5 6 10 14 18 16 20 19 18 18 17 17 18 16 13 12 13 13 11 13 17 21 24 27 30 33 37 38 47 44 43 46 45 46 47 46 49 51 57 57
17 17 17 20 21 19 18 14 4 10 11 8 11 14 14 13 21 24 27 24 20 19 15 12 15 9 13 15 19 21 25 28 32 35 36 37 43 48 45 47 49 49 48 44 47 58 56 59 60
20 20 17 19 21 21 21 20 12 13 14 15 10 11 11 10 18 21 25 22 20 19 15 14 15 10 16 19 23 26 30 33 35 35 36 39 43 46 48 48 52 53 45 51 52 57 58 60 64
22 23 23 24 19 20 20 21 15 15 14 13 13 13 13 14 13 11 8 8 11 12 12 12 11 16 21 24 28 32 34 37 32 32 38 41 44 48 48 52 57 45 54 56 58 62 63 68 71
21 22 21 21 23 23 23 23 19 16 15 18 19 18 17 16 12 10 10 12 12 13 15 16 18 21 25 29 34 36 35 37 35 39 39 45 46 49 55 59 59 54 58 61 63 65 66 68 74
22 23 24 24 25 27 25 21 17 13 16 17 19 20 18 19 18 14 15 15 15 18 20 23 24 27 29 33 36 38 38 39 36 37 40 44 53 57 61 62 60 58 63 65 67 67 68 72 76
26 27 27 27 27 28 29 20 20 19 18 18 19 17 19 21 21 20 19 20 22 24 27 29 29 31 34 37 38 38 39 35 36 40 48 54 57 62 63 59 57 67 66 69 70 72 73 76 79

GFSSGP_500_spd_045.txt.gz
Wind_Speed
21 21 24 26 27 30 35 34 30 35 38 38 36 35 31 31 25 26 29 28 26 25 26 26 27 28 30 30 30 25 23 22 21 19 18 15 14 11 10 11 10 13 12 12 12 13 14 12 13
19 19 20 22 24 27 29 30 29 32 38 37 36 30 31 26 26 27 28 30 29 29 28 27 29 31 30 30 28 25 22 19 21 21 21 18 13 14 16 14 11 15 13 14 14 15 15 14 14
19 17 16 18 22 21 24 27 27 27 32 33 35 30 31 32 34 32 31 31 28 30 32 33 33 34 31 28 27 26 24 21 23 21 21 18 14 15 20 19 14 16 18 16 16 18 15 15 17
19 15 13 13 15 17 21 25 27 25 28 31 30 30 30 30 33 33 35 36 30 30 32 31 32 31 29 30 27 28 27 26 22 23 20 18 17 17 24 20 17 19 20 21 18 16 15 16 18
17 14 10 7 10 12 13 21 23 25 24 25 28 28 28 28 29 29 31 31 32 32 29 30 25 27 28 32 32 27 20 20 28 23 20 19 18 21 21 22 22 19 20 17 17 14 16 17 21
14 11 5 5 8 13 17 22 23 23 25 24 27 28 26 25 25 28 27 30 32 30 30 30 28 26 31 36 32 33 28 27 28 25 21 22 22 26 20 19 15 16 17 17 15 17 18 21 22
10 5 7 11 12 18 19 23 24 24 25 25 25 24 23 26 26 27 25 28 28 27 34 33 33 30 35 44 31 27 26 30 25 25 22 20 26 27 14 13 15 14 14 15 17 18 21 19 20
5 5 14 14 11 13 17 20 18 13 15 16 22 22 26 27 30 28 29 31 27 28 31 31 27 41 42 51 29 28 33 32 24 18 17 22 27 13 14 11 10 12 11 12 16 18 19 20 24
2 14 14 10 7 11 10 5 8 13 7 17 17 19 25 33 32 31 30 33 28 30 29 26 32 53 47 44 35 36 38 34 25 20 19 16 14 14 12 11 8 10 13 15 20 21 20 22 20
12 15 12 10 6 9 8 7 2 8 11 12 15 18 23 30 26 31 32 31 32 30 28 31 26 30 42 39 35 36 26 23 17 21 17 17 16 14 11 9 11 13 16 18 18 18 17 15 13
14 11 8 7 9 9 1 7 12 8 6 11 9 13 19 24 21 21 22 26 30 29 24 27 29 35 35 44 43 28 26 17 16 12 18 16 16 13 12 14 16 17 17 16 13 7 9 13 18
10 17 13 12 6 6 5 6 10 4 4 9 13 16 20 20 18 16 17 17 21 16 21 20 22 19 20 20 36 33 23 16 17 19 13 9 11 14 16 18 18 13 13 9 8 12 15 18 22
11 14 9 8 5 4 4 4 12 5 5 7 14 13 10 13 16 14 10 11 9 12 14 18 19 19 23 25 28 26 19 25 19 15 14 15 12 8 9 11 12 15 10 9 13 17 20 22 25
8 7 8 3 11 3 4 6 8 13 12 6 8 7 3 5 7 10 14 18 15 14 16 11 16 21 23 19 20 19 12 11 13 11 12 16 12 11 7 12 9 8 10 14 18 21 23 27 30
10 1 3 6 7 3 4 5 8 12 9 3 3 3 7 14 15 20 24 26 23 19 21 21 22 20 18 16 13 11 12 13 11 11 10 13 13 15 16 10 10 11 16 20 23 26 29 33 35
10 8 6 5 1 6 5 4 6 10 3 2 5 8 12 16 15 15 21 21 21 18 14 14 14 14 13 11 11 9 9 11 15 15 12 12 11 13 11 12 14 17 19 25 28 31 34 36 38
13 14 7 8 6 6 5 1 6 6 4 5 6 9 13 15 10 11 13 14 16 13 11 9 8 7 7 6 8 10 12 14 15 15 12 12 11 10 12 14 18 22 25 29 32 34 37 38 40
9 12 12 11 11 6 2 4 10 9 6 6 7 7 8 10 11 11 11 10 12 13 11 9 8 7 7 10 11 13 14 14 15 14 12 11 11 13 15 18 23 27 29 33 36 38 40 42 43
8 12 11 13 13 10 5 8 11 10 10 6 6 6 9 10 10 10 10 11 11 11 11 11 10 9 9 8 8 11 13 13 13 12 12 13 13 16 20 24 28 30 32 35 37 40 43 44 46
7 14 10 12 15 15 14 11 12 12 12 10 7 7 7 7 8 9 11 13 14 12 9 9 9 8 9 8 9 9 10 11 13 14 13 14 18 20 25 29 31 31 35 37 40 43 44 45 45
6 10 9 11 10 11 14 17 12 9 8 5 5 5 5 5 8 10 11 13 13 11 10 9 10 10 10 11 12 13 14 14 14 14 17 20 22 25 29 33 34 36 38 40 43 44 47 47 46
8 13 15 13 11 11 14 12 13 13 11 8 6 7 7 6 7 7 10 12 11 10 9 9 9 11 12 14 15 17 15 14 16 20 22 26 27 30 33 35 35 39 41 41 45 47 48 47 47
12 16 13 12 13 11 11 13 14 14 14 13 12 8 10 10 12 12 13 15 15 15 13 12 13 15 16 17 17 17 16 18 22 23 25 26 31 36 36 40 36 41 43 45 46 46 52 46 49
15 16 14 14 14 11 8 6 6 11 13 14 17 18 15 13 18 19 20 20 20 19 20 17 16 19 16 15 20 14 20 22 24 25 27 31 33 38 40 39 41 46 46 49 53 49 52 45 54
12 14 16 15 16 14 11 8 4 9 10 14 16 16 22 25 27 22 24 24 26 22 23 22 19 20 18 13 14 18 22 24 25 29 31 33 35 37 38 42 48 49 51 48 48 60 49 57 61
16 16 18 15 12 10 14 14 11 15 15 13 15 14 15 18 21 26 27 29 31 29 24 20 19 20 23 18 17 22 25 27 29 30 30 32 34 36 40 46 53 54 48 54 58 61 62 59 63
20 20 18 18 15 16 17 15 12 17 16 13 14 15 12 9 16 23 24 23 24 24 18 17 16 13 13 20 23 25 27 29 30 30 32 32 32 38 38 47 49 52 59 60 63 65 55 64 66
25 23 21 21 24 24 22 21 12 17 20 15 15 17 17 15 15 14 14 15 15 16 16 15 17 18 21 23 27 28 29 32 32 33 35 31 34 40 41 48 51 58 62 66 68 56 68 69 71
27 25 24 24 23 24 23 21 16 16 16 15 16 18 17 17 15 18 18 17 17 17 19 20 21 24 26 30 31 33 35 35 33 33 35 33 38 47 52 53 55 62 62 64 62 66 67 71 73
27 28 27 27 25 25 26 22 19 16 16 17 19 20 21 19 20 19 20 21 21 21 22 24 27 29 31 33 36 34 36 37 38 39 39 41 44 47 47 52 61 66 67 64 66 69 66 73 70

GFSSGP_500_spd_048.txt.gz
Wind_Speed
23 21 20 20 22 26 25 27 34 32 34 42 39 38 39 30 31 35 35 35 40 29 31 29 25 24 26 28 29 29 27 24 22 19 18 18 18 14 13 9 7 11 12 12 14 13 15 10 11
22 20 18 18 18 21 15 22 25 31 30 38 41 39 38 37 35 27 15 17 23 26 26 27 26 27 29 31 32 32 28 22 18 16 17 17 18 15 13 15 15 12 16 16 17 16 14 12 12
23 19 16 16 17 17 13 20 25 29 28 32 38 36 33 28 39 29 22 23 25 26 31 30 29 29 32 35 35 31 24 21 19 21 18 14 16 17 15 15 17 16 19 19 19 17 15 12 12
22 17 15 13 13 16 17 21 23 22 25 29 34 34 35 32 28 25 28 28 29 29 29 30 32 35 36 36 33 30 27 23 23 22 19 15 16 16 17 17 18 19 22 21 21 19 15 12 13
18 14 11 9 10 11 14 18 21 23 22 23 27 30 31 33 32 29 29 32 33 36 35 36 33 30 29 29 29 29 28 24 21 22 23 20 17 16 17 19 22 22 22 24 21 17 15 12 16
13 9 5 3 8 13 14 17 19 21 21 21 21 27 30 31 30 30 28 29 31 32 34 34 31 29 25 25 31 24 30 28 21 23 28 23 18 18 19 23 23 23 23 24 19 14 13 15 18
8 4 5 11 13 12 16 17 16 17 18 21 21 24 28 30 30 29 29 29 30 26 30 31 29 30 31 32 38 26 33 33 24 29 29 24 16 16 20 23 24 21 17 15 14 14 15 18 17
6 3 11 10 6 8 9 12 14 17 17 15 19 24 27 26 28 30 28 29 31 30 31 28 25 27 35 38 41 45 32 32 25 29 26 22 20 19 20 22 16 16 14 14 16 15 17 18 18
6 8 6 7 6 5 7 4 5 13 16 16 16 20 23 26 30 30 31 30 33 29 28 27 28 28 31 32 39 60 47 30 38 34 26 22 24 17 15 14 14 13 12 13 13 15 19 21 18
6 9 7 6 2 6 5 9 9 9 14 11 11 12 17 19 27 31 31 29 38 35 31 28 27 32 32 33 38 41 41 57 31 29 22 20 17 15 14 13 14 13 12 12 14 15 13 10 10
7 10 8 4 10 5 5 6 15 13 7 8 9 8 15 16 19 26 29 36 38 36 35 31 31 34 33 20 32 42 45 26 23 26 20 20 17 17 15 15 14 13 16 13 13 12 8 9 13
7 10 2 5 7 7 11 6 14 10 2 5 8 9 15 14 20 21 26 30 28 31 33 27 27 29 26 26 30 39 40 29 30 29 21 18 17 15 14 13 15 16 11 10 8 9 11 15 17
7 10 10 5 8 10 4 2 9 10 11 8 4 8 13 15 17 22 22 21 21 21 26 27 37 33 29 29 26 25 43 35 29 22 22 18 15 13 11 12 11 10 13 12 10 13 15 19 23
3 3 11 12 10 9 3 2 8 10 12 9 7 3 7 8 8 11 15 12 10 16 27 29 32 33 30 25 18 26 32 28 24 21 17 15 16 11 9 7 11 10 11 10 12 16 19 23 27
5 3 7 9 3 1 4 3 8 7 12 4 4 3 6 9 14 20 18 17 14 13 16 19 24 23 23 22 25 26 25 20 16 15 13 10 11 13 18 12 11 11 9 13 16 20 23 28 32
5 8 5 6 6 7 2 3 5 7 5 1 1 6 10 12 15 15 18 16 16 18 18 19 20 20 18 16 15 14 13 11 10 10 9 11 14 17 18 15 13 11 14 17 21 25 28 32 36
6 9 12 10 7 5 4 5 7 3 3 2 3 5 9 10 12 12 11 9 11 12 14 13 12 12 12 10 9 8 8 10 10 11 11 13 13 14 12 10 13 15 18 21 25 29 33 37 40
8 16 13 13 11 4 2 5 8 6 10 4 6 7 7 7 9 7 7 6 8 9 10 9 10 10 9 7 7 9 10 12 12 13 13 14 13 11 10 13 16 20 22 25 30 33 37 39 41
5 11 13 15 13 9 4 8 8 10 7 7 5 5 5 6 8 8 7 8 8 8 9 8 8 8 8 8 7 10 10 11 12 13 14 13 12 12 14 18 21 23 27 30 33 36 39 41 43
5 7 9 13 17 12 11 10 12 13 8 7 7 6 6 6 7 9 10 11 11 10 8 7 6 5 5 5 7 7 9 10 12 13 12 12 12 17 21 22 25 29 31 34 36 38 40 42 43
8 9 14 13 12 12 14 11 13 12 9 7 9 8 8 7 7 7 8 10 10 9 8 8 7 7 7 8 9 8 9 10 10 11 13 16 19 23 26 29 32 33 35 34 35 38 42 43 48
9 10 11 10 6 7 14 8 18 14 12 10 9 9 11 8 8 8 9 10 10 10 9 9 9 9 10 11 14 12 14 14 15 15 17 21 25 27 30 36 38 38 37 37 35 40 43 46 46
9 11 12 10 9 11 12 13 10 16 15 13 12 10 11 12 12 11 12 14 13 13 13 12 11 12 13 14 16 17 19 19 17 18 22 25 27 29 32 36 39 38 40 40 43 48 52 51 51
10 14 12 9 10 10 10 8 8 12 15 15 18 16 16 16 14 16 19 19 15 18 18 19 17 16 18 19 18 18 19 20 20 20 24 28 30 33 34 36 39 41 41 44 48 52 53 52 57
12 11 12 13 13 9 10 8 9 8 10 17 21 20 22 24 21 19 22 24 22 22 23 22 18 21 24 23 19 19 20 20 19 23 26 30 33 32 34 37 39 42 43 48 48 51 52 56 59
16 16 13 11 11 10 11 10 9 13 16 14 19 21 20 24 24 20 23 27 29 26 23 24 23 25 26 24 24 24 23 21 23 26 29 30 32 34 36 38 38 41 47 51 54 56 55 62 63
23 21 18 18 17 16 15 12 12 14 13 13 13 19 20 20 14 16 23 27 28 29 28 26 26 24 20 19 22 18 23 27 29 29 31 34 35 36 35 36 38 43 50 53 55 59 63 62 72
25 23 21 21 18 18 18 19 11 17 17 15 16 16 20 20 16 17 19 18 20 19 17 16 19 20 19 21 23 24 27 30 31 34 35 34 34 32 36 37 37 46 50 55 59 61 66 59 54
25 28 26 23 23 21 21 15 13 14 19 20 16 18 20 21 20 17 19 19 19 18 19 18 21 23 24 25 28 31 33 34 36 34 36 37 36 38 40 40 48 49 58 60 59 53 61 60 66
27 29 30 28 26 25 25 22 18 19 23 22 19 20 18 21 22 21 21 21 21 21 20 21 23 25 26 30 33 34 35 36 36 38 38 38 37 38 40 44 50 53 59 58 59 56 56 64 76

GFSSGP_500_spd_051.txt.gz
Wind_Speed
46 33 23 20 18 19 17 17 19 23 27 37 33 30 30 42 44 47 46 28 40 40 35 33 31 30 28 27 29 27 25 26 25 23 20 19 17 20 20 16 13 10 11 14 14 14 14 12 11
40 24 20 18 14 11 11 14 17 25 25 19 32 32 37 44 38 34 23 32 41 39 31 32 33 30 27 25 25 28 29 28 26 22 18 19 19 20 20 19 18 15 15 16 17 17 16 14 14
36 18 16 14 11 11 11 22 16 28 32 25 25 31 39 29 39 30 34 35 42 37 29 36 27 25 26 27 31 32 32 27 25 19 21 21 18 18 20 18 15 17 18 18 19 19 18 18 15
24 12 13 8 8 12 19 8 22 30 21 23 27 26 30 37 37 34 29 25 27 16 14 18 20 26 31 33 33 32 31 29 25 23 23 23 21 18 18 20 17 17 20 20 20 22 20 16 15
16 11 7 9 11 14 15 19 27 23 18 18 22 21 29 33 35 36 33 24 20 26 22 27 30 31 33 34 34 32 33 33 30 25 26 23 23 18 19 19 20 20 22 21 22 23 21 18 14
12 8 6 8 5 12 11 14 13 15 19 18 17 21 22 30 33 35 31 29 27 26 30 32 33 35 34 28 26 30 31 33 31 26 24 23 23 24 22 20 19 21 21 21 21 22 15 14 15
9 5 6 8 8 7 13 13 12 14 15 19 19 23 22 26 29 33 33 29 30 31 33 32 35 33 30 31 29 29 29 34 30 33 27 24 28 29 21 20 20 21 22 23 20 18 15 16 16
10 5 5 7 2 14 13 11 12 13 15 15 17 21 23 25 27 30 33 32 32 33 33 37 42 28 30 31 32 34 34 40 43 40 27 33 33 23 25 20 19 18 18 15 13 13 16 16 16
9 12 3 7 4 9 12 5 8 12 16 18 17 20 20 23 23 26 30 33 34 33 32 31 31 25 25 16 19 36 30 37 41 42 36 29 30 27 25 18 16 17 13 12 13 14 16 15 18
6 2 4 16 15 14 8 11 13 15 20 20 20 22 20 21 23 26 30 32 35 34 34 31 32 31 24 21 30 26 42 33 42 49 40 29 25 32 31 17 14 14 13 12 12 12 12 15 10
7 6 9 7 11 7 9 9 13 18 21 15 17 14 18 21 22 24 27 31 34 33 38 33 31 32 29 30 36 31 27 40 40 32 41 22 28 30 19 15 14 14 13 11 10 13 12 11 10
7 5 7 8 10 9 9 15 12 19 16 9 9 13 17 20 20 20 23 32 34 33 35 36 32 31 29 27 44 29 32 34 40 41 40 24 26 22 17 15 14 12 11 12 10 11 10 11 13
7 5 10 10 10 11 12 2 6 11 11 12 8 11 16 14 10 18 27 30 29 27 26 27 29 25 30 41 33 27 31 42 27 27 31 30 25 15 15 14 13 12 11 12 12 10 11 13 17
10 6 12 8 10 8 5 6 8 11 12 15 8 6 8 13 16 17 20 24 23 23 27 25 29 26 24 29 32 27 29 30 24 34 35 26 18 16 13 10 9 7 10 12 8 10 14 17 21
7 7 8 9 1 1 9 12 3 9 12 11 7 7 3 8 11 14 16 15 12 15 23 27 32 36 39 27 31 33 23 16 30 24 22 18 16 14 13 12 7 7 9 8 10 13 18 21 24
5 5 9 18 11 9 12 4 8 10 13 5 5 3 2 4 12 11 9 8 11 13 12 19 32 39 37 24 14 14 19 22 20 18 15 13 12 13 10 13 13 9 10 11 14 18 22 24 27
9 6 13 18 10 19 11 18 12 11 14 2 1 2 2 2 3 7 7 13 11 11 13 14 17 19 20 20 17 17 15 15 13 11 11 11 10 12 10 12 13 12 13 15 20 23 25 26 29
7 11 11 13 20 14 11 10 10 15 15 8 3 2 2 3 2 2 3 4 4 6 5 9 11 12 12 11 8 8 8 9 10 12 12 11 11 10 10 10 11 14 17 21 24 26 29 30 32
14 14 12 18 18 14 7 8 14 21 12 9 6 4 4 3 2 3 1 3 3 3 3 5 5 5 4 4 5 6 7 9 11 11 12 12 10 9 9 12 16 18 22 25 27 28 33 32 32
9 8 10 19 23 16 11 10 14 19 9 4 3 3 3 3 3 4 5 5 6 6 5 5 4 3 2 2 2 4 6 7 11 12 12 12 11 12 14 16 20 24 26 29 30 33 36 33 34
10 7 19 17 20 14 19 7 10 20 13 5 8 7 7 7 5 5 5 6 7 9 9 8 7 7 6 5 4 6 7 9 11 10 10 11 11 13 17 21 26 30 33 35 37 39 39 36 39
6 9 17 16 12 11 13 14 14 17 20 10 9 8 10 11 10 8 7 7 9 10 10 10 9 10 10 9 9 9 9 11 11 10 11 13 15 18 23 26 30 33 34 37 38 40 37 39 43
10 16 8 10 10 15 12 10 23 10 15 16 13 11 11 11 11 11 11 11 11 11 13 12 11 11 11 12 14 15 14 16 16 15 16 17 18 21 26 29 32 34 37 38 40 40 43 43 50
13 10 9 7 8 12 11 14 14 12 8 14 16 17 14 14 13 14 14 15 13 17 15 16 16 16 16 17 18 19 18 17 20 21 20 20 21 26 29 32 33 34 37 38 41 41 43 47 52
15 15 6 11 13 8 10 14 15 13 9 17 18 16 18 18 17 18 20 22 22 21 21 20 18 17 16 20 23 20 17 21 22 25 22 20 24 29 32 34 34 36 38 39 41 43 47 50 54
19 16 14 14 12 13 20 13 11 14 17 15 15 16 21 22 25 22 22 22 22 22 21 20 21 19 24 33 16 24 14 20 26 22 17 22 29 31 34 35 36 37 33 39 41 44 46 49 56
17 21 15 18 19 17 9 11 18 14 17 16 17 20 21 24 23 22 19 17 20 22 23 23 20 19 20 28 19 19 15 18 20 24 27 30 35 35 36 35 36 37 39 41 41 43 52 59 62
26 19 22 23 21 20 14 17 17 18 21 18 18 18 20 21 25 24 21 19 19 21 20 18 17 17 17 19 21 20 21 24 29 32 33 36 36 38 39 39 39 40 41 40 45 52 58 61 61
25 28 24 21 21 18 15 12 18 22 23 20 18 19 19 23 24 26 24 20 21 22 21 18 19 19 19 21 24 24 26 29 33 35 36 38 38 39 41 42 39 41 44 48 52 54 56 58 65
22 23 26 26 21 30 27 24 17 22 23 23 26 22 21 22 23 26 26 26 22 21 22 22 22 23 24 25 26 29 32 34 36 37 39 40 40 42 42 41 41 43 45 54 45 49 57 72 68

GFSSGP_500_spd_054.txt.gz
Wind_Speed
52 55 52 32 21 17 11 16 10 9 33 36 39 46 34 32 34 50 61 51 14 10 29 32 34 29 28 29 29 30 29 29 27 25 22 21 15 17 20 21 18 18 14 14 15 15 14 15 12
52 53 37 17 13 6 6 17 14 31 26 32 31 40 46 42 35 55 57 52 49 46 36 30 34 31 30 29 26 27 28 28 29 26 24 21 17 18 20 22 21 22 19 17 16 16 16 16 15
53 44 20 11 7 7 7 24 22 30 28 29 29 32 31 35 29 39 35 39 46 25 19 35 36 32 28 31 24 25 26 27 28 29 23 21 20 20 20 21 22 22 23 20 17 17 16 18 15
48 24 10 8 12 7 15 22 15 22 26 24 29 38 45 32 31 36 37 18 31 18 24 33 32 28 33 30 24 26 29 28 29 26 24 23 23 22 22 21 21 22 20 19 19 17 18 18 17
35 13 14 11 14 13 19 25 31 28 19 25 31 43 39 11 26 28 27 24 22 22 22 17 27 15 19 21 27 29 29 29 30 29 29 28 26 26 26 20 19 22 22 19 19 19 19 21 19
23 8 10 12 16 7 21 28 26 30 30 24 29 26 33 33 18 24 26 27 21 24 17 15 19 20 20 24 26 27 27 29 30 31 32 31 29 30 29 23 19 21 20 18 18 19 19 19 12
10 7 1 11 8 22 26 22 16 21 28 22 20 31 26 19 19 20 27 29 25 23 22 20 25 22 25 28 30 32 30 29 28 32 32 31 29 29 28 26 22 22 18 18 18 19 13 15 12
10 4 10 6 13 23 20 15 21 13 23 30 23 26 27 34 21 22 26 28 26 23 23 21 21 23 30 30 36 35 33 31 32 28 35 37 36 29 24 26 25 23 18 17 17 12 11 10 11
6 10 7 4 12 26 21 13 13 12 14 15 23 15 22 16 18 22 24 27 27 26 24 21 25 20 30 22 32 37 30 22 31 38 41 36 38 30 26 29 24 23 19 13 7 10 10 11 12
2 2 1 12 22 27 25 22 17 14 14 20 22 25 24 16 18 25 25 26 28 28 24 23 28 25 22 22 23 14 33 27 31 36 28 34 36 35 30 32 27 20 14 9 10 7 10 10 10
6 3 12 14 22 18 12 14 18 12 16 16 15 13 26 21 22 24 25 24 28 26 26 26 27 29 30 22 21 23 23 30 31 25 33 34 43 37 30 29 28 18 13 11 8 8 12 11 8
14 4 12 13 19 12 17 17 7 11 14 17 18 15 12 19 22 26 26 26 26 25 26 26 25 34 32 32 30 27 26 36 45 35 31 34 37 34 32 20 22 17 13 11 10 12 12 8 8
8 5 9 16 13 10 16 9 8 13 9 12 20 21 12 13 16 17 23 26 27 26 28 29 29 32 33 28 27 27 36 24 23 27 28 31 34 28 24 22 16 13 12 11 13 12 10 9 10
9 11 10 10 10 9 13 16 21 16 5 11 16 17 10 11 11 15 18 24 26 27 29 26 23 23 24 27 32 35 28 27 31 21 23 31 28 22 23 17 13 12 10 11 12 12 11 11 12
8 6 7 8 7 9 12 19 32 16 7 12 13 16 11 8 10 11 13 17 19 16 18 25 28 27 26 23 23 27 24 24 21 29 28 25 23 23 20 15 13 8 7 11 10 11 12 13 16
6 3 5 14 19 16 15 14 12 8 8 11 12 13 12 10 9 9 7 2 2 7 10 18 22 25 26 24 27 27 25 25 19 13 18 23 20 17 14 13 12 6 9 10 11 12 15 17 19
11 12 8 23 19 18 19 18 20 7 17 15 11 10 7 8 6 7 11 14 16 17 15 19 13 9 16 18 15 10 11 15 19 23 21 17 11 10 10 10 11 12 13 12 13 16 18 20 23
3 13 12 16 26 22 16 23 21 20 18 17 9 7 5 6 6 5 10 10 11 13 15 18 17 17 19 19 19 17 17 15 13 11 12 11 10 10 9 10 11 12 13 13 16 19 22 25 27
13 24 14 14 26 25 22 13 25 17 4 14 7 2 5 5 4 5 6 9 10 11 12 12 11 11 9 9 10 11 10 7 6 6 7 7 8 8 9 10 13 12 14 15 20 25 26 29 29
10 11 18 10 16 25 20 12 19 18 13 13 6 4 4 3 2 2 3 5 8 12 11 11 11 11 9 8 7 6 2 4 6 8 9 11 10 10 11 11 13 13 16 21 25 30 33 35 35
6 6 23 21 21 14 11 13 13 21 12 16 13 8 6 6 4 3 3 3 4 4 6 7 9 9 8 7 7 7 6 3 4 5 8 9 9 10 11 13 14 18 24 26 29 31 34 35 35
7 4 12 17 25 11 11 12 15 14 19 22 13 13 9 9 6 5 5 5 6 6 7 8 8 9 8 8 8 7 5 4 5 6 7 9 11 11 13 16 19 23 27 29 32 34 36 36 36
11 10 9 11 23 19 16 17 14 18 20 20 13 12 14 13 9 4 5 5 8 10 10 11 13 13 12 11 10 9 9 8 8 12 13 14 14 15 17 20 23 27 29 33 33 35 39 39 42
16 11 10 11 11 11 15 20 15 16 11 17 19 17 16 16 12 9 7 5 7 10 12 13 12 14 14 14 16 15 17 13 10 11 15 17 16 18 21 24 26 29 31 33 34 38 42 41 40
20 15 13 14 9 4 10 15 8 21 21 11 7 20 17 13 17 13 12 13 16 12 13 12 11 12 14 15 17 21 18 15 14 13 14 21 19 18 23 28 30 31 33 33 35 32 37 38 40
21 20 17 11 17 9 15 14 15 20 21 10 12 17 20 15 17 17 17 14 11 13 13 12 12 15 15 17 18 21 14 17 23 4 5 12 13 20 25 31 32 33 33 34 34 38 40 38 44
23 24 15 14 18 20 15 8 22 19 20 14 16 17 17 21 23 21 19 20 19 16 15 13 14 15 19 16 16 14 16 19 5 14 16 19 22 26 29 30 33 34 33 38 39 39 41 42 44
27 18 20 25 25 22 18 12 14 23 18 22 18 20 21 19 20 23 26 24 23 24 19 17 15 17 18 15 14 15 18 16 16 20 22 24 28 31 31 33 34 37 38 40 40 42 45 50 48
29 29 29 27 27 25 19 17 27 12 16 25 24 26 23 21 17 22 23 27 27 27 28 23 19 21 24 22 26 25 24 23 24 25 26 29 30 33 36 36 36 39 41 42 42 42 44 51 45
28 28 30 29 26 26 23 28 16 28 12 23 27 24 22 23 17 19 22 23 28 27 31 26 22 25 28 30 32 26 28 29 30 31 32 34 36 36 39 39 40 41 41 43 44 47 50 52 57

GFSSGP_500_spd_057.txt.gz
Wind_Speed
42 46 48 51 44 25 11 4 3 6 17 26 27 25 30 37 42 46 48 53 51 54 34 18 34 28 28 31 32 30 28 28 26 24 23 23 22 18 18 18 20 18 19 19 18 18 16 15 14
42 45 49 42 24 13 9 4 10 20 32 28 21 25 32 33 40 41 45 44 47 51 50 37 15 32 32 35 31 29 28 30 31 29 26 24 21 19 17 19 19 22 23 22 20 16 15 15 14
42 44 43 21 13 2 4 20 24 16 27 31 28 29 30 35 37 41 37 43 50 54 56 59 39 27 35 36 37 34 35 32 32 30 28 23 21 20 20 19 21 21 22 23 21 19 18 16 16
41 42 30 10 12 15 10 14 28 28 14 19 29 26 25 31 37 37 52 46 47 48 55 60 52 39 50 40 41 37 36 31 28 26 23 20 20 21 21 22 23 21 22 22 23 21 18 17 17
40 33 19 13 13 22 8 16 25 26 34 24 24 29 32 29 39 41 27 42 36 21 25 36 34 27 35 29 35 41 37 31 27 24 22 22 24 24 24 26 25 22 21 22 22 20 19 18 17
33 30 14 8 9 13 24 26 32 33 21 27 37 34 26 28 30 31 32 16 14 17 15 23 33 14 38 25 29 41 32 27 28 27 25 26 27 28 29 29 28 23 19 21 21 20 18 18 17
33 19 8 9 5 13 23 31 28 25 14 19 26 28 28 23 29 27 19 12 12 13 16 23 20 15 14 24 24 28 22 27 30 27 27 27 29 29 28 30 29 25 18 18 18 18 19 16 14
25 12 4 5 4 20 25 24 26 24 24 18 19 25 26 26 24 19 14 13 13 14 20 23 24 19 20 23 28 35 29 34 32 27 27 26 27 32 34 30 27 26 22 17 18 20 15 12 10
21 1 4 2 4 20 28 24 20 19 17 19 10 15 22 21 20 18 16 17 17 18 22 27 23 22 20 21 28 26 35 33 30 30 27 27 30 33 37 33 24 24 21 19 18 13 11 11 8
17 4 8 3 14 22 26 33 29 20 13 14 14 19 23 16 18 24 23 18 18 19 22 25 21 17 21 20 17 14 16 32 32 33 31 25 30 37 41 38 33 27 22 19 16 12 12 9 7
16 6 9 4 17 20 16 19 25 19 8 14 12 16 14 11 17 25 27 24 19 19 22 23 23 19 20 18 18 20 19 17 25 30 30 35 29 37 31 37 31 30 24 19 15 13 11 9 8
16 8 10 7 16 12 14 20 21 21 9 10 7 15 14 10 13 17 21 25 25 20 20 22 23 21 22 20 24 18 21 24 20 25 27 32 30 30 40 30 34 26 22 22 18 14 11 8 11
18 8 12 14 15 12 15 16 15 22 15 7 12 12 14 8 11 16 21 21 26 23 25 24 24 24 22 26 21 29 27 28 29 28 26 17 21 28 31 38 26 21 23 17 16 13 12 11 12
19 11 10 8 5 11 16 20 20 21 16 10 12 11 12 11 11 14 16 18 19 21 26 26 24 24 27 21 25 28 26 29 34 30 26 23 17 27 25 26 22 24 18 16 15 13 12 14 12
19 11 10 7 4 10 21 14 23 16 15 12 13 11 14 13 9 9 10 13 16 7 7 15 19 23 22 19 22 22 22 20 15 22 25 21 22 23 23 25 25 17 13 14 14 16 14 13 12
15 6 8 3 7 18 20 18 17 13 11 10 9 10 10 13 16 12 10 12 19 20 15 8 15 16 22 25 23 18 20 16 19 22 19 11 13 16 27 25 19 13 11 13 14 14 13 12 12
11 6 4 6 14 25 17 19 13 15 21 13 11 9 9 12 8 9 11 16 17 20 21 15 7 14 18 20 20 21 19 23 23 20 17 11 18 26 22 18 15 12 11 13 14 13 13 13 16
16 14 7 12 13 22 26 20 20 24 18 9 8 8 7 7 9 7 8 12 15 17 18 21 21 18 6 10 7 10 14 16 17 20 23 28 23 18 15 11 11 14 14 15 13 12 14 17 21
9 11 9 9 16 19 24 24 21 18 17 16 9 6 6 7 6 5 4 7 11 13 14 15 17 16 18 16 17 18 16 19 19 19 17 15 11 10 10 11 12 14 13 12 13 15 19 23 25
6 8 7 16 17 16 15 23 20 9 16 13 10 10 8 6 4 5 3 4 6 9 12 13 15 14 14 13 12 10 9 11 11 12 11 10 9 9 9 12 14 14 12 13 16 21 23 26 28
7 7 13 26 26 20 22 19 21 13 14 12 6 7 7 7 6 4 3 2 4 6 8 11 13 13 12 12 11 9 8 8 7 7 7 8 8 11 13 14 12 11 13 15 19 24 27 30 31
10 10 14 28 29 22 21 11 17 20 22 9 10 6 5 5 7 3 3 4 6 7 8 8 8 7 6 6 7 8 7 5 4 6 7 10 12 13 14 13 12 14 17 19 23 25 29 30 31
12 19 17 15 17 18 21 20 12 21 20 17 10 10 7 4 7 3 1 4 5 6 7 7 6 7 5 5 5 5 5 5 3 5 8 11 11 13 12 13 14 16 19 24 24 26 29 30 33
17 19 16 17 14 11 11 25 15 13 13 18 14 12 12 8 3 6 3 3 2 7 7 5 6 6 5 5 5 6 8 8 8 9 12 15 15 15 16 16 19 22 23 24 27 28 30 30 29
22 24 21 20 16 6 13 15 10 13 13 14 26 18 15 7 4 6 9 7 9 7 6 7 7 9 8 9 9 9 11 8 9 11 12 13 16 20 23 23 22 21 25 29 32 29 26 29 38
27 24 24 20 15 13 12 7 12 10 8 8 10 12 15 10 11 6 6 9 10 10 8 11 13 13 13 11 11 12 13 10 11 13 13 15 15 13 15 17 22 23 26 29 26 24 29 33 36
24 25 19 22 24 20 18 13 18 14 18 15 13 15 17 13 15 16 13 10 10 12 14 14 17 17 14 15 13 13 13 11 9 9 8 12 13 16 18 20 21 25 29 29 31 33 34 35 36
29 26 26 27 28 27 18 15 15 13 20 20 19 17 18 18 18 20 21 15 17 14 16 18 19 18 18 18 16 16 14 17 17 14 15 18 17 20 24 21 24 28 31 32 33 35 36 37 38
31 33 31 29 31 31 22 20 20 24 21 26 22 20 18 20 17 19 21 23 16 14 16 15 18 24 23 24 23 27 28 27 28 20 17 21 24 24 26 27 30 31 32 34 35 36 38 40 42
32 29 33 37 28 30 30 26 22 25 22 21 20 17 19 21 17 18 21 22 23 17 13 15 21 24 28 26 30 28 39 30 36 14 22 21 27 29 31 32 32 34 36 37 38 40 41 43 46

GFSSGP_500_spd_060.txt.gz
Wind_Speed
38 40 41 41 40 31 20 8 7 4 14 9 17 20 18 16 29 26 39 40 38 40 40 45 33 23 45 45 34 34 29 28 32 29 27 26 26 23 20 20 20 20 19 18 18 17 17 17 16
37 39 39 38 28 18 8 8 7 12 16 19 23 23 21 23 24 26 32 36 40 40 44 53 56 28 23 36 39 31 31 33 32 32 29 27 26 24 22 20 19 20 22 22 21 20 17 15 15
35 38 36 28 14 11 6 10 11 15 18 25 24 28 23 25 26 26 33 33 38 40 43 43 52 50 28 25 30 33 36 37 35 32 30 28 28 25 22 20 20 21 22 22 22 21 18 16 17
30 33 30 18 12 13 9 9 13 14 25 29 33 32 27 27 25 29 34 37 33 39 37 37 48 49 33 30 33 38 44 38 36 33 30 31 29 24 18 21 21 21 21 22 22 20 21 21 18
28 31 26 15 11 6 7 14 17 21 28 32 33 29 24 22 24 27 34 32 34 39 40 38 40 28 31 30 50 39 43 41 37 35 33 27 20 19 20 21 23 23 22 22 21 20 20 20 18
27 28 20 12 11 9 6 9 21 28 30 33 27 24 26 25 31 31 33 35 40 43 46 45 30 19 25 28 25 33 43 44 40 36 32 26 23 23 23 23 25 25 24 24 22 21 21 18 18
25 26 18 13 13 7 8 16 19 18 18 28 20 16 15 16 24 28 32 34 38 15 30 38 24 21 25 31 32 27 41 47 39 35 32 26 25 25 25 27 27 27 27 26 21 21 23 20 16
24 23 17 12 13 9 18 20 19 15 19 18 16 13 15 22 26 17 13 26 15 14 15 25 20 16 16 24 27 27 26 35 37 36 27 25 24 26 26 27 27 26 27 25 21 21 21 19 13
21 22 16 11 12 14 17 23 23 12 16 19 12 8 15 18 20 18 9 10 11 10 15 19 19 20 14 20 21 24 20 24 28 27 28 26 20 26 27 24 31 35 33 27 30 23 20 19 13
19 19 16 14 15 14 21 24 20 16 23 17 8 9 12 12 7 13 9 10 11 14 19 22 20 26 22 15 17 7 10 19 26 28 29 25 27 25 20 30 33 40 33 27 30 21 19 17 13
20 22 17 15 12 17 20 17 20 22 22 18 8 13 19 14 8 13 14 15 15 13 21 23 21 23 23 20 15 8 8 23 11 24 19 32 29 32 33 32 32 40 33 30 28 21 19 15 15
16 22 16 11 11 17 8 14 17 21 22 27 11 10 14 13 8 9 8 7 9 15 20 23 23 19 18 15 17 12 14 15 16 15 17 26 30 28 33 27 24 34 31 30 25 21 18 16 14
16 21 19 12 10 8 7 6 15 17 20 9 9 11 12 14 7 9 10 12 14 12 20 23 26 21 22 22 19 16 19 18 16 21 18 19 24 27 23 19 26 30 30 26 27 27 23 16 15
19 21 15 9 9 8 6 7 10 14 19 9 13 15 10 12 4 4 6 11 14 9 17 24 28 27 25 27 24 31 23 19 25 22 24 23 27 23 22 18 24 29 28 25 24 19 15 15 16
18 17 11 4 7 10 11 9 13 19 7 21 14 14 12 9 10 9 9 9 11 7 14 22 27 30 31 28 27 23 22 26 26 26 28 26 22 22 18 15 22 24 28 25 20 18 17 17 18
16 13 9 8 11 13 13 7 13 15 18 11 13 14 7 10 13 11 10 11 12 11 4 19 24 30 33 29 26 23 24 23 23 20 17 19 23 21 14 18 22 28 26 19 19 17 18 19 18
16 15 13 12 9 12 10 8 14 12 13 12 14 8 6 10 10 9 10 10 13 15 14 3 16 23 28 30 25 26 23 19 20 20 16 21 22 20 16 20 28 24 16 15 14 15 18 17 14
17 16 16 20 14 12 6 9 15 13 4 6 7 7 3 7 9 5 6 9 10 14 14 16 15 10 17 19 23 24 20 21 23 24 22 23 26 23 26 28 24 19 15 14 17 18 17 16 15
20 16 14 16 12 15 18 13 12 13 7 2 7 9 5 5 7 3 2 4 8 10 12 12 18 16 18 10 7 13 19 24 25 26 28 25 24 30 32 24 16 17 18 17 18 19 18 17 18
21 18 20 13 15 22 13 15 17 15 12 3 3 6 8 4 3 2 3 1 4 7 11 12 12 13 11 14 14 16 14 14 14 17 21 24 23 20 18 18 19 19 20 19 18 16 18 20 21
19 17 21 13 22 23 23 18 17 19 12 7 6 3 7 2 2 2 3 2 2 5 7 10 11 11 13 12 11 11 12 12 10 8 10 13 14 15 17 17 19 19 19 18 17 18 19 22 24
18 21 20 16 21 25 23 22 18 20 15 3 4 1 5 4 3 3 3 1 2 3 4 6 7 7 9 11 12 12 12 9 8 10 12 13 16 20 19 19 19 19 18 18 18 20 21 24 27
17 25 22 19 22 20 16 26 16 23 11 7 2 7 4 6 4 2 3 5 3 1 2 0 2 3 4 6 6 6 5 6 5 5 8 12 15 19 17 18 17 20 21 21 20 22 25 27 28
26 27 25 22 22 16 11 21 14 24 18 11 3 3 8 8 4 1 0 5 5 5 4 3 2 3 4 2 3 4 3 1 4 5 9 12 13 14 17 19 21 23 23 23 22 23 26 29 32
30 29 27 25 24 11 19 20 8 21 17 15 6 3 11 5 4 4 2 6 11 10 7 5 5 7 7 7 7 7 7 5 6 9 11 13 16 17 20 22 24 26 27 25 25 23 27 28 28
30 29 29 27 24 18 28 13 11 14 14 13 14 8 7 9 7 7 5 6 9 13 10 8 8 10 11 10 12 12 12 8 9 11 17 17 21 19 19 23 26 34 23 23 27 24 23 26 28
30 35 23 29 29 30 28 23 18 15 14 18 17 12 11 11 8 9 7 8 10 10 14 12 10 11 13 13 15 13 13 15 18 20 18 17 20 19 17 16 20 21 21 25 27 21 28 30 33
35 30 31 34 32 31 28 25 24 16 16 17 17 17 19 11 10 10 11 11 13 12 14 17 15 15 16 17 16 17 19 19 21 24 23 19 21 18 16 16 24 24 24 26 25 28 31 33 34
37 37 38 37 37 31 31 25 27 19 20 17 20 20 22 16 13 15 12 11 13 18 16 17 18 19 19 21 21 24 27 29 28 29 33 28 26 22 18 20 22 26 27 29 30 32 34 34 35
40 39 38 39 35 32 32 27 27 26 24 20 22 22 17 19 19 18 19 16 14 16 17 16 18 21 22 25 28 34 29 33 29 44 28 36 28 17 17 22 27 29 30 31 32 34 36 37 38

GFSSGP_500_spd_066.txt.gz
Wind_Speed
29 28 30 29 30 30 31 31 28 24 25 24 22 20 20 17 17 18 24 21 25 40 41 39 35 35 34 40 37 38 39 44 40 32 29 21 20 20 19 14 14 12 13 15 16 15 14 14 13
27 28 29 28 29 28 30 28 23 20 20 23 21 19 18 20 23 21 21 21 30 26 30 38 35 29 31 28 36 40 33 39 45 34 22 24 21 22 19 17 15 15 14 16 16 19 17 19 17
27 26 25 27 29 30 27 24 21 21 19 20 16 15 17 22 22 24 23 23 21 24 28 29 22 26 26 25 23 30 30 38 43 37 28 27 24 24 20 17 16 17 16 16 21 18 19 22 20
26 23 25 26 28 31 25 21 21 20 19 19 20 21 19 21 29 25 20 25 21 22 33 28 26 30 29 25 21 30 37 32 29 33 33 30 28 25 21 21 17 17 17 17 20 20 21 20 20
24 23 24 26 28 29 22 18 20 22 19 18 22 23 22 23 23 24 16 18 21 18 22 36 28 27 29 26 27 29 28 24 29 35 31 31 29 23 26 23 20 22 19 19 18 17 20 22 20
20 22 23 26 29 25 21 19 18 19 19 21 21 24 26 23 19 21 20 20 22 23 23 26 33 35 32 31 32 29 31 31 29 31 33 31 32 28 25 23 20 21 22 19 20 23 23 21 19
20 22 24 26 28 24 20 18 18 17 16 14 18 22 23 19 14 13 18 22 23 25 25 23 27 32 34 34 29 29 29 37 35 43 32 36 34 30 25 22 18 20 21 20 23 25 24 24 22
19 23 23 26 26 23 21 19 18 16 12 11 17 18 15 16 17 17 19 19 25 22 23 25 34 35 34 32 31 37 32 30 26 22 31 39 36 31 24 24 21 22 24 23 23 24 23 25 24
19 22 23 25 25 24 22 17 15 11 12 12 14 15 17 18 19 20 15 11 12 17 22 24 30 35 27 16 25 31 29 21 25 32 40 49 38 35 26 28 25 22 23 20 18 20 24 29 25
17 21 22 24 27 21 19 14 9 8 8 9 11 11 13 18 22 17 11 10 11 12 12 8 6 10 15 16 28 23 24 25 36 34 37 45 37 34 28 26 19 18 20 21 17 21 25 30 29
16 19 20 26 28 24 11 10 9 7 11 12 8 6 9 14 17 14 6 9 13 16 11 8 5 12 11 15 21 6 13 17 24 32 44 41 31 30 29 22 20 20 24 20 19 23 23 29 29
15 17 20 25 27 24 14 11 12 5 9 11 9 7 10 14 14 13 6 6 12 12 11 10 9 14 13 17 17 16 11 17 22 23 31 32 27 23 20 22 23 23 28 22 25 21 20 26 30
17 18 20 23 26 24 19 13 13 9 12 8 9 10 13 12 10 9 8 6 10 13 14 12 14 15 16 15 10 15 15 18 20 22 22 19 24 20 20 24 26 26 22 20 22 19 17 22 33
20 18 21 21 25 24 18 17 15 11 10 9 5 10 11 8 7 6 7 7 10 13 14 14 17 14 20 16 13 20 15 14 13 16 18 20 24 20 19 19 23 28 22 22 18 19 19 22 26
21 19 23 20 22 26 23 19 16 13 10 9 10 8 8 8 6 6 3 5 6 11 15 15 15 17 20 21 17 15 24 20 20 14 19 19 17 19 21 20 21 23 22 23 21 20 20 24 26
23 20 24 22 20 23 23 17 16 14 12 11 4 5 6 7 6 5 6 5 7 8 12 14 16 13 22 24 17 21 19 17 20 20 24 20 24 25 21 23 23 24 22 24 23 24 23 26 28
24 23 27 24 20 20 25 17 17 17 14 13 7 3 1 6 6 5 5 8 8 10 13 11 17 26 24 30 24 29 22 23 21 21 21 23 24 23 25 25 28 26 27 25 26 25 25 27 32
23 28 26 27 24 21 23 23 16 19 17 13 10 8 5 4 6 6 6 9 11 10 12 15 8 19 27 30 27 26 22 24 23 21 23 27 22 24 26 29 30 25 29 26 27 27 27 28 27
29 28 22 25 26 25 21 22 18 18 19 18 15 12 7 7 6 6 8 10 12 10 10 10 11 3 17 23 29 27 30 26 26 25 24 26 23 29 28 30 28 29 28 29 27 27 27 27 25
28 28 23 23 24 30 24 23 20 18 18 14 19 15 10 10 8 8 11 13 13 10 8 8 6 7 5 7 16 21 28 32 30 33 26 29 29 32 26 28 29 30 24 25 27 24 19 22 22
29 23 25 24 30 33 26 21 18 13 16 12 17 15 11 11 9 9 10 13 14 10 7 5 2 1 2 2 5 8 17 30 33 33 29 28 34 31 28 28 25 25 27 24 23 20 19 20 21
30 22 27 28 31 34 33 18 18 19 12 11 16 13 14 13 11 11 13 12 13 10 8 8 3 1 1 1 2 6 7 8 11 18 26 31 32 28 28 28 25 25 24 22 26 27 25 24 26
24 29 32 30 33 32 28 27 15 15 10 12 20 17 15 14 12 9 12 10 11 9 7 8 5 3 4 3 3 1 4 5 7 7 9 12 13 13 16 22 25 24 25 29 27 25 23 28 28
32 34 36 33 33 32 24 29 15 11 10 12 19 16 17 15 12 9 7 8 6 6 3 6 7 4 3 6 5 5 3 2 3 8 10 9 10 11 15 21 24 24 24 25 25 27 29 29 30
38 34 38 37 36 28 27 30 20 13 15 9 18 16 17 17 17 12 10 8 7 8 8 7 8 4 3 2 3 4 6 6 6 8 9 11 13 14 17 21 24 25 24 26 28 28 31 29 33
38 37 38 41 35 31 35 31 22 18 19 11 19 22 20 15 16 15 13 10 8 8 10 11 9 9 7 6 6 5 7 8 10 11 13 14 16 19 21 22 24 25 25 28 32 32 30 32 35
40 42 35 39 40 38 34 33 25 23 22 14 15 18 19 17 20 17 16 12 11 11 13 13 11 9 9 12 11 10 10 11 14 16 18 19 19 21 21 21 23 25 28 32 34 30 32 31 32
42 40 40 43 45 42 39 33 27 22 22 24 17 16 19 18 20 22 18 17 15 14 15 14 14 13 15 15 16 16 17 17 18 18 20 21 22 24 25 25 25 28 30 31 32 31 32 33 33
38 41 42 41 43 42 40 35 26 21 24 29 26 21 21 20 23 23 22 22 19 16 14 15 18 18 20 22 22 23 24 25 25 26 27 29 32 31 29 29 27 30 33 37 33 33 33 30 38
42 41 41 44 45 45 44 39 28 20 20 24 27 24 22 18 22 23 30 26 22 16 14 15 20 21 22 24 26 27 28 28 33 38 41 42 40 36 33 32 31 41 40 46 37 33 42 37 38

GFSSGP_500_spd_069.txt.gz
Wind_Speed
29 29 27 30 30 27 24 26 25 25 22 22 24 24 22 22 24 23 24 22 23 30 27 34 42 39 40 35 33 27 26 36 33 30 22 30 23 24 22 22 17 14 11 10 8 8 9 11 12
27 27 28 31 26 24 25 25 24 21 20 22 22 23 22 22 24 25 27 26 22 25 28 28 37 46 36 27 32 28 27 34 32 32 30 28 28 26 21 20 16 13 11 10 9 10 11 15 15
25 25 29 29 25 21 26 25 21 19 18 20 20 20 19 19 20 24 27 25 27 22 25 26 31 34 42 38 31 26 30 37 33 37 36 36 32 25 24 20 16 13 11 12 11 12 16 18 17
21 24 27 25 24 24 26 23 22 18 18 18 21 22 19 20 21 21 20 20 22 20 23 19 29 28 11 20 23 22 20 23 27 29 38 39 37 27 26 20 20 18 17 14 15 17 14 15 17
20 23 23 23 23 26 25 20 18 18 19 20 24 21 18 16 19 21 17 17 21 21 21 26 20 25 19 15 20 21 16 18 18 29 41 42 33 31 25 24 22 19 14 17 18 16 12 13 15
21 21 21 23 21 26 25 17 15 16 19 21 19 18 16 18 15 16 12 12 18 21 21 24 21 23 27 23 23 22 20 20 23 20 36 35 35 31 30 25 23 17 15 18 18 17 14 17 18
21 21 20 23 23 26 23 15 13 14 18 21 22 20 17 14 12 15 14 16 16 20 24 24 26 27 29 27 27 23 24 18 26 24 34 35 34 32 28 26 22 19 17 15 17 18 17 20 20
21 19 18 21 24 24 22 14 15 15 17 20 23 21 13 12 14 18 20 19 19 24 28 27 27 30 28 24 28 28 28 28 24 26 28 32 35 34 31 26 23 20 17 19 17 18 19 20 19
21 17 17 20 23 22 21 17 14 13 15 21 21 21 13 12 13 18 20 16 11 13 17 18 26 30 39 24 29 35 29 34 36 21 20 36 41 32 32 27 25 23 21 20 21 19 16 18 19
21 16 16 19 23 22 21 19 14 10 15 20 21 18 16 12 14 14 17 12 9 11 14 19 20 16 21 36 34 39 40 40 39 24 27 25 30 42 34 30 27 24 24 23 23 19 16 17 20
20 14 16 20 22 23 21 20 13 11 14 17 15 12 11 12 14 15 13 12 8 10 12 15 9 4 13 22 33 35 35 33 23 24 29 31 31 39 32 33 25 25 26 20 20 20 18 20 20
19 15 19 20 21 24 21 21 15 12 13 17 14 11 12 16 14 10 12 11 10 8 7 11 7 4 13 13 30 16 19 23 23 25 27 33 37 44 41 34 30 30 26 23 24 24 24 23 21
23 17 20 22 21 20 21 20 16 16 15 18 15 16 14 13 9 8 10 10 10 11 12 8 10 11 12 12 17 17 13 15 24 20 17 25 31 41 33 29 35 34 29 24 21 23 19 21 19
26 19 21 23 20 20 20 17 12 17 16 18 14 12 13 8 6 5 5 7 12 13 12 11 11 13 14 12 12 15 16 15 20 21 17 19 31 29 28 31 32 32 31 27 22 22 23 20 19
28 22 21 24 18 19 19 15 10 15 17 19 17 13 11 7 6 4 4 4 7 8 9 11 9 12 16 19 13 12 17 16 25 23 23 23 25 24 24 27 30 30 28 29 28 22 22 21 22
27 24 22 26 17 17 16 18 13 10 15 18 18 14 12 9 6 4 3 6 9 12 11 12 12 11 16 12 19 16 17 22 18 16 22 27 28 28 21 24 24 23 23 26 24 19 22 22 22
24 22 23 27 17 15 16 15 17 14 14 15 16 18 15 13 9 8 5 4 7 11 13 11 11 12 14 18 20 20 22 22 19 26 21 26 25 21 21 23 24 24 25 27 27 24 24 23 22
20 27 27 25 24 19 17 19 19 13 11 14 15 19 17 16 13 12 10 9 10 10 14 14 13 7 24 20 23 24 19 22 16 20 18 26 28 21 21 26 24 26 29 31 30 25 27 25 25
26 29 27 24 30 24 20 18 20 15 13 13 17 20 20 15 14 14 14 11 11 11 13 14 13 9 15 28 31 28 28 32 25 23 22 17 23 25 26 24 27 30 33 32 31 27 28 27 27
28 29 25 24 28 30 23 19 21 20 17 14 20 21 23 19 15 15 15 14 10 11 11 11 11 9 7 11 22 23 27 30 28 28 26 23 24 26 25 27 30 34 32 32 30 31 29 30 28
29 30 27 27 30 31 27 19 19 15 12 18 19 21 21 21 17 15 15 15 11 9 11 9 9 6 3 2 4 19 30 35 35 29 26 31 30 26 27 32 35 31 32 34 32 26 23 29 23
34 29 31 30 32 32 30 16 8 16 15 17 18 20 18 20 17 17 16 15 12 9 9 9 6 6 5 2 2 2 5 20 26 31 30 27 28 30 30 32 30 29 34 29 22 25 30 28 24
29 33 35 35 36 34 28 24 11 12 11 16 19 21 20 21 19 18 15 14 10 7 8 7 6 6 6 5 3 1 3 3 8 12 29 32 32 29 31 32 32 27 29 25 27 26 30 26 24
34 34 37 38 38 37 23 33 12 11 11 15 17 15 19 19 17 16 13 13 11 9 6 5 6 5 7 8 5 3 2 1 4 7 11 13 15 16 18 21 21 25 23 24 26 28 27 29 28
39 37 38 39 41 34 28 37 16 13 16 15 15 17 17 19 18 17 13 14 10 9 9 10 8 7 6 7 7 7 7 7 7 9 9 10 13 14 14 15 20 22 24 25 28 31 31 33 32
36 36 39 42 40 35 35 39 18 16 16 17 15 16 17 18 15 15 17 15 12 7 9 13 13 10 10 9 8 8 9 8 10 10 10 12 12 12 14 16 21 25 27 29 30 30 30 30 28
41 44 37 41 43 43 42 36 27 18 16 21 19 17 19 21 19 15 17 19 16 13 13 14 13 11 12 14 13 11 10 9 9 9 10 13 14 16 18 19 21 23 24 26 28 26 27 29 30
40 40 42 47 48 46 45 39 33 23 17 20 20 17 18 21 21 18 19 21 19 19 19 16 14 15 14 14 16 17 16 14 12 12 12 13 15 18 19 21 24 26 27 28 29 29 30 31 32
37 40 40 43 45 45 45 43 30 26 21 18 21 21 19 20 25 21 22 25 25 23 23 20 20 17 18 19 21 23 23 22 20 19 19 22 27 25 27 25 28 30 30 28 30 29 33 33 33
38 40 41 43 43 44 45 45 34 26 23 16 20 23 26 26 26 27 26 26 27 26 24 22 22 20 23 25 23 25 25 26 26 24 25 28 24 26 29 38 39 35 35 38 38 35 35 40 40

GFSSGP_500_spd_072.txt.gz
Wind_Speed
31 30 28 26 26 25 25 24 26 25 23 20 20 20 18 17 21 23 26 28 27 27 24 22 25 34 43 44 41 41 30 30 33 37 30 25 27 31 32 31 27 21 17 13 11 7 6 6 9
30 28 27 26 24 23 24 24 27 25 23 20 20 19 18 19 23 25 27 28 29 27 25 22 24 28 33 43 39 43 28 24 22 29 29 30 23 31 28 27 23 22 20 20 15 12 10 10 11
29 27 27 25 23 19 23 24 27 24 21 19 20 19 19 22 24 26 26 26 25 27 26 26 30 29 38 35 40 35 23 20 25 22 32 25 31 32 30 31 26 25 20 17 15 12 11 10 13
27 26 27 26 23 17 22 24 26 23 19 19 19 21 21 25 23 21 21 23 22 21 26 30 27 33 28 27 34 33 26 23 23 26 28 29 30 34 32 31 27 25 22 18 15 13 12 13 13
27 26 25 24 21 20 21 23 24 21 20 20 18 21 23 23 20 22 20 19 19 19 24 25 14 16 14 10 19 21 24 24 19 24 29 29 35 38 37 36 30 28 23 20 16 13 16 16 15
27 25 23 22 21 21 20 24 22 21 21 22 19 21 25 24 22 21 19 18 18 19 20 22 18 16 12 18 13 20 23 20 20 27 28 32 48 43 42 36 26 27 23 21 16 15 17 18 15
26 24 21 20 18 21 20 23 22 23 21 21 21 20 25 27 22 21 21 20 21 20 22 24 22 21 19 17 27 22 24 23 23 23 17 30 44 45 41 29 30 26 25 20 17 15 16 18 16
26 22 20 19 19 21 19 24 24 23 19 19 20 22 26 27 23 22 22 22 22 21 25 28 22 22 24 25 25 28 27 25 22 16 14 22 43 42 35 32 25 29 23 21 20 14 16 16 15
26 22 19 18 20 20 19 21 23 21 17 17 17 22 25 22 21 24 24 22 20 19 15 16 20 26 26 28 30 31 30 27 24 23 20 25 34 41 36 32 31 31 27 23 20 17 18 16 19
24 21 20 18 20 21 20 18 21 18 17 17 15 20 20 20 23 22 22 22 17 16 16 18 13 18 26 37 38 29 25 26 28 25 32 34 36 37 37 37 34 32 28 25 18 20 19 20 16
23 19 21 19 22 22 19 17 19 17 19 18 13 19 18 17 20 23 20 19 16 16 14 15 13 18 12 24 40 40 41 41 39 34 28 34 43 34 41 38 34 32 28 23 21 24 23 23 19
23 21 21 23 23 22 19 16 17 16 19 19 15 17 18 22 25 24 18 17 14 12 13 15 15 11 5 12 19 37 44 42 30 36 36 31 34 38 41 42 38 34 30 25 25 26 25 22 21
21 22 20 26 25 23 18 20 15 17 16 18 16 16 19 20 22 18 13 13 14 11 14 16 19 15 4 2 12 30 23 29 38 34 37 31 32 35 32 48 42 36 30 28 27 29 26 23 20
23 25 20 25 27 24 21 20 18 20 16 17 16 15 16 18 16 13 12 8 11 9 9 10 14 9 11 6 7 18 19 27 30 29 25 24 30 34 32 50 38 36 33 32 30 30 26 21 24
25 23 22 24 28 23 22 21 17 15 16 18 16 16 16 16 15 11 12 4 3 8 9 8 5 10 10 8 7 10 15 19 17 27 26 24 28 32 44 47 42 35 32 36 35 32 27 24 24
26 24 19 24 29 23 20 19 19 14 17 20 18 17 17 16 16 13 11 9 4 6 10 12 10 8 13 14 16 15 16 17 17 30 29 23 20 28 37 42 35 32 32 33 33 33 32 27 25
27 21 19 25 29 23 20 14 21 19 17 18 19 16 19 18 18 15 13 12 10 8 8 11 13 10 12 17 18 20 19 16 19 18 23 24 21 22 23 28 28 29 30 30 32 33 28 25 26
25 25 25 24 30 24 20 17 16 16 15 16 19 17 17 19 19 16 15 13 11 11 10 9 11 14 9 16 20 24 20 15 21 21 17 23 25 27 22 23 22 23 26 27 27 27 31 31 29
27 28 26 27 29 26 25 23 19 15 14 19 18 20 16 20 21 17 16 16 12 11 10 10 11 12 8 18 23 24 17 18 18 16 20 15 22 24 21 19 19 22 24 25 27 31 34 33 32
27 27 27 29 29 29 26 24 20 17 15 17 16 19 18 17 23 22 20 18 15 11 9 8 10 10 6 15 20 23 25 23 23 23 24 22 21 19 26 27 24 23 27 25 31 33 34 33 29
27 28 28 30 34 30 27 24 23 16 12 14 17 15 20 18 21 23 22 16 13 10 8 7 9 9 6 0 11 21 28 25 25 30 28 25 26 27 23 27 28 29 31 32 34 35 34 33 29
33 27 34 34 37 30 31 25 19 10 15 17 20 16 19 21 20 22 20 16 16 13 9 7 7 7 7 4 2 4 6 23 31 32 33 31 30 28 27 34 31 27 32 36 33 36 35 29 25
33 36 36 38 38 37 31 29 20 11 14 17 20 17 19 22 20 19 21 16 14 15 12 8 8 8 8 8 7 4 4 4 15 32 33 35 37 31 29 32 30 31 32 31 31 33 30 26 24
38 38 39 39 37 41 30 31 24 15 16 16 18 16 17 19 19 17 17 15 15 13 13 9 7 8 9 9 8 6 6 4 4 5 17 38 41 37 32 33 33 34 33 32 26 24 24 25 25
42 38 39 37 39 41 31 36 23 18 18 18 19 16 15 17 17 15 16 15 13 13 10 10 10 9 8 7 6 8 9 7 8 8 7 6 12 21 19 27 30 31 29 25 25 24 26 28 27
39 35 36 40 42 40 36 39 28 20 18 21 16 18 15 14 16 17 16 17 15 13 12 12 11 10 11 12 10 9 8 8 10 9 8 8 8 11 11 13 16 20 23 24 24 24 29 26 27
41 44 40 42 45 45 42 42 33 25 21 20 20 17 17 16 16 18 13 14 18 14 16 16 12 11 13 13 14 14 12 10 9 9 10 10 11 11 10 12 15 17 18 21 24 25 27 29 31
45 43 42 44 45 45 44 43 38 29 22 22 19 16 18 18 20 22 23 17 23 21 19 20 17 15 14 16 16 16 16 15 13 11 10 10 11 11 13 18 18 21 25 26 26 25 28 30 30
38 36 38 44 45 43 43 34 43 26 27 27 22 22 21 20 23 25 24 20 22 26 24 24 22 20 18 18 18 19 20 20 19 17 17 16 17 18 19 17 22 24 24 28 32 30 32 34 34
38 37 36 41 41 43 43 40 43 32 25 27 27 23 24 26 26 26 26 24 23 26 28 26 25 24 22 21 19 19 24 24 21 23 24 25 23 24 23 21 21 23 27 34 34 33 35 36 35

GFSSGP_500_spd_075.txt.gz
Wind_Speed
31 30 31 27 27 26 17 21 18 27 26 28 27 24 22 21 22 23 21 25 27 29 29 28 26 25 27 34 42 45 43 39 41 39 39 37 31 26 31 30 31 30 22 20 18 16 13 11 10
30 30 29 27 23 15 13 32 29 28 29 27 26 23 24 23 23 25 24 26 30 30 31 30 27 26 26 29 34 42 44 36 29 33 39 42 41 30 31 31 28 29 29 23 17 15 13 11 10
29 29 27 26 26 17 15 32 27 29 29 27 24 26 25 23 23 25 26 28 29 30 30 27 28 32 29 32 40 34 35 42 40 26 34 37 36 33 29 33 27 28 26 23 21 20 16 15 12
28 27 25 23 23 19 20 25 29 27 33 26 25 22 27 24 24 22 26 26 30 30 29 27 25 26 33 41 23 25 32 37 21 29 25 27 37 35 26 33 29 26 24 25 23 20 18 15 13
27 26 23 27 24 25 22 21 24 28 28 27 24 20 28 23 24 23 25 28 28 27 29 25 22 21 17 27 44 36 31 37 21 20 17 23 29 28 32 33 33 29 34 25 24 22 18 16 15
26 23 21 17 16 26 22 20 24 26 28 25 23 24 27 26 23 22 26 27 28 27 30 27 20 21 18 11 16 28 24 26 22 21 23 21 26 24 31 34 35 31 34 28 24 21 19 17 18
25 24 18 18 20 26 27 22 25 25 26 22 24 23 25 19 20 23 24 27 30 29 28 27 19 20 19 12 12 23 28 30 24 24 22 25 23 27 30 37 36 40 38 30 26 22 21 19 18
24 24 20 17 20 25 28 21 24 25 24 22 24 22 20 18 19 19 21 26 28 29 26 20 20 20 21 19 19 24 31 29 26 22 22 25 22 34 43 43 44 42 35 27 25 23 23 19 17
25 22 19 15 20 21 28 24 27 24 23 21 23 21 19 18 20 21 26 25 28 28 23 18 18 12 20 23 23 18 26 25 27 24 24 22 21 27 37 53 47 36 31 29 26 24 23 20 18
25 22 18 18 24 23 25 28 23 24 25 20 22 21 20 17 18 20 22 27 29 25 22 17 14 12 12 16 26 24 31 32 30 33 27 25 24 24 46 47 41 34 30 31 29 25 23 22 19
24 22 22 22 23 24 28 28 24 23 23 24 19 21 18 18 18 22 27 27 26 24 20 16 13 14 14 21 22 30 36 32 35 36 32 29 23 24 34 42 40 32 32 31 29 25 25 24 22
28 25 24 22 23 23 29 28 25 23 24 25 18 18 19 18 18 20 23 24 23 21 18 19 16 12 6 10 22 38 40 41 35 30 29 27 25 32 31 43 38 35 34 32 30 28 26 25 22
28 27 27 24 23 24 27 26 26 23 23 23 18 18 17 16 17 17 19 21 22 16 17 15 15 14 9 8 9 18 42 48 40 41 44 39 37 36 36 42 36 39 36 35 32 28 27 25 22
30 30 29 26 23 25 25 24 27 23 21 19 17 18 16 16 16 15 17 17 21 15 15 14 14 15 7 8 5 10 20 39 43 36 38 45 41 39 38 42 41 44 40 37 34 32 27 25 26
32 31 30 27 23 24 24 22 25 23 20 18 17 17 18 17 17 15 15 15 16 17 10 12 13 14 12 11 5 7 19 24 28 39 39 43 40 35 36 39 41 42 44 43 34 32 30 28 29
31 32 29 26 24 25 25 20 24 21 22 19 18 18 18 18 17 15 16 14 14 16 14 11 13 12 13 10 8 6 11 14 22 25 35 31 28 32 31 35 39 42 48 45 36 34 34 32 30
30 29 27 27 27 28 24 17 19 22 23 21 19 19 17 17 16 16 15 14 14 16 16 14 13 13 13 12 14 16 12 14 12 20 29 35 31 32 36 38 41 42 53 37 31 30 33 30 29
24 31 28 26 21 30 26 18 20 24 22 22 22 21 19 17 16 15 13 14 13 14 15 15 14 12 13 12 16 18 18 15 14 16 24 30 30 30 30 33 41 39 47 33 29 32 33 31 35
32 34 28 22 24 33 25 23 21 20 22 22 23 24 21 18 18 16 14 16 14 14 15 14 15 13 11 10 12 14 20 21 14 10 19 22 20 21 20 16 18 30 32 29 30 30 29 29 31
37 33 28 28 32 33 29 24 23 21 19 20 25 24 21 20 16 16 16 17 16 16 13 14 14 13 10 10 15 18 20 16 18 14 17 12 15 17 18 16 18 21 22 24 26 25 26 29 31
39 33 28 30 27 36 31 25 22 22 20 22 21 22 23 21 17 15 16 15 16 13 12 13 14 11 8 9 8 20 18 25 25 21 23 21 18 17 18 16 17 24 27 23 24 27 26 28 31
42 31 32 35 36 34 30 27 22 21 15 22 22 26 19 20 19 13 16 15 15 14 13 12 13 13 8 6 6 7 10 19 28 29 28 29 27 24 22 24 23 23 27 25 26 28 31 29 27
40 38 37 39 41 34 33 33 23 22 21 20 22 24 20 17 16 12 13 13 17 16 13 11 11 11 10 9 9 10 11 10 11 18 27 28 28 28 28 27 26 24 29 28 28 28 31 30 28
43 41 38 42 41 38 31 33 28 22 20 21 23 23 20 16 15 12 10 13 14 14 9 10 11 10 10 11 10 11 11 11 9 8 9 25 36 34 35 31 30 26 25 29 32 30 28 28 22
48 45 43 42 43 40 31 34 33 28 25 21 23 22 22 19 14 13 11 13 13 13 9 7 9 8 8 8 7 8 10 11 10 11 10 9 9 20 33 37 33 29 31 30 34 30 31 29 23
48 45 43 39 29 27 28 38 34 29 23 26 24 24 24 21 14 13 15 16 15 14 12 8 8 8 8 8 10 9 9 9 9 12 11 12 7 5 7 7 18 23 29 26 22 24 21 21 24
50 49 43 34 26 29 26 28 26 26 22 25 21 22 21 23 18 15 17 17 18 17 16 14 10 9 9 11 10 11 12 10 11 11 11 12 11 10 8 10 11 13 15 15 18 17 20 24 24
51 44 39 43 41 38 37 24 20 20 23 24 22 22 21 24 26 19 19 19 18 20 20 19 17 14 11 11 13 14 12 11 12 14 14 12 11 12 11 12 12 15 16 19 20 19 21 24 26
49 48 47 42 44 35 31 23 24 20 27 25 25 26 26 27 24 24 23 22 25 24 24 24 23 20 17 17 17 16 14 13 13 13 15 18 16 16 16 18 16 16 19 23 23 24 27 29 30
36 43 44 44 32 36 36 28 28 28 26 22 27 25 32 28 25 26 27 26 25 25 24 24 26 25 24 22 22 20 21 20 17 17 18 18 19 22 23 23 23 20 20 21 26 29 32 35 37

GFSSGP_500_spd_078.txt.gz
Wind_Speed
26 26 25 26 24 21 18 13 30 31 39 34 29 29 29 29 31 33 30 29 28 26 23 26 27 28 30 32 33 36 39 41 41 41 40 43 37 29 31 30 29 23 23 24 24 17 21 18 18
26 25 25 26 20 14 13 19 33 41 37 35 32 32 29 29 31 27 26 25 27 29 25 26 28 31 30 31 32 36 41 43 41 40 40 36 34 33 37 34 30 27 26 23 21 21 23 21 18
27 26 25 23 19 15 5 24 37 40 38 33 30 30 29 25 24 25 27 24 26 26 25 28 29 28 30 30 30 32 37 42 42 37 36 40 39 37 36 34 36 32 30 30 25 24 23 19 17
26 25 23 23 18 9 15 29 35 32 31 34 30 21 29 25 22 22 25 25 25 25 26 28 28 27 28 28 32 35 38 32 27 37 37 32 35 42 43 32 35 33 29 29 29 28 24 22 19
25 26 23 22 16 19 21 33 24 28 29 29 32 24 26 27 26 26 28 24 23 24 25 29 29 29 28 28 32 44 52 40 34 39 36 29 32 27 39 42 33 31 31 30 31 26 22 23 19
24 26 23 19 7 11 27 41 26 28 28 28 32 23 24 23 26 23 20 20 21 23 26 28 28 30 25 24 28 24 41 30 36 29 31 34 32 38 34 32 27 34 33 33 32 25 25 24 21
25 26 23 19 16 17 20 40 24 27 27 28 29 24 25 22 23 21 15 16 20 24 25 26 28 24 22 22 26 19 18 42 37 31 21 20 18 26 23 25 27 32 35 33 36 28 27 24 22
26 26 22 18 16 15 20 35 26 28 28 28 27 21 22 23 21 16 14 19 21 23 25 26 21 22 25 23 23 18 29 43 43 35 29 24 24 18 21 25 26 32 37 36 32 30 27 25 22
27 27 19 18 15 13 27 31 29 27 25 28 30 25 18 21 24 22 16 18 22 25 25 24 19 19 16 21 22 20 22 19 41 34 28 24 23 22 28 29 29 36 42 41 38 30 29 25 22
30 27 18 17 16 27 31 26 32 26 30 31 31 29 16 19 22 23 18 20 23 22 22 22 18 16 13 14 19 19 19 21 28 34 29 23 23 24 26 27 39 43 44 45 33 33 27 25 22
29 25 22 22 24 30 26 27 32 29 27 29 30 27 23 15 20 23 20 20 22 20 20 19 18 16 17 19 22 20 23 28 20 27 31 20 25 23 26 27 31 40 46 40 34 32 28 26 23
35 25 26 25 27 29 25 27 27 28 28 28 28 26 21 19 18 19 18 16 21 20 19 19 19 15 16 15 14 19 24 34 32 26 26 26 34 23 25 29 25 38 41 40 36 31 29 26 25
38 27 29 28 28 28 29 27 22 21 26 26 26 24 19 18 17 15 14 14 19 21 16 17 15 13 17 12 15 15 22 31 37 34 33 34 38 25 25 25 22 32 40 36 31 30 30 27 27
36 35 33 32 27 29 29 28 23 17 22 24 24 23 22 18 17 14 14 14 17 19 19 16 15 15 13 14 15 12 16 25 39 29 29 32 25 28 28 29 31 35 40 34 32 32 30 29 29
41 37 34 31 27 29 29 30 21 21 23 22 23 24 24 18 18 19 15 15 15 17 19 17 13 14 14 13 18 11 14 16 33 41 38 37 30 36 35 33 34 39 42 35 36 34 33 31 31
43 40 37 26 31 26 31 29 22 25 21 18 20 25 21 19 19 16 17 17 13 15 18 18 15 14 15 16 14 10 11 10 17 29 38 42 36 40 32 28 35 33 42 37 38 39 37 34 32
47 39 30 28 29 25 32 29 22 23 18 17 22 23 21 19 20 16 16 15 13 14 15 17 18 16 17 17 13 15 13 7 12 22 31 34 31 35 34 32 36 29 40 39 42 43 42 36 34
43 37 33 32 22 22 32 32 25 23 23 19 17 27 23 19 20 17 15 15 13 11 14 16 17 19 17 18 14 10 13 13 13 13 19 23 26 24 29 31 41 35 34 40 37 35 47 41 29
41 42 39 22 20 23 30 32 27 21 24 23 22 22 26 21 19 19 15 16 14 13 14 16 15 19 20 16 12 11 13 15 9 11 13 15 19 27 29 30 36 39 41 36 39 37 46 32 25
46 45 42 29 24 26 35 39 28 26 25 19 22 26 24 25 17 19 15 16 13 12 11 12 12 14 17 17 13 9 9 14 12 16 7 8 17 18 21 24 26 29 37 36 31 29 32 22 21
53 50 46 34 30 32 30 37 30 25 23 20 18 22 22 27 21 16 16 14 11 8 9 11 11 12 14 15 12 7 11 13 14 16 13 13 17 15 16 17 13 11 12 12 13 16 22 21 24
59 49 45 35 37 37 27 32 29 28 24 20 15 18 21 19 25 16 14 13 10 7 8 9 9 11 12 12 10 6 4 6 11 17 27 25 23 22 17 16 15 14 10 12 20 21 21 22 27
60 48 36 41 40 41 38 37 27 26 21 17 22 22 20 17 20 17 15 12 11 8 8 8 6 8 11 11 10 9 8 6 7 10 13 19 24 25 24 19 19 17 18 15 20 24 23 22 25
58 39 38 42 40 46 40 38 32 28 20 17 21 25 20 21 16 16 15 15 11 7 6 7 4 5 7 9 9 10 10 11 10 9 8 6 17 23 21 21 22 24 20 19 21 22 30 27 26
56 46 44 43 46 51 38 35 31 26 19 16 24 19 22 22 20 14 13 16 12 9 7 7 4 5 4 7 7 6 8 8 9 9 7 4 5 6 17 30 31 30 28 27 24 26 26 29 29
49 51 47 47 42 39 30 35 32 31 29 31 30 23 22 28 22 17 15 17 15 13 12 10 6 4 4 5 6 7 7 9 9 9 7 6 6 5 4 4 12 28 35 33 30 29 29 29 27
47 52 36 39 30 28 32 29 28 28 21 21 28 25 21 26 22 20 18 16 19 15 15 16 12 7 7 6 7 7 8 9 10 11 11 9 8 7 6 6 5 5 6 15 24 24 21 23 22
41 41 39 36 34 27 30 27 26 23 11 20 22 24 22 22 21 28 18 18 21 21 19 18 17 15 11 10 10 9 9 8 9 10 13 14 13 11 10 10 9 9 9 12 16 17 20 22 20
39 38 46 46 39 22 28 25 26 21 22 23 28 27 23 27 29 26 22 23 23 23 23 21 20 20 17 15 15 15 14 12 12 12 12 14 15 15 15 14 14 14 15 16 17 18 21 21 22
27 35 37 44 45 33 35 34 23 25 23 27 26 25 27 29 30 32 28 27 26 27 26 25 26 22 23 22 19 19 19 17 16 16 17 17 16 17 18 21 22 23 24 22 19 19 21 24 28

GFSSGP_500_spd_081.txt.gz
Wind_Speed
24 25 25 23 21 15 15 21 13 22 29 32 31 36 34 35 34 30 26 25 31 28 25 27 25 22 23 25 27 29 31 32 34 40 38 42 38 34 30 27 27 28 29 25 26 25 24 23 21
26 25 24 23 19 16 17 15 14 26 33 35 38 37 34 37 31 26 23 24 28 26 26 27 24 23 24 24 26 30 30 30 34 40 44 42 38 33 34 25 28 33 29 26 25 24 24 20 22
27 26 25 22 20 13 19 17 21 30 32 34 38 33 34 33 25 24 27 22 23 26 25 23 24 23 23 24 27 29 26 36 36 42 44 41 36 38 38 32 32 31 31 27 27 25 24 19 24
28 26 26 22 16 13 7 14 22 28 32 33 34 25 31 28 23 21 22 23 26 26 26 23 23 23 24 24 28 28 29 31 37 29 43 43 39 33 33 36 34 34 31 29 26 24 23 22 25
28 28 25 22 14 17 13 19 27 32 33 36 35 30 31 27 24 23 22 24 25 19 20 21 22 23 23 24 28 29 33 39 45 35 33 31 36 41 39 38 35 38 35 33 31 29 29 27 27
29 31 26 21 16 23 17 17 28 36 32 29 29 29 31 26 19 20 22 21 20 14 16 18 22 23 24 23 25 28 32 35 35 34 32 30 36 31 33 39 40 34 32 35 33 31 27 32 27
30 33 27 23 19 17 13 21 31 32 25 25 27 27 30 28 22 17 20 22 18 20 18 16 22 22 22 21 23 25 28 25 29 43 40 31 30 27 30 37 42 39 37 30 31 30 31 27 27
30 37 29 21 19 10 16 24 30 37 26 23 25 25 27 29 21 18 19 21 16 19 23 19 18 21 20 21 24 25 29 27 33 43 43 34 31 31 37 30 43 34 32 33 32 34 34 30 26
33 37 28 20 18 21 12 23 32 33 23 23 26 27 23 18 23 20 17 21 20 20 18 17 17 18 16 21 17 23 21 25 30 34 46 36 32 33 26 32 36 22 23 29 34 36 39 34 26
34 37 24 24 22 28 21 23 39 34 26 26 26 26 25 23 24 23 17 18 19 18 17 16 16 15 16 17 19 16 19 18 25 43 50 32 29 31 26 23 25 21 28 31 35 41 40 35 28
33 36 26 25 27 33 30 27 35 38 27 27 27 27 27 28 22 24 19 15 16 15 16 15 15 14 15 16 19 19 18 19 27 36 41 28 27 29 28 29 27 25 28 31 37 43 39 35 30
38 35 30 28 30 34 33 27 23 31 23 27 25 28 27 27 22 23 20 13 16 15 15 14 14 14 15 12 15 13 11 17 17 38 36 31 26 23 23 18 22 23 28 37 41 41 40 33 31
39 34 34 35 34 33 32 29 27 23 22 26 23 24 24 27 25 23 18 12 16 15 14 13 14 14 15 11 11 12 17 18 23 25 33 33 26 26 21 16 20 22 25 33 39 38 41 33 32
37 39 38 39 38 33 35 32 32 18 22 24 22 21 23 23 24 22 19 14 17 17 13 12 12 13 14 15 12 17 14 13 25 32 34 33 34 27 30 22 22 17 19 21 34 35 38 36 36
39 41 42 42 33 33 34 37 27 19 26 24 22 22 23 21 20 22 18 19 19 19 16 13 12 12 14 17 16 11 7 12 16 30 38 36 30 27 31 31 26 21 24 20 29 33 35 38 36
39 41 43 31 30 33 31 40 25 27 28 24 25 21 22 18 20 20 19 17 17 20 16 14 13 13 14 16 20 17 11 9 13 20 30 29 34 30 25 23 25 25 25 21 27 38 35 35 35
43 44 39 30 32 33 34 39 26 31 28 25 25 22 18 17 19 17 19 15 17 18 14 14 15 14 13 16 15 15 10 7 7 8 31 33 27 26 28 26 31 31 25 24 22 41 39 34 34
44 42 40 37 28 30 34 38 31 27 30 27 24 21 20 16 17 16 17 14 16 20 15 12 16 16 13 14 14 13 6 7 3 3 12 22 25 26 31 31 32 36 31 25 23 34 39 40 37
45 47 46 42 37 35 36 30 31 32 31 30 25 25 20 19 14 15 15 13 15 19 19 15 13 14 12 13 12 11 6 6 2 1 2 5 15 20 27 27 27 27 24 25 27 30 36 40 36
50 48 46 47 37 36 37 30 34 31 29 26 26 26 23 23 14 9 14 11 13 17 18 14 9 11 12 11 11 8 3 6 7 5 4 2 5 8 9 15 20 22 24 28 33 33 36 33 38
51 52 47 54 43 41 38 36 39 35 27 24 24 23 23 21 19 6 13 12 12 15 15 11 9 8 8 11 10 8 2 5 6 7 8 11 10 7 8 10 15 19 19 22 35 38 36 27 25
47 51 58 54 55 48 44 44 39 34 32 28 26 25 21 19 22 10 9 13 12 15 14 11 8 7 6 7 9 7 3 2 1 5 12 16 16 13 14 14 15 15 14 9 9 11 12 14 17
47 50 53 49 56 54 42 44 44 36 34 32 27 25 20 18 19 12 9 14 13 14 15 13 7 7 7 6 6 6 5 2 2 3 6 9 17 23 19 19 16 16 16 15 14 14 16 18 19
48 48 49 45 51 53 48 49 43 32 27 23 20 24 25 17 19 13 9 14 14 13 14 12 7 5 6 5 5 4 5 4 4 4 6 7 8 14 17 20 22 22 22 17 17 16 17 19 20
36 38 37 42 48 48 47 50 52 30 26 22 26 23 22 17 20 15 8 12 14 13 15 14 10 7 7 4 2 3 4 5 5 4 5 5 2 3 8 19 26 26 23 23 22 22 21 22 23
30 35 36 46 48 51 42 51 44 23 25 26 22 23 18 20 21 17 13 13 17 14 16 15 13 10 8 6 4 3 4 5 5 5 5 3 4 5 6 6 8 16 24 29 26 30 26 26 26
30 41 36 45 50 47 44 46 27 26 23 25 27 26 25 26 22 23 16 15 18 16 18 18 15 12 10 10 7 5 5 5 5 7 7 6 5 4 5 7 7 6 7 8 19 32 30 31 27
32 29 41 39 35 28 34 36 31 26 21 30 27 24 28 30 29 26 18 15 20 18 19 18 18 18 16 12 12 10 8 7 8 7 7 8 9 8 7 7 8 9 9 10 7 9 15 19 21
18 34 35 32 35 36 29 29 35 35 28 33 35 33 31 34 31 30 23 18 22 22 20 21 19 20 20 19 17 15 14 12 11 12 11 11 10 12 12 12 11 11 13 13 12 14 17 18 21
7 23 33 32 33 37 30 40 42 43 40 37 34 34 33 34 31 28 24 25 22 23 24 26 25 23 23 23 24 22 20 17 16 16 16 15 14 13 14 15 16 19 20 20 20 22 20 18 17

GFSSGP_500_spd_084.txt.gz
Wind_Speed
25 25 24 19 18 17 24 25 24 27 28 22 20 25 30 35 33 31 30 29 28 31 29 27 25 25 24 24 24 26 27 28 30 32 34 36 40 41 40 36 32 27 25 25 27 26 24 23 23
27 25 25 20 18 18 23 25 26 25 29 23 21 26 31 30 28 31 25 25 27 27 27 27 27 26 24 24 25 23 25 28 31 33 35 37 37 38 41 35 31 28 25 27 30 28 26 24 24
29 26 27 22 16 19 22 27 26 23 27 23 23 26 28 28 26 26 24 25 21 23 24 27 27 26 25 25 26 24 25 25 28 33 41 37 39 31 37 36 32 26 26 29 34 30 27 24 22
28 27 29 21 18 21 22 29 29 21 28 21 24 28 29 25 25 24 24 21 25 23 24 24 25 24 25 27 25 25 26 27 28 29 46 38 41 52 42 33 35 28 29 33 34 29 29 26 23
30 28 29 22 19 26 27 31 33 25 24 22 26 31 27 23 22 26 23 23 21 21 21 21 22 23 25 25 24 24 24 27 29 35 45 36 30 36 36 34 36 32 31 34 34 31 29 28 20
30 33 30 25 22 28 27 32 33 30 21 27 28 31 27 26 24 25 23 24 21 19 18 21 22 19 20 20 24 24 26 27 28 35 41 34 42 36 37 35 40 37 34 36 35 32 29 26 24
29 35 33 27 22 25 26 37 34 21 21 30 28 28 26 24 26 26 20 25 23 17 17 19 22 20 18 19 23 24 28 28 35 34 34 43 34 38 35 37 37 36 39 36 40 36 33 32 27
30 38 33 24 24 20 36 37 32 22 26 25 20 24 24 22 23 29 23 24 27 20 18 22 19 17 17 18 18 24 28 29 29 29 32 31 35 29 34 33 37 38 41 39 37 36 38 33 25
34 39 29 20 24 23 36 39 36 31 27 22 19 22 24 21 22 24 24 23 24 21 18 18 15 14 14 16 16 17 21 25 26 28 33 32 41 40 30 27 34 33 41 40 31 29 28 31 26
38 38 25 25 27 31 38 38 34 40 29 24 22 19 22 20 22 21 23 22 21 19 16 14 13 12 13 16 17 23 18 20 25 26 30 40 49 32 36 24 35 34 36 35 34 32 30 31 30
35 38 27 24 28 34 39 39 35 37 30 26 21 23 19 18 21 22 23 21 22 16 14 12 11 11 12 15 17 20 16 16 19 21 22 28 47 37 34 29 19 24 28 24 28 27 31 31 33
38 38 29 26 29 35 38 37 32 35 27 31 25 24 20 17 20 21 22 22 22 15 14 12 11 13 13 16 13 11 10 11 13 14 35 41 34 39 31 29 25 22 25 26 28 30 33 32 34
40 33 32 31 32 36 37 34 34 30 28 33 27 27 22 17 20 20 19 23 24 17 14 14 12 13 13 15 15 13 14 13 13 9 27 41 38 35 25 26 27 29 26 25 25 31 34 33 32
36 36 35 35 35 35 34 36 38 26 25 31 27 27 23 20 20 19 18 21 24 21 17 15 14 13 13 13 17 16 18 10 9 13 33 38 34 30 24 24 20 28 23 20 24 29 34 36 36
37 36 35 34 32 30 34 36 35 23 27 30 28 27 26 23 22 18 17 20 24 23 21 17 13 14 13 12 14 15 13 5 4 18 22 32 35 24 27 25 17 20 20 17 18 22 27 37 36
33 34 36 29 27 29 33 33 30 25 32 36 30 30 27 21 22 18 15 19 23 22 17 16 13 12 14 13 12 14 10 9 4 15 23 32 36 33 31 27 26 23 24 20 20 17 22 36 35
36 35 32 28 30 31 33 32 30 31 36 39 31 31 28 25 23 17 15 18 24 20 16 16 16 12 14 14 11 11 8 8 6 10 25 34 39 38 39 29 32 24 27 24 18 19 19 28 32
33 34 36 37 28 35 39 38 37 37 39 40 35 31 28 23 21 14 16 16 23 20 18 16 19 17 14 13 10 11 6 6 6 3 11 31 42 40 41 33 27 24 25 26 26 20 20 27 31
36 40 44 42 38 40 46 41 38 40 40 42 40 33 29 24 19 16 16 15 20 21 16 17 18 19 13 12 10 10 6 7 5 1 4 20 35 31 27 27 29 32 27 29 34 27 23 21 41
37 41 45 44 40 43 45 43 42 45 44 43 42 34 28 25 25 16 13 15 17 19 17 17 17 14 13 8 7 8 4 8 7 9 7 9 22 25 24 25 30 31 30 26 27 25 25 23 27
37 41 42 44 45 45 47 43 43 45 46 45 41 34 27 26 24 16 12 15 15 18 17 17 16 11 12 7 5 5 3 6 11 12 12 11 11 11 10 11 16 18 19 22 22 21 24 29 30
38 41 47 50 52 50 51 45 44 44 47 47 40 30 27 25 24 17 13 13 14 16 15 17 17 12 10 9 5 3 1 1 4 7 8 10 11 14 14 15 12 12 15 21 16 15 22 29 28
37 41 45 48 51 52 50 54 39 45 48 42 33 32 29 27 23 16 11 13 13 15 13 16 17 13 11 10 5 3 4 4 3 4 5 8 12 17 20 16 14 13 18 13 9 9 9 11 16
37 43 45 47 51 55 47 49 48 50 49 35 32 34 28 27 18 13 13 15 13 15 12 14 18 15 12 10 6 4 5 5 5 4 5 5 8 12 17 21 19 18 17 13 15 16 18 19 19
33 39 44 48 52 46 47 45 40 46 47 40 30 32 30 27 21 18 13 16 15 15 12 13 18 17 13 11 7 4 3 2 2 3 4 5 5 5 7 14 19 22 22 21 21 19 22 24 25
29 34 35 34 38 40 40 41 39 39 38 32 33 30 26 26 23 21 16 17 18 16 13 16 19 20 15 12 10 8 6 5 3 3 3 2 3 5 6 6 7 14 24 27 28 28 26 28 28
26 25 27 32 32 34 31 32 37 34 45 38 31 31 26 26 21 19 18 20 21 20 15 19 20 21 18 14 13 11 8 7 7 7 6 5 5 4 6 8 9 8 8 13 19 27 35 32 33
19 17 24 28 34 23 29 29 33 33 31 36 34 35 29 28 26 25 23 22 19 23 19 19 21 23 23 18 17 15 13 11 10 9 8 6 7 8 8 9 10 12 12 12 12 11 13 24 32
18 10 22 23 36 32 15 22 37 33 32 37 39 39 35 33 32 31 28 24 20 25 22 21 23 22 26 25 22 19 18 16 15 14 13 11 9 7 9 12 13 14 15 15 16 14 14 15 17
11 15 23 26 22 35 33 20 22 32 41 40 38 38 39 34 32 34 33 24 23 26 25 25 25 26 27 30 28 26 24 21 20 19 19 17 16 14 13 11 13 17 19 20 21 22 22 22 20

GFSSGP_500_spd_087.txt.gz
Wind_Speed
26 25 22 21 20 21 27 30 28 23 24 25 21 17 18 22 27 29 31 33 34 32 32 33 31 29 23 24 27 27 27 27 26 28 30 31 30 31 29 32 30 33 32 30 27 23 23 23 21
27 26 24 22 21 22 30 28 32 25 25 27 22 19 21 20 21 25 25 31 30 30 29 30 28 27 25 26 27 27 26 28 29 29 31 32 33 33 30 33 30 31 32 31 28 26 24 25 23
28 27 27 21 18 23 30 32 33 27 26 30 25 21 22 21 24 21 24 28 27 25 25 28 28 28 27 26 26 26 27 28 29 28 26 29 32 34 35 33 32 34 34 32 29 28 27 25 23
29 28 30 23 17 26 30 34 35 30 25 29 30 22 20 20 22 21 23 29 27 24 25 25 26 27 27 26 28 28 30 30 30 26 25 27 32 32 32 38 33 31 30 32 30 29 29 27 25
30 27 29 22 19 26 28 34 38 33 25 29 36 24 22 22 21 20 23 27 29 26 23 22 20 21 24 27 29 29 28 28 27 24 27 25 25 33 46 33 36 30 31 30 29 29 31 26 25
30 27 28 18 19 28 25 36 37 36 29 30 37 23 23 23 21 21 24 27 28 26 22 22 21 23 25 25 25 27 28 27 27 28 27 32 35 30 36 38 44 32 32 31 30 31 31 29 26
31 32 30 22 16 24 28 38 39 38 33 31 37 23 24 22 19 21 25 27 30 25 22 22 23 22 24 25 24 27 27 28 29 30 30 35 36 38 35 37 39 32 31 31 28 31 33 25 28
34 37 34 21 15 19 33 41 41 41 34 30 37 27 25 22 22 21 22 28 29 24 22 22 22 22 21 22 24 25 24 26 31 31 33 34 33 35 34 34 28 30 32 36 33 36 31 33 29
37 42 35 19 17 19 36 42 40 39 35 29 34 33 25 22 22 21 19 26 27 24 19 20 20 17 17 20 22 22 24 27 28 29 28 29 26 31 32 34 31 30 31 35 36 33 34 36 30
40 40 34 22 26 26 36 39 40 38 38 27 31 29 24 23 21 22 19 23 27 24 19 19 16 17 14 17 18 20 25 29 27 30 29 26 25 26 31 34 31 31 31 36 34 34 28 32 40
38 40 33 27 30 31 36 38 38 34 36 27 31 29 25 23 19 20 19 21 26 24 18 18 16 15 15 16 16 19 22 25 20 28 27 26 27 31 34 36 33 32 26 29 31 33 23 25 29
40 40 38 29 32 35 36 38 39 32 29 28 34 31 26 22 20 19 19 20 25 24 18 19 16 16 17 18 19 18 18 22 20 18 21 23 25 38 40 38 33 34 32 28 28 28 27 29 31
41 39 38 37 38 39 39 37 37 36 21 31 37 35 27 22 21 21 18 19 24 24 20 21 17 18 19 19 19 20 20 24 24 23 18 24 32 41 38 41 41 21 30 29 26 24 25 29 31
39 41 40 42 41 41 39 34 36 32 22 30 36 36 30 24 21 20 20 21 22 26 21 22 20 19 18 17 18 20 21 25 23 11 12 24 37 40 47 38 36 28 23 28 25 28 29 29 31
41 41 41 42 43 37 35 34 32 27 26 31 32 33 34 26 27 17 22 23 23 26 21 19 21 21 18 17 19 19 19 22 16 14 16 25 43 43 37 27 25 28 30 27 24 23 25 29 31
41 40 42 41 38 33 36 36 32 32 32 36 36 40 39 29 26 20 21 26 25 26 22 19 19 18 17 18 19 19 18 17 13 11 13 30 39 37 27 24 27 22 26 24 20 20 14 25 31
42 42 43 40 37 38 40 38 35 36 38 38 39 42 39 32 28 25 22 27 26 25 22 19 18 18 18 18 21 19 17 13 11 10 15 30 37 37 32 31 31 22 25 24 20 19 19 22 22
39 39 40 41 38 40 41 39 34 35 40 42 39 39 39 35 29 27 24 26 26 24 23 19 18 17 19 18 18 19 15 11 10 9 13 18 37 41 36 34 31 25 28 26 26 25 22 22 21
41 42 43 42 43 43 38 34 34 32 40 39 40 41 37 38 30 29 25 25 25 25 22 18 19 15 19 16 14 16 15 10 11 9 13 21 32 43 39 37 37 29 31 25 27 30 30 23 25
42 43 43 42 41 39 38 39 34 35 36 38 40 43 37 38 33 31 26 24 27 23 22 17 20 13 15 15 13 11 13 10 10 10 10 18 28 43 46 41 41 33 31 31 31 31 32 30 28
37 36 36 37 36 36 41 47 42 40 39 40 43 42 38 39 36 32 26 25 28 23 20 18 20 14 12 16 11 11 9 9 10 12 7 7 22 29 35 33 31 28 29 32 34 35 31 32 30
32 33 33 34 35 37 40 52 44 37 39 42 44 43 42 38 39 35 27 26 28 24 19 17 19 15 12 15 12 10 9 4 7 11 9 9 11 22 31 25 26 25 25 30 29 29 26 26 29
28 26 29 33 37 40 44 48 43 35 41 39 45 45 42 39 39 36 25 25 31 25 19 16 17 16 13 14 12 10 10 7 7 8 13 14 13 14 18 19 25 27 28 23 25 30 30 30 29
25 25 28 33 37 44 43 48 44 39 34 40 48 48 42 36 39 32 26 30 31 26 20 15 16 17 14 14 13 9 10 10 8 7 8 8 9 12 17 23 24 22 21 20 19 21 22 20 18
21 23 30 34 37 39 39 47 38 37 37 41 45 48 42 39 38 31 31 29 30 26 21 15 16 19 16 15 13 10 10 10 10 10 10 10 10 11 11 19 25 25 23 22 21 20 21 20 20
19 22 28 33 34 37 38 42 34 38 40 38 47 46 45 42 35 31 28 27 28 24 21 18 17 20 18 17 14 11 11 10 10 9 9 9 10 10 8 6 9 16 20 24 24 24 23 21 22
15 20 26 30 32 36 36 30 29 30 31 31 33 47 41 41 30 29 29 27 25 24 22 20 20 20 21 21 17 14 12 12 11 11 9 8 8 8 8 9 9 11 14 19 24 26 26 26 27
16 16 19 19 23 24 24 23 22 23 24 29 28 42 41 35 32 33 28 27 24 26 27 22 22 22 23 23 21 18 16 14 13 12 11 11 11 11 10 9 9 11 13 12 12 15 19 19 24
17 13 18 19 17 18 22 17 15 15 17 24 26 38 36 38 38 31 31 30 26 29 29 27 24 25 26 26 26 23 21 19 17 15 15 14 14 14 12 13 14 14 15 15 16 17 17 18 17
19 12 13 18 24 23 17 28 34 12 21 23 23 34 42 41 39 36 36 35 34 28 30 28 26 25 27 27 29 29 27 25 23 22 20 19 18 17 17 17 16 18 19 20 20 21 22 23 23

GFSSGP_500_spd_090.txt.gz
Wind_Speed
29 29 27 25 24 22 24 30 29 27 25 25 24 22 19 23 20 23 23 25 28 30 31 30 32 31 29 24 23 23 24 25 25 24 23 23 24 24 24 24 26 27 29 29 31 29 24 21 18
30 29 29 27 25 21 26 31 29 31 26 26 25 24 23 23 19 21 25 23 25 28 27 30 30 30 28 23 22 22 23 26 26 23 24 24 23 23 21 20 20 25 27 30 30 28 25 22 18
31 29 29 29 23 19 28 29 30 34 27 26 25 23 23 27 24 23 20 21 26 28 26 26 27 29 30 25 22 24 26 25 24 25 25 25 24 22 24 24 24 28 30 29 29 28 25 21 20
32 32 31 29 20 21 28 29 31 31 29 25 28 26 23 30 28 22 18 22 25 27 27 25 25 25 24 22 21 22 24 26 28 28 27 26 26 21 25 30 25 30 32 31 29 27 25 22 22
32 33 33 26 17 19 29 30 36 30 30 24 30 26 25 30 27 23 20 23 22 24 26 24 24 22 22 23 24 23 24 25 26 26 26 26 22 21 23 24 25 27 34 34 31 29 28 26 25
33 32 34 23 18 22 26 30 36 34 36 25 28 27 26 28 27 25 24 23 21 23 26 22 22 20 22 25 26 26 25 24 24 27 25 25 26 31 28 28 27 32 29 32 28 28 29 29 26
34 33 33 27 20 22 25 32 33 34 34 30 27 27 25 25 27 25 25 26 23 23 25 24 22 20 21 24 26 26 26 26 27 26 25 25 26 33 33 41 38 29 32 40 27 29 31 30 28
35 36 36 28 18 20 26 36 33 32 34 31 28 27 26 21 26 28 27 24 25 26 25 24 23 19 20 23 24 25 26 26 25 27 26 30 29 34 36 29 29 31 30 36 22 30 29 31 30
35 39 35 26 19 20 28 38 38 33 34 32 26 28 25 19 23 27 28 24 24 24 24 23 22 18 19 23 23 24 22 24 25 27 30 32 30 33 34 32 28 24 23 27 29 27 29 29 32
38 39 34 21 24 29 34 40 37 35 34 33 25 29 24 21 21 27 28 27 24 23 25 21 20 16 17 20 20 20 21 22 25 28 31 31 30 27 31 30 26 27 28 25 31 30 33 32 30
37 37 33 28 27 34 37 41 38 38 35 33 27 32 22 22 22 26 26 27 24 24 26 23 19 16 16 19 20 19 20 22 21 25 24 24 30 28 28 25 25 29 31 32 22 33 34 26 29
42 40 36 30 32 37 39 40 41 37 36 31 29 34 23 22 24 25 25 26 25 22 25 25 21 17 19 19 23 22 22 22 24 25 32 30 27 28 32 29 37 34 41 32 20 29 32 27 18
43 40 38 35 38 39 40 41 40 39 40 27 35 33 27 24 23 25 26 25 25 23 22 26 25 18 21 19 23 22 24 24 25 26 35 24 24 26 33 34 40 42 40 29 25 28 30 31 25
43 41 41 38 40 41 41 38 38 40 39 30 34 35 32 26 24 25 23 24 24 24 22 25 28 21 20 19 21 23 25 26 27 29 30 18 20 26 35 41 44 42 42 33 33 26 30 30 27
45 45 43 40 40 41 42 39 40 37 38 37 34 38 37 29 31 22 23 23 26 25 25 23 28 24 19 18 20 23 25 27 29 30 29 18 19 26 33 44 41 42 35 20 27 28 28 30 30
43 46 46 42 41 41 40 39 37 38 40 41 40 41 39 37 34 26 24 22 26 26 25 25 27 25 19 18 20 23 26 27 29 26 27 15 18 29 41 43 43 40 36 22 29 27 29 28 31
46 46 44 44 42 42 42 38 39 41 44 43 43 43 41 40 38 30 26 25 27 28 24 26 25 26 19 19 21 23 26 26 27 22 21 18 19 39 41 48 36 37 32 32 29 26 27 29 27
47 42 43 44 45 45 44 41 44 43 45 47 47 44 43 43 39 33 29 28 29 29 25 26 24 25 19 18 18 22 23 24 24 18 14 11 26 39 44 35 27 29 31 30 30 28 29 23 23
45 46 46 46 48 48 46 43 45 46 43 44 45 42 43 40 36 31 30 28 32 30 27 25 23 23 20 17 14 18 22 23 19 13 12 9 33 34 35 28 30 27 22 27 29 26 25 26 23
48 47 47 47 46 48 46 42 45 40 37 41 42 40 37 37 32 32 32 30 32 32 30 25 24 22 20 18 12 14 19 22 16 12 12 9 25 33 36 34 32 31 27 24 26 25 25 29 31
44 44 44 44 44 46 50 42 44 41 36 36 41 41 40 37 34 33 31 32 35 32 32 27 24 18 20 20 12 12 15 18 11 10 9 9 14 30 35 35 35 36 32 29 25 30 30 31 32
39 37 39 42 44 44 44 46 37 34 31 31 31 36 40 37 35 32 30 30 36 33 33 29 26 17 17 20 12 10 14 15 9 11 14 11 10 24 35 38 35 35 30 34 33 33 34 34 34
32 31 33 34 37 40 39 40 39 30 27 29 34 31 35 39 38 34 31 32 41 40 35 31 29 18 15 18 12 9 11 14 9 7 11 12 10 11 29 31 33 29 30 32 30 28 33 36 32
31 30 31 33 32 36 33 34 38 31 34 33 36 33 35 39 40 36 33 34 44 43 39 31 30 19 16 17 13 10 9 12 13 9 7 8 12 13 14 21 24 24 26 30 32 31 30 32 33
27 28 30 30 30 33 32 35 25 35 36 35 32 34 37 40 41 39 36 32 43 43 38 32 30 21 17 17 15 12 10 10 12 12 11 9 10 11 14 19 22 23 25 29 29 26 24 26 29
30 28 27 30 28 28 25 28 22 30 34 34 31 36 41 43 45 39 36 34 40 39 39 33 30 23 19 18 16 16 11 10 11 12 11 13 14 13 13 13 17 27 30 32 29 26 23 20 23
29 26 26 24 22 25 21 22 25 26 29 34 37 37 41 50 46 42 37 35 33 36 38 35 29 24 22 20 19 19 15 13 13 12 12 11 11 12 12 13 12 11 14 19 23 25 27 27 27
24 24 22 20 22 23 21 20 20 17 20 24 28 30 35 36 38 38 38 38 34 37 36 36 30 25 25 23 22 22 19 18 15 14 13 12 13 12 11 11 11 11 13 14 15 15 19 23 26
26 25 24 19 19 22 25 19 16 17 9 17 19 26 22 34 36 38 42 35 35 36 36 38 31 25 25 26 25 25 24 22 20 18 15 14 14 13 12 14 15 15 15 14 15 16 16 16 17
27 24 20 18 12 16 24 24 21 19 21 24 15 25 24 33 39 43 41 36 36 41 41 36 30 28 25 27 26 27 26 25 24 23 22 20 18 17 16 14 14 16 18 19 20 20 20 20 21

GFSSGP_500_spd_093.txt.gz
Wind_Speed
30 30 30 29 29 26 24 29 28 25 21 18 18 18 18 20 23 26 28 27 27 27 22 22 25 25 24 23 21 21 22 22 21 19 18 19 18 17 16 18 19 21 24 26 25 24 25 23 20
32 33 32 31 31 26 24 30 28 26 24 19 17 17 18 20 25 28 28 27 28 26 23 23 23 22 25 23 19 18 19 20 20 21 21 19 19 17 16 16 17 19 22 25 26 26 25 23 21
32 30 31 32 29 22 26 32 29 28 26 19 17 15 18 21 23 26 28 28 27 24 23 23 22 22 24 23 19 16 18 20 22 21 19 18 19 18 17 16 18 20 21 20 24 25 25 23 22
30 30 31 33 26 21 26 31 31 30 26 21 17 15 17 21 22 25 28 28 27 23 23 22 22 23 24 23 18 17 18 19 21 21 22 22 24 22 20 15 17 22 25 25 20 23 24 25 25
31 30 31 29 23 19 26 32 31 30 27 23 21 14 16 21 19 22 26 27 25 24 21 22 22 24 25 23 19 19 20 20 19 19 21 23 25 23 25 18 16 21 26 26 26 23 24 26 29
32 31 31 27 21 22 27 32 32 28 26 25 20 18 15 19 16 19 23 26 26 27 21 23 23 24 26 21 19 19 20 21 21 20 21 22 24 22 22 24 24 21 23 20 27 31 29 28 31
34 31 33 29 21 24 26 31 35 30 28 30 20 20 16 19 17 18 24 25 26 25 22 22 24 26 27 20 19 21 22 22 21 22 23 23 21 23 32 29 23 30 27 29 25 32 34 32 32
35 36 35 29 22 22 29 32 39 35 31 29 27 20 20 19 18 16 24 23 26 25 22 20 23 25 26 21 19 21 21 21 21 21 22 22 21 22 30 25 25 28 31 36 28 29 35 34 33
37 41 32 25 22 22 29 35 40 39 34 32 29 21 25 21 17 18 23 22 25 26 23 20 22 22 23 22 20 21 20 19 19 20 21 21 24 27 29 30 30 22 24 23 24 30 31 33 34
42 41 33 25 25 27 34 38 42 41 35 35 31 25 28 18 16 18 21 22 25 26 21 20 21 22 21 23 21 20 19 19 18 19 21 18 22 24 30 31 30 27 24 22 27 30 32 30 26
43 42 37 30 28 31 36 39 44 42 37 37 36 27 31 19 17 18 21 22 26 27 21 20 20 21 21 21 22 22 20 20 20 20 18 21 23 29 29 27 24 27 25 27 29 33 30 29 23
48 46 42 36 33 35 37 41 41 42 40 40 37 32 34 21 19 20 21 23 26 29 23 21 19 21 21 21 22 24 22 20 21 21 23 23 27 30 27 27 25 25 26 30 35 29 28 29 30
49 47 44 40 38 37 38 38 42 41 42 43 39 36 35 26 23 22 22 24 27 30 25 22 19 19 23 22 22 24 23 21 22 23 24 25 30 30 29 29 28 28 34 30 35 29 29 30 26
49 47 43 40 38 39 38 37 39 42 45 43 39 38 37 34 28 24 22 27 27 31 29 25 20 20 23 22 22 22 24 21 24 25 26 28 30 30 27 26 33 32 41 32 41 27 28 28 28
53 52 48 44 40 38 38 34 38 42 44 44 41 39 39 39 30 24 23 27 27 30 33 27 23 22 23 23 22 22 24 23 27 27 27 31 23 24 24 27 35 39 41 36 41 29 26 28 30
53 53 51 45 43 39 38 37 35 41 41 43 45 45 42 42 35 30 26 27 26 29 34 26 24 23 24 25 21 22 24 25 27 28 29 29 25 21 27 26 34 39 44 39 38 30 31 28 32
56 55 53 48 41 42 41 39 37 41 44 45 46 47 45 44 41 35 30 28 25 29 33 27 25 23 26 26 21 21 24 25 25 27 28 27 27 25 26 30 33 43 45 38 34 32 29 28 29
56 53 50 47 45 45 42 39 40 42 45 46 49 49 48 46 44 41 34 30 27 30 32 27 26 24 25 28 21 19 22 22 24 25 25 20 25 16 25 32 35 45 42 36 27 24 32 32 32
51 52 50 50 50 48 44 41 42 45 45 45 49 51 50 48 45 44 39 31 30 30 30 27 26 26 26 27 23 18 22 20 23 24 20 18 19 19 22 35 43 44 40 38 32 31 29 29 29
53 52 52 51 50 51 49 46 44 45 44 47 49 49 47 47 45 43 40 33 31 30 29 29 28 27 27 28 23 18 21 19 20 21 15 15 16 22 26 38 42 41 35 33 30 33 29 30 29
46 47 47 47 47 48 50 49 47 47 46 44 46 44 45 45 43 40 37 34 33 29 29 30 30 28 27 28 23 16 19 17 18 16 12 11 4 20 26 32 40 33 33 34 30 31 35 29 27
35 33 36 40 43 43 44 46 44 44 41 42 44 42 41 41 42 41 38 36 32 29 30 31 31 31 29 27 24 15 16 16 14 11 10 12 6 8 29 31 30 31 33 31 30 30 31 34 30
30 28 30 33 35 37 37 43 46 39 34 39 41 41 39 38 38 35 39 36 34 32 29 33 32 31 31 27 25 15 15 15 12 9 7 10 10 10 15 23 34 28 28 27 34 28 32 30 34
25 27 27 28 27 31 30 36 43 33 33 36 39 39 38 36 35 35 39 38 38 34 31 35 35 34 34 28 25 16 15 13 14 10 9 8 11 11 7 19 24 31 28 26 27 36 31 28 29
24 24 24 26 26 28 28 31 32 36 31 31 36 39 38 37 35 35 36 39 39 34 30 37 39 35 37 29 28 18 17 12 13 12 11 10 8 10 12 11 13 17 23 22 24 26 26 26 27
24 26 25 24 24 24 23 27 31 34 33 31 31 33 34 34 35 35 38 42 39 36 34 38 40 38 38 31 30 22 18 12 13 13 12 11 11 11 11 12 12 16 20 22 26 25 24 23 21
27 24 23 23 22 21 21 24 27 30 33 34 32 29 30 32 35 37 40 42 41 38 34 40 40 40 40 33 32 26 20 15 15 15 14 13 13 13 13 13 14 15 18 23 27 28 28 28 28
24 22 23 25 23 22 21 21 24 26 25 26 26 27 29 32 36 38 44 41 40 40 37 39 40 41 39 33 32 29 23 19 18 16 15 14 14 15 15 16 15 15 15 15 17 21 23 25 28
24 25 26 21 22 23 21 17 19 21 20 20 20 24 27 32 33 42 42 40 41 42 40 39 41 41 37 32 32 31 27 23 20 17 14 12 13 14 15 16 16 17 15 14 14 16 17 17 18
23 23 23 24 24 21 22 13 18 18 20 17 20 17 26 30 32 37 40 42 45 47 44 42 41 39 37 33 32 30 29 24 22 20 18 17 14 13 13 14 14 16 17 17 17 18 20 20 21

GFSSGP_500_spd_096.txt.gz
Wind_Speed
30 29 28 29 29 29 26 28 28 25 24 21 19 15 12 13 14 18 21 23 24 23 24 21 18 19 21 20 19 19 18 18 19 19 19 19 17 16 17 17 17 16 17 19 21 22 21 21 20
31 30 31 31 32 30 24 27 30 31 26 22 19 14 13 14 14 16 19 22 24 25 24 22 21 20 21 20 20 18 16 16 18 18 19 19 19 17 18 19 20 20 21 20 21 23 24 22 21
33 31 32 32 31 25 23 30 31 32 29 23 19 14 15 15 13 15 18 21 21 24 24 22 21 20 19 21 21 20 16 16 17 19 19 17 15 13 13 16 18 19 20 21 22 24 25 23 22
35 35 35 35 28 23 25 28 31 33 30 25 21 15 15 17 13 14 17 20 21 21 21 20 21 20 20 21 23 21 18 19 19 18 19 18 18 17 17 18 16 15 20 22 20 21 25 26 24
37 38 37 34 24 24 26 30 34 35 32 26 22 16 16 18 14 14 16 20 21 19 19 18 21 21 21 21 23 21 15 17 18 18 18 17 18 20 20 21 20 19 26 27 22 24 23 23 27
40 38 38 34 25 25 27 33 35 35 31 26 21 18 17 21 17 14 15 20 22 19 16 18 20 19 20 22 22 19 15 19 19 20 20 19 18 18 19 22 23 27 20 31 21 21 30 25 28
40 39 38 37 27 25 27 34 36 36 32 29 23 20 19 25 20 17 16 19 22 21 16 18 18 19 20 22 21 18 14 20 20 19 20 20 21 20 19 20 22 24 28 28 31 23 22 30 32
39 41 42 37 27 23 26 32 37 39 39 32 31 27 23 25 21 18 15 19 22 22 18 16 18 18 19 21 19 18 15 16 17 17 18 19 20 18 18 19 29 28 24 30 26 31 22 29 32
43 46 45 36 29 25 27 34 40 42 42 37 35 31 26 27 21 17 14 20 22 23 20 16 18 19 18 18 18 18 17 15 16 17 17 17 19 20 21 27 26 24 25 22 27 20 24 26 35
48 49 44 38 31 29 31 37 42 44 44 41 38 34 27 29 20 19 18 21 22 24 22 18 18 19 19 18 18 20 18 18 15 17 18 19 17 19 20 21 24 28 26 24 22 17 29 30 34
48 50 43 44 35 35 34 37 44 46 46 43 41 36 31 31 21 21 21 22 21 25 25 21 18 21 21 17 16 19 20 21 17 17 19 20 20 21 23 24 25 25 30 28 25 19 35 30 29
50 48 46 45 40 41 39 40 44 46 47 45 43 39 35 35 26 25 23 24 23 26 27 24 21 22 21 19 18 18 21 22 21 18 19 21 22 24 22 24 24 25 26 29 30 26 33 30 31
54 51 50 49 44 45 44 43 43 46 48 47 44 43 39 36 32 28 25 23 26 28 27 28 23 23 25 23 20 19 22 23 23 20 20 22 24 26 25 25 24 25 28 30 31 28 35 30 32
59 56 55 51 48 46 45 44 46 46 46 48 47 44 40 40 37 31 24 25 26 31 27 29 27 24 26 25 21 21 22 23 24 23 23 24 26 26 30 23 24 28 32 31 32 32 35 27 35
63 60 57 53 47 44 44 43 43 45 44 48 48 45 42 44 42 34 29 26 28 32 30 30 30 24 26 26 22 21 23 23 25 25 26 26 28 27 25 26 23 31 31 34 34 35 41 27 35
63 63 62 56 51 44 44 42 43 43 43 45 48 49 46 45 44 36 30 28 30 34 31 33 32 25 26 26 24 21 24 23 26 27 27 26 27 27 22 24 25 28 31 36 38 38 46 31 33
65 64 62 61 58 48 45 45 45 47 44 45 45 48 49 48 45 43 35 31 32 35 32 33 35 26 26 25 25 23 25 23 24 24 25 25 27 26 21 27 30 25 29 35 33 34 43 29 29
65 65 63 62 57 51 48 49 48 44 46 47 47 47 48 49 48 45 44 36 33 35 33 35 35 27 28 25 24 25 26 24 23 24 26 24 26 25 30 26 30 30 30 35 37 39 40 31 28
63 66 62 61 59 55 51 51 50 47 45 46 47 47 48 48 49 49 47 42 35 35 34 36 36 32 28 26 24 27 27 25 23 23 25 24 24 23 27 24 31 34 33 34 40 40 40 34 30
61 63 63 63 63 57 54 53 53 52 45 45 46 46 48 49 50 51 49 46 39 36 35 37 37 33 29 26 24 28 27 26 22 22 22 23 22 23 21 23 28 32 35 39 44 40 33 25 27
55 56 55 57 55 55 55 54 52 52 51 46 48 48 48 49 50 49 46 45 42 37 35 37 37 35 30 26 23 28 27 26 20 20 20 20 17 20 18 18 24 31 35 36 36 37 28 27 27
52 47 43 48 51 50 54 53 52 51 49 49 50 48 45 46 47 47 46 44 40 35 38 40 36 34 30 24 23 27 27 26 20 18 16 17 13 14 5 17 32 30 35 40 38 34 31 32 28
39 35 33 35 40 46 47 48 48 47 44 45 42 43 44 45 44 43 43 43 41 38 40 42 37 35 31 25 23 26 29 27 21 16 15 16 11 9 10 12 25 34 39 38 36 34 28 29 29
27 27 28 27 29 36 33 37 42 41 34 34 37 40 43 43 43 41 41 41 40 39 43 43 40 36 31 27 25 25 29 27 23 15 14 15 12 11 8 9 22 27 32 33 35 34 35 33 29
33 29 26 26 28 27 24 27 31 32 29 28 32 37 42 42 43 42 41 43 42 42 43 43 42 38 31 27 27 25 28 27 25 17 13 15 12 10 12 8 19 21 34 24 28 29 29 33 35
26 22 21 22 21 25 23 24 29 28 28 25 28 33 39 41 41 42 42 43 42 45 45 42 43 38 34 27 28 26 28 27 26 18 13 14 15 11 10 8 10 10 24 22 25 26 21 25 24
19 22 21 20 20 19 19 18 24 26 25 25 25 32 36 40 40 42 43 45 45 47 46 45 44 41 38 30 31 28 30 28 26 19 16 15 14 13 13 11 10 11 13 16 17 20 23 23 23
22 21 24 24 24 20 18 16 23 24 26 28 28 30 32 37 41 44 46 47 49 49 50 47 45 43 41 36 33 30 30 29 26 23 17 15 16 13 13 14 14 14 13 13 16 17 22 24 26
21 21 23 21 20 18 17 18 20 24 24 27 29 29 31 38 42 44 46 45 51 51 51 48 46 46 42 41 37 31 30 30 28 27 18 16 15 15 14 12 12 11 11 13 16 14 14 16 18
24 24 20 20 20 19 16 17 19 21 21 21 27 29 28 30 28 32 37 41 47 49 51 49 49 48 46 45 38 31 30 31 28 30 22 19 16 14 13 13 13 13 15 13 13 14 15 17 18

GFSSGP_500_spd_099.txt.gz
Wind_Speed
32 31 29 28 28 29 26 21 30 29 28 26 23 20 19 21 23 22 19 16 20 17 16 14 12 14 15 15 18 19 20 20 18 17 17 18 20 21 20 19 18 17 17 19 21 23 23 22 21
32 31 31 31 31 30 23 20 34 29 35 26 24 21 21 21 21 21 18 19 19 17 16 16 15 15 16 15 18 19 21 22 19 18 18 18 20 24 22 20 20 21 21 21 23 25 25 24 23
31 31 33 33 34 30 22 17 35 33 32 29 25 22 23 22 22 22 18 20 20 18 16 16 16 14 16 18 20 19 21 22 19 19 20 20 21 23 24 19 21 21 21 22 23 24 25 27 26
33 34 35 37 34 28 27 29 39 33 32 30 25 22 23 23 25 24 18 19 19 17 15 16 16 15 16 19 21 20 20 21 18 18 19 19 20 21 16 16 15 18 21 23 23 24 26 27 27
37 39 40 40 36 28 29 31 35 34 36 33 28 24 23 23 26 24 19 19 20 18 15 16 16 16 17 19 20 20 19 18 17 17 16 16 19 20 19 18 17 23 22 27 25 26 26 28 27
41 40 43 42 36 30 31 35 35 36 38 34 30 26 24 27 27 24 20 19 21 19 15 15 16 16 16 19 19 19 18 18 17 16 15 19 19 18 18 18 20 22 25 22 19 22 27 23 28
41 43 44 40 37 34 32 35 36 36 38 38 33 27 24 28 30 22 21 19 22 23 18 16 17 15 15 18 18 18 18 16 17 17 16 16 18 21 21 22 23 23 24 20 24 27 23 22 26
41 41 44 43 40 34 32 35 34 38 39 42 34 30 28 33 27 23 22 20 24 26 21 17 17 16 15 18 18 18 16 18 17 17 15 12 16 18 18 23 21 22 28 27 30 23 28 20 26
45 47 48 43 36 32 36 34 33 39 40 42 39 37 34 29 28 27 24 21 25 27 23 20 18 17 17 18 19 18 16 17 18 18 19 16 13 14 16 16 20 25 26 29 26 22 26 21 32
54 51 48 42 36 39 39 37 38 40 43 47 43 40 35 33 31 28 25 24 25 27 24 25 20 16 18 19 20 18 16 16 19 18 21 21 17 15 16 16 19 19 23 31 25 21 22 24 35
57 53 50 44 43 47 42 42 42 43 43 46 45 44 39 34 32 28 26 26 26 28 26 29 23 19 18 21 20 19 17 17 18 20 21 23 21 18 18 19 20 26 23 25 26 28 23 17 32
63 56 53 51 51 52 44 46 48 45 44 46 46 46 38 39 35 31 27 26 27 30 29 33 27 22 17 20 21 23 22 19 19 21 23 23 21 21 20 21 24 23 22 24 27 27 24 23 33
66 64 58 54 54 54 49 51 50 49 47 45 46 47 44 41 38 35 30 29 30 31 33 34 30 27 20 20 21 22 24 22 22 22 22 24 23 23 23 25 23 26 23 24 27 31 28 23 34
67 69 66 63 57 54 53 52 52 51 49 45 50 48 46 44 43 39 35 31 31 35 34 36 33 31 24 21 22 22 24 23 23 24 22 24 25 25 25 26 27 27 26 25 29 29 30 27 33
71 73 72 67 61 56 53 55 52 50 49 48 51 51 49 46 44 40 38 35 33 36 38 35 36 33 30 24 24 23 23 23 24 24 23 24 26 27 26 27 28 26 28 28 30 27 30 29 35
70 73 74 70 67 59 55 53 51 50 52 50 51 52 51 48 46 44 40 37 34 36 40 38 37 34 33 26 26 25 24 23 25 24 23 24 25 26 27 26 27 25 24 28 31 31 31 32 38
68 72 72 70 67 66 59 55 50 48 50 51 49 51 51 49 47 46 44 36 35 38 40 39 36 34 34 29 27 27 25 23 25 26 23 24 24 26 27 27 23 28 27 28 31 31 32 37 41
64 67 68 67 61 66 67 58 53 52 52 50 45 47 51 49 47 45 44 41 38 38 38 40 36 35 36 34 27 29 26 25 24 27 25 25 26 28 29 28 26 31 28 28 28 33 33 34 45
55 55 42 49 43 51 71 60 57 54 54 52 49 50 50 48 47 47 46 44 42 39 38 41 38 36 36 38 30 30 28 26 25 27 25 26 28 27 28 28 28 37 31 29 26 30 30 37 48
51 55 56 56 48 51 63 66 56 57 56 55 53 51 48 48 49 48 48 48 44 41 36 37 40 39 37 40 35 31 29 26 25 27 25 27 27 27 26 29 31 33 35 36 32 31 31 37 43
57 50 50 58 57 55 60 65 60 59 60 56 54 51 52 53 50 47 44 45 46 46 38 39 42 43 39 40 37 32 29 24 25 26 25 26 26 25 24 28 26 29 35 36 35 34 32 37 43
49 47 48 51 56 55 47 56 49 57 58 59 56 55 53 50 50 49 48 47 47 47 41 38 40 43 38 39 37 33 29 22 23 25 24 26 24 22 23 26 21 22 31 36 36 36 33 37 40
39 34 27 37 41 41 46 49 47 21 54 57 58 54 54 54 51 48 47 47 48 47 45 39 39 42 37 39 38 35 31 22 21 24 22 26 23 18 19 20 14 21 29 36 38 36 36 37 33
33 38 32 33 34 38 41 42 32 41 36 54 48 46 51 54 54 53 50 49 47 46 45 40 39 38 39 39 39 36 34 23 20 23 22 24 23 17 16 17 14 21 26 32 30 31 34 36 31
40 40 31 27 29 35 21 31 21 29 33 32 35 40 46 51 50 50 48 47 45 43 44 37 40 39 41 39 40 37 37 24 21 21 22 23 23 16 14 14 9 15 22 32 33 35 37 32 28
31 31 27 22 22 17 20 23 25 33 23 22 26 32 38 44 44 45 43 44 43 43 43 39 38 42 44 41 41 38 40 26 22 21 21 22 23 16 13 11 10 24 14 27 31 34 31 31 28
35 32 22 20 20 23 22 21 23 21 22 20 22 27 31 35 38 41 41 42 41 43 44 42 39 44 45 43 43 39 41 29 24 20 19 21 24 16 13 13 10 11 10 17 26 23 29 30 24
21 31 30 29 24 17 13 9 16 17 21 17 19 22 28 33 37 39 40 41 43 44 45 44 42 44 46 45 43 42 40 33 25 20 20 22 23 17 14 15 13 11 10 12 10 14 12 16 22
32 30 28 26 22 20 15 19 24 20 17 17 18 22 26 30 32 39 39 40 42 43 44 46 43 45 45 46 44 46 42 34 26 22 20 23 23 21 15 15 15 15 14 15 15 21 23 23 24
17 17 20 20 18 22 22 13 16 16 16 14 17 22 25 27 30 38 40 40 41 42 44 43 46 46 46 47 48 48 46 35 29 25 22 24 24 23 19 18 18 17 16 16 16 17 19 18 17

GFSSGP_500_spd_102.txt.gz
Wind_Speed
34 33 32 31 31 31 27 20 19 14 32 31 29 20 24 25 30 32 27 23 19 19 15 15 14 12 11 11 14 15 18 18 19 18 17 17 17 19 19 20 22 23 22 20 23 25 25 25 25
34 31 32 33 34 32 28 17 14 22 38 34 26 24 23 25 32 31 27 25 22 19 16 15 13 12 11 11 13 16 18 18 18 19 18 19 18 18 20 21 23 24 23 22 24 25 26 26 26
33 32 33 33 38 36 26 12 12 29 43 35 28 26 26 28 33 26 28 24 24 22 17 14 13 13 13 13 14 16 18 19 19 19 20 20 18 17 19 18 25 25 25 23 22 23 26 28 28
35 35 36 38 36 30 25 20 18 32 43 35 28 29 27 31 29 29 27 26 24 22 18 14 14 14 13 14 15 16 17 17 18 18 18 21 18 16 17 19 16 21 28 24 24 22 26 29 29
39 39 40 40 37 31 27 26 33 41 39 39 32 27 29 28 29 31 30 26 22 22 19 16 14 15 15 14 15 17 16 16 16 17 17 18 17 15 16 19 17 19 21 18 22 22 23 28 29
42 41 43 43 37 32 31 29 36 36 38 43 37 30 30 33 30 32 30 26 21 24 18 18 15 17 17 14 15 15 15 16 15 16 17 17 19 18 17 18 18 19 20 24 23 22 15 29 26
46 44 44 44 43 37 31 24 33 46 36 38 39 35 29 37 32 31 31 24 23 25 22 18 17 17 18 15 14 15 14 15 15 15 16 17 15 18 15 18 21 23 21 20 20 21 19 21 26
49 50 49 48 48 43 33 23 31 44 37 37 40 41 30 37 40 25 28 26 24 25 25 20 19 19 20 15 14 15 15 16 15 15 15 17 15 17 16 16 18 22 19 18 22 23 24 15 22
53 54 54 50 48 41 31 33 32 44 38 37 40 40 37 37 39 26 32 26 25 26 29 23 22 20 21 18 14 14 15 16 17 17 17 17 16 15 16 14 16 17 18 20 23 23 20 24 19
60 61 50 49 47 42 35 38 39 48 39 37 43 39 39 35 37 36 33 29 26 27 31 28 24 22 21 20 17 13 15 18 18 19 19 19 17 16 18 17 16 18 20 19 20 20 20 21 21
62 63 53 52 49 46 44 44 45 46 46 40 43 40 41 38 37 36 34 31 28 28 31 32 29 26 23 23 19 15 15 17 20 20 21 20 21 21 18 18 18 18 20 21 22 22 21 21 19
65 63 61 57 55 52 50 50 54 49 50 46 45 43 44 40 37 35 35 33 30 28 31 33 33 29 27 24 23 20 17 17 19 21 23 22 21 23 21 18 20 21 22 23 25 24 22 24 21
65 59 65 63 62 56 52 56 58 52 54 50 48 44 46 37 32 37 35 34 33 32 30 34 34 30 30 29 26 25 20 17 18 20 22 23 23 23 23 20 21 24 23 25 24 23 22 25 20
61 63 66 66 67 63 59 59 62 55 56 54 52 46 46 46 38 38 37 36 35 37 30 33 33 34 32 33 27 28 25 21 20 21 20 22 24 25 25 24 22 25 25 25 28 24 23 26 23
64 67 67 70 68 70 65 66 64 57 58 56 53 50 48 48 46 41 40 38 36 36 38 33 35 35 35 33 32 29 28 23 22 22 21 21 24 26 25 27 26 26 27 28 26 25 25 25 23
69 67 70 64 70 73 67 70 64 57 57 55 51 52 53 50 48 45 43 42 38 37 40 42 32 36 37 34 34 29 29 28 23 23 22 22 22 26 25 26 27 27 28 27 23 26 26 25 27
71 74 70 66 70 66 60 68 60 57 58 55 53 54 55 51 49 47 46 42 39 39 39 39 35 35 37 36 37 31 26 30 27 25 24 23 22 26 26 26 28 29 28 26 26 26 28 27 29
70 68 65 63 60 63 56 70 61 57 58 54 56 54 54 51 50 49 45 43 41 38 39 41 39 31 35 38 38 33 30 28 29 27 26 25 23 25 29 27 28 30 29 28 25 25 28 29 30
58 57 56 49 56 46 39 62 58 59 57 57 54 55 52 49 52 46 42 43 42 40 40 42 39 32 34 38 38 34 35 30 29 28 29 26 24 26 29 28 28 30 26 29 30 29 28 30 33
53 51 44 45 43 50 52 43 41 45 62 57 56 56 52 51 50 44 44 46 45 42 41 40 39 36 34 35 39 36 37 33 30 29 29 27 25 25 27 29 28 28 26 32 33 31 29 30 34
45 50 44 45 38 44 54 44 48 45 36 54 56 59 58 56 51 48 51 51 45 43 41 38 36 38 33 32 39 38 38 33 31 30 30 27 25 24 26 28 29 27 31 32 38 34 31 29 32
33 32 44 42 51 38 38 49 43 40 50 56 57 59 61 56 56 56 51 48 47 46 42 39 36 37 37 30 39 40 38 35 31 30 30 27 25 23 25 28 26 27 30 29 36 41 34 34 34
30 28 35 40 46 50 30 45 47 43 38 49 50 46 62 64 60 53 53 50 48 46 43 41 39 36 40 28 39 40 38 35 32 30 30 25 23 23 25 26 25 26 29 25 32 37 40 37 34
26 38 34 29 29 43 44 47 42 31 19 24 40 52 65 62 59 58 54 53 49 46 44 42 43 39 39 32 39 40 37 36 33 30 30 25 22 21 24 24 25 23 28 21 28 34 37 35 37
40 36 30 31 27 26 31 38 36 26 33 31 38 46 44 63 65 60 56 55 52 49 48 47 49 43 39 33 42 43 35 36 35 30 31 26 21 21 21 22 23 20 23 21 28 35 34 34 37
29 32 35 34 28 22 22 24 34 26 29 30 38 35 41 49 53 56 56 53 52 50 50 49 50 48 38 36 43 42 37 37 37 31 32 26 19 21 20 20 20 17 13 19 25 33 37 36 37
24 31 31 17 15 17 22 17 17 27 17 29 29 27 25 26 27 35 48 51 47 44 41 45 46 45 35 36 43 42 39 38 38 33 31 27 19 20 19 20 18 15 11 13 17 26 32 32 32
24 21 29 24 16 13 26 15 23 25 28 32 25 19 22 27 31 33 37 39 39 40 40 42 46 44 36 42 43 42 40 40 39 35 32 28 20 21 20 19 19 16 13 13 14 20 18 13 24
28 35 30 19 14 16 28 27 23 34 23 23 14 20 24 28 31 33 35 37 38 38 41 40 45 41 41 42 43 41 40 42 41 35 33 29 22 23 22 18 20 18 16 14 13 16 13 13 13
20 30 18 17 23 20 25 15 10 15 15 5 10 14 20 23 29 32 35 38 38 39 38 37 43 42 42 41 39 40 41 40 43 36 34 30 24 24 24 21 23 20 19 19 17 16 23 21 20

GFSSGP_500_spd_105.txt.gz
Wind_Speed
34 35 36 36 36 34 29 20 15 12 18 23 30 37 30 28 30 32 30 27 25 21 23 18 16 17 19 17 17 15 15 15 14 15 15 15 16 19 19 20 20 20 20 21 22 24 25 27 26
36 37 38 39 38 36 28 18 18 22 20 27 32 37 34 31 31 31 28 28 27 22 23 19 17 18 17 15 14 14 16 16 15 15 14 14 17 19 20 20 20 20 24 22 22 25 27 28 28
40 40 39 40 39 36 27 17 20 23 22 30 39 36 38 37 33 30 28 27 27 26 24 20 18 19 16 13 12 13 15 16 15 15 14 13 16 18 20 21 20 20 25 27 25 27 26 28 29
41 43 42 42 39 32 27 19 20 20 29 35 41 39 35 34 33 28 26 25 30 26 24 22 20 19 15 12 13 13 14 14 13 14 13 13 15 17 18 19 17 17 20 19 30 26 23 24 26
41 42 45 44 40 34 29 21 28 33 32 36 41 35 33 31 33 32 29 27 30 27 25 24 20 20 16 12 12 13 15 14 13 13 13 12 14 18 18 18 17 15 19 22 20 20 20 22 25
47 44 45 44 40 37 34 30 26 35 37 40 44 35 37 38 37 35 29 26 30 24 25 26 20 21 19 14 12 13 14 14 13 12 13 13 12 16 18 17 19 13 15 18 18 17 21 9 19
48 47 46 46 46 43 36 30 32 30 35 43 43 44 35 37 40 37 29 27 30 24 25 28 22 21 20 16 15 13 13 13 11 11 13 14 13 14 17 15 16 14 15 19 18 18 17 25 15
51 51 49 48 50 47 38 31 33 38 44 35 39 45 39 37 41 38 27 21 29 22 23 30 24 22 21 19 17 15 14 13 11 12 13 15 15 14 17 15 15 15 14 14 17 16 15 15 23
55 57 53 48 52 45 39 34 32 40 43 41 39 43 44 40 41 36 28 23 30 25 22 30 28 23 22 21 19 18 16 13 12 13 14 15 16 15 17 16 14 16 17 13 13 15 16 18 15
59 62 41 54 50 49 45 38 31 39 45 49 49 43 51 44 40 33 29 26 30 29 23 26 31 28 24 23 22 20 20 16 14 14 15 17 18 17 18 17 16 16 16 17 17 17 18 16 16
57 60 48 54 54 51 51 45 41 41 49 55 52 42 47 41 38 37 33 29 28 33 27 24 31 31 27 25 24 24 22 21 18 16 16 18 19 19 21 19 17 16 17 16 17 16 18 19 19
61 59 58 56 57 55 56 52 49 47 48 57 57 47 49 46 39 39 36 31 29 31 31 27 32 33 30 27 26 24 24 23 21 20 19 20 21 20 22 21 18 18 18 19 19 18 19 19 21
65 61 58 58 60 59 58 59 54 52 51 57 57 53 51 48 39 40 36 36 32 30 30 28 31 34 33 30 28 26 24 24 25 24 23 22 22 21 22 22 20 19 20 20 21 20 19 20 22
63 62 62 59 61 61 63 63 57 53 55 63 58 58 51 49 42 45 38 36 34 31 28 29 28 34 36 32 29 29 25 24 25 25 25 25 23 23 23 22 22 23 23 22 22 22 22 22 20
69 68 66 65 61 62 65 69 68 58 55 62 61 59 52 49 47 44 47 37 36 33 30 28 27 35 35 33 31 30 29 26 26 26 26 27 25 24 24 24 23 25 24 23 22 23 21 18 19
75 73 74 67 65 65 60 71 66 64 62 63 60 59 56 49 49 46 52 43 39 38 32 33 27 29 35 35 33 32 31 26 29 27 26 27 28 26 26 25 26 26 23 24 22 22 22 21 23
80 79 75 72 65 67 65 69 65 66 63 65 61 59 54 49 50 52 50 47 42 41 40 36 32 27 31 37 33 33 32 28 29 27 26 27 27 26 27 27 29 29 26 25 26 21 24 24 21
71 65 65 65 63 65 64 66 65 67 63 64 60 60 57 52 50 51 49 49 44 42 44 39 34 31 29 36 33 33 33 31 30 26 24 26 28 28 27 28 28 30 29 27 28 25 24 22 23
51 52 54 50 46 59 60 61 63 61 52 53 61 58 56 55 49 49 49 49 45 44 46 43 37 34 28 30 37 34 33 33 33 27 24 25 28 28 28 28 29 28 28 29 26 24 26 27 24
43 47 47 44 43 45 53 54 62 63 62 59 55 54 56 54 53 49 47 47 43 44 46 43 37 35 28 30 36 39 36 37 34 28 25 27 27 29 29 27 29 27 28 28 26 25 30 33 28
36 44 43 40 44 48 41 46 49 45 44 47 50 50 48 45 48 48 49 46 44 47 44 41 39 38 31 29 33 40 39 37 34 28 29 28 28 29 29 29 28 27 28 29 28 28 34 32 31
35 32 35 29 40 40 39 40 43 41 44 41 45 53 50 45 47 54 56 52 49 48 42 41 41 41 38 32 33 38 40 38 35 31 30 28 29 30 28 29 29 28 27 30 28 30 29 35 39
17 17 19 30 34 38 43 37 37 41 43 44 52 48 48 54 50 60 59 52 53 46 42 42 41 39 38 35 29 35 39 37 36 33 31 28 29 29 29 29 28 27 27 31 29 32 27 36 38
22 25 24 26 33 35 42 36 18 43 40 50 54 55 52 49 52 59 59 58 49 47 44 42 41 40 37 37 26 34 40 37 35 34 31 28 29 29 29 29 28 26 26 29 27 29 26 37 40
24 24 23 24 29 27 40 33 27 20 25 34 45 54 50 49 54 62 64 56 53 51 49 48 45 42 40 38 32 32 41 42 35 35 32 29 27 29 29 28 28 26 25 27 25 24 27 37 40
21 18 21 25 16 19 25 21 34 33 29 31 30 39 40 52 51 54 53 53 51 49 49 51 48 46 49 42 39 36 42 46 38 37 32 31 27 27 29 28 27 24 23 23 20 20 26 30 37
19 19 24 28 18 14 16 15 21 29 39 46 37 33 33 34 35 38 41 44 50 57 59 54 49 50 53 49 40 40 44 47 41 38 33 31 28 28 29 28 25 23 21 22 18 8 21 34 34
21 20 28 30 24 18 20 21 20 26 39 24 41 42 33 33 32 34 35 37 41 48 52 59 57 49 52 48 39 42 47 46 42 39 34 31 29 27 28 28 26 22 21 21 19 15 10 27 34
20 21 22 24 13 11 24 20 16 24 21 34 33 27 28 29 29 28 28 29 32 35 38 43 49 45 46 44 41 43 45 46 41 40 36 34 30 27 28 28 27 23 21 20 20 16 17 22 27
18 22 22 21 4 7 28 23 23 20 26 25 18 15 17 23 26 27 28 28 29 31 34 35 36 40 43 45 42 43 46 46 42 40 38 34 31 27 27 29 28 26 23 20 23 18 15 22 20

GFSSGP_500_spd_108.txt.gz
Wind_Speed
39 39 39 39 37 37 33 20 20 19 26 28 27 22 23 30 35 30 31 29 28 26 22 21 23 20 19 19 20 21 20 19 18 18 16 17 17 17 19 18 20 22 21 21 22 22 25 27 27
38 38 39 40 42 40 31 21 20 25 29 32 28 23 27 30 31 33 30 29 29 27 23 22 24 21 20 19 21 20 18 18 18 18 17 17 18 17 19 18 19 19 19 20 24 27 25 27 28
40 38 39 41 40 37 31 23 23 26 32 35 33 24 30 32 29 33 31 30 29 26 25 25 25 22 20 19 20 19 16 16 18 17 17 17 18 16 16 15 15 16 19 20 20 18 27 27 27
42 43 43 43 42 38 31 20 24 28 35 39 40 33 37 35 30 33 31 31 29 28 30 25 25 24 22 20 20 17 16 15 15 15 16 17 18 15 15 15 16 16 19 21 20 23 21 28 22
47 46 47 45 43 39 34 26 27 29 38 40 44 43 41 30 30 31 33 29 29 32 32 26 26 26 23 21 20 18 17 15 15 14 14 16 17 14 14 14 15 15 16 16 16 15 12 16 20
48 48 48 46 44 40 39 33 28 31 37 40 42 43 39 28 31 32 29 29 29 29 30 27 28 27 24 23 21 19 18 16 15 14 13 15 15 14 13 13 15 15 14 15 14 13 14 14 19
50 50 47 45 44 44 40 33 32 32 35 41 45 47 46 40 35 36 34 30 28 27 28 25 28 29 26 23 23 19 18 18 16 14 13 13 13 14 15 13 13 15 15 15 16 16 15 12 15
54 53 47 46 48 43 39 33 31 35 37 39 46 49 50 46 40 40 36 31 27 24 27 24 26 30 27 24 23 21 18 19 18 15 14 13 13 14 15 16 14 13 13 12 14 16 14 12 14
54 55 47 50 51 44 41 38 33 36 38 40 43 49 52 51 46 46 39 31 26 25 28 25 26 29 28 25 23 23 20 19 19 17 16 15 14 13 16 17 15 14 15 14 13 13 16 16 14
55 53 46 52 52 50 50 45 36 39 42 44 47 50 51 56 50 46 37 33 28 27 29 27 23 26 28 27 25 23 22 21 19 19 19 19 16 15 16 18 17 15 16 15 14 13 17 19 18
57 56 50 51 55 55 51 51 47 44 47 46 49 48 51 53 48 48 36 31 30 31 29 28 26 25 28 30 28 25 24 22 21 20 20 20 20 19 18 20 20 16 17 16 15 13 15 17 21
62 64 60 55 59 59 56 56 55 50 47 50 52 53 53 58 48 46 39 31 33 31 29 31 29 26 28 30 30 28 26 23 22 20 21 20 21 22 21 21 23 19 17 17 17 18 16 17 19
67 65 60 59 62 62 64 61 61 58 48 57 57 56 56 58 49 50 40 36 33 30 29 31 31 28 27 29 31 29 27 25 23 22 22 22 22 22 23 23 23 21 19 20 21 20 19 20 20
70 68 68 65 63 64 67 65 64 58 55 56 63 62 58 62 51 49 39 40 35 33 30 31 31 29 28 29 30 29 28 27 23 24 23 24 23 23 23 25 26 25 22 21 23 24 22 22 24
77 79 76 70 65 67 68 70 68 57 61 57 61 63 61 62 57 50 40 38 39 37 37 31 32 31 30 31 29 29 28 26 25 25 25 25 24 23 23 25 26 27 25 21 24 25 25 23 24
90 90 87 74 70 67 69 74 63 61 63 58 61 64 66 65 62 55 44 43 46 41 38 38 32 30 30 33 32 30 31 26 25 25 27 26 24 23 23 24 26 27 26 23 23 25 26 26 23
99 98 91 85 76 72 71 74 63 65 61 59 61 68 68 66 64 57 50 45 46 43 40 40 37 31 30 32 34 31 30 28 27 26 28 27 26 25 25 25 26 27 28 25 26 26 25 27 23
78 71 75 77 73 72 71 75 70 69 65 64 61 66 69 67 63 55 49 47 46 49 42 40 40 36 32 32 33 35 30 30 28 29 28 26 27 26 26 27 27 28 29 28 27 26 26 26 27
45 49 58 62 64 66 67 70 69 72 69 67 60 60 66 66 62 55 52 49 45 49 47 42 39 39 35 34 31 35 33 33 31 28 27 26 27 28 27 27 27 29 30 30 28 26 24 24 26
40 40 39 44 44 55 56 60 62 66 68 66 64 59 57 59 62 63 58 55 51 48 50 45 44 40 38 36 31 33 37 35 32 31 28 26 27 30 28 29 27 29 29 31 29 27 26 28 27
30 34 34 33 37 43 34 45 53 58 61 63 62 54 54 53 60 63 59 59 56 51 52 50 47 43 38 36 35 30 33 36 34 31 32 29 30 30 30 30 28 29 30 31 29 28 28 28 29
16 23 22 21 29 35 32 36 33 34 50 48 53 42 51 47 55 59 59 59 56 53 50 50 45 42 39 36 34 29 32 37 36 35 36 32 30 30 30 30 29 29 30 32 31 29 30 32 33
4 9 15 18 25 29 35 30 32 30 30 39 38 47 52 54 49 52 55 56 56 58 52 48 43 40 37 32 34 33 29 32 36 35 37 35 32 31 32 31 29 28 29 32 32 30 32 36 33
9 16 13 12 22 28 27 31 24 27 31 41 46 51 56 54 56 53 46 51 53 55 52 46 44 40 37 34 33 30 33 31 36 35 38 36 34 33 32 31 30 29 30 32 33 30 32 32 37
14 18 15 15 20 19 17 25 25 32 27 42 46 49 48 51 55 51 57 55 54 50 49 49 45 44 44 40 38 31 33 36 38 38 39 37 33 33 32 31 31 28 29 31 32 29 31 31 24
15 16 20 0 13 12 17 15 20 27 18 35 48 48 53 54 53 56 59 57 55 54 54 53 47 46 46 46 42 36 31 34 40 41 38 38 35 35 35 32 32 27 29 30 32 27 30 28 26
14 11 7 4 8 6 10 10 16 23 21 28 28 46 53 50 54 58 60 59 58 53 47 48 51 49 47 49 47 45 29 35 41 44 42 41 36 36 37 33 33 27 28 29 29 26 27 19 23
11 13 11 12 14 9 10 11 20 16 18 22 18 24 25 45 48 46 54 51 50 47 48 51 52 51 48 49 55 48 40 43 47 47 48 42 38 38 38 34 34 28 27 28 29 25 23 21 17
13 13 13 15 18 16 6 18 25 24 30 23 20 38 32 26 32 34 40 45 46 47 49 49 48 51 55 59 61 54 44 48 48 48 48 42 38 40 38 35 34 30 26 27 29 26 21 22 21
10 17 16 18 20 17 11 16 25 25 33 27 27 29 34 33 28 30 36 38 37 37 37 38 40 41 46 53 54 54 55 53 47 47 46 42 41 41 39 37 35 29 25 27 29 26 22 18 21

GFSSGP_500_spd_111.txt.gz
Wind_Speed
32 34 36 39 39 38 35 27 27 24 29 31 29 30 30 27 22 27 27 29 29 29 29 27 23 25 25 23 23 22 22 22 22 22 21 19 21 20 18 16 15 16 17 18 18 18 17 20 20
35 35 34 35 37 36 31 25 24 26 27 31 31 34 36 28 24 28 31 31 31 33 31 29 27 26 26 24 23 22 23 22 22 21 19 19 20 20 18 15 14 15 16 17 17 16 15 16 21
39 38 39 41 41 39 34 20 22 29 30 31 33 36 39 38 32 30 31 31 34 33 31 30 28 29 27 24 23 22 22 22 21 19 18 18 19 18 16 15 15 14 15 17 17 16 18 21 21
41 41 42 41 39 39 33 24 26 30 31 33 35 36 38 40 39 36 33 33 33 31 33 31 28 28 29 27 24 23 22 22 21 18 17 18 17 16 15 15 14 14 14 16 16 15 12 13 12
44 44 44 39 38 38 35 27 27 29 32 33 36 37 39 41 39 41 43 33 30 31 31 30 29 30 30 29 24 24 22 22 21 20 18 17 16 14 14 13 14 13 13 14 15 14 11 11 10
46 45 42 40 38 39 41 34 32 31 34 37 38 39 40 42 40 35 27 30 29 29 27 28 29 29 31 29 26 25 22 22 21 20 19 17 15 14 13 12 13 13 13 15 18 15 15 12 10
45 46 41 39 37 38 39 37 35 31 35 38 39 41 41 42 41 37 35 33 32 31 30 28 29 28 30 29 26 25 22 22 21 20 20 18 16 14 13 12 14 14 14 13 15 18 15 15 10
48 48 43 41 41 38 41 33 37 37 35 41 43 42 43 42 43 44 41 38 33 32 29 25 29 27 29 30 26 24 23 22 21 19 19 20 19 16 15 13 14 14 14 14 16 17 14 12 10
52 51 46 48 48 45 47 40 38 39 40 42 50 46 45 44 47 48 45 42 30 32 28 28 31 26 27 29 27 24 23 21 20 18 19 19 20 19 16 15 15 15 15 16 17 17 16 14 11
55 55 51 51 49 49 51 50 46 44 43 43 49 52 49 49 48 50 50 45 36 37 33 29 28 27 26 29 26 24 23 21 20 19 18 18 19 19 18 17 17 17 16 16 18 18 15 18 16
57 58 54 57 56 54 55 55 53 48 48 49 50 53 53 50 52 52 51 50 37 35 34 28 31 30 28 30 29 26 23 21 21 20 18 17 19 19 19 18 18 18 17 18 17 18 17 17 19
64 62 64 60 58 61 61 60 59 56 46 52 53 57 54 53 54 56 53 50 39 32 35 28 29 29 29 29 31 30 25 22 21 22 19 16 18 19 20 18 18 19 17 17 19 19 19 18 21
66 66 65 69 69 67 67 65 65 62 53 54 57 59 58 57 56 57 57 51 41 33 34 30 28 27 29 30 31 30 29 25 22 22 21 18 17 18 20 19 18 19 20 19 19 21 21 22 22
70 69 70 69 70 73 74 71 71 56 60 55 60 62 61 60 58 57 60 51 45 33 37 31 28 28 27 29 31 30 30 27 25 24 21 20 19 17 20 20 20 20 21 20 19 21 24 24 24
78 81 79 73 78 79 82 79 75 66 64 60 57 61 66 64 61 60 61 54 50 38 39 34 29 29 26 29 31 32 32 28 26 26 24 21 20 18 19 20 21 21 21 23 22 21 24 25 27
87 93 92 79 88 87 89 88 75 74 73 67 58 58 64 68 64 63 63 59 54 43 38 33 33 31 29 27 30 33 33 31 28 27 25 23 22 20 20 22 22 22 22 24 25 23 25 26 26
94 97 98 98 94 94 89 94 82 81 77 74 65 60 64 66 69 66 65 67 59 50 42 37 37 35 33 30 32 33 34 32 31 28 27 25 23 21 21 23 24 24 23 24 26 26 27 27 27
88 80 78 85 89 91 97 91 90 82 81 77 69 62 60 65 66 66 68 69 64 55 44 38 42 38 36 36 31 32 35 33 33 30 28 29 25 22 23 24 25 26 24 25 26 27 28 26 26
51 44 48 48 46 60 77 83 86 81 80 78 71 62 59 65 65 70 73 72 67 57 46 47 43 42 41 37 33 30 33 36 33 32 31 31 26 23 25 25 26 28 27 26 27 27 29 27 26
45 42 44 41 40 44 52 64 70 73 80 78 73 65 60 63 67 70 74 73 69 57 52 50 48 45 45 39 37 32 34 35 36 36 31 31 28 26 26 28 27 29 28 27 28 27 28 27 27
38 40 37 43 33 41 40 41 50 60 70 71 72 66 62 61 70 71 72 72 66 62 55 53 50 46 45 44 41 35 36 37 36 34 32 33 33 31 29 30 29 30 29 28 28 27 29 29 27
40 37 34 27 27 29 26 39 30 38 54 60 67 68 65 62 65 73 73 73 74 65 58 52 51 46 45 44 40 37 36 36 34 36 37 35 35 33 29 30 32 32 30 29 30 28 28 30 28
14 18 16 17 23 25 23 27 19 22 32 49 59 63 61 61 60 66 72 74 71 59 62 54 52 49 43 43 38 37 34 33 34 36 38 35 36 34 31 31 35 34 32 31 30 30 29 31 30
12 12 5 4 13 18 18 15 19 20 20 27 47 53 55 58 57 61 64 63 64 63 61 51 51 52 46 40 39 37 30 34 35 36 31 36 36 36 33 33 36 35 34 33 31 30 28 31 31
6 6 2 9 7 10 16 17 14 23 24 21 27 43 46 51 56 52 53 50 54 51 54 51 50 52 51 44 41 37 34 36 35 34 35 36 36 36 33 35 38 37 35 35 31 31 28 31 32
5 7 13 6 7 4 5 5 10 14 18 22 27 35 42 48 47 48 44 50 48 45 49 53 52 49 54 53 46 42 39 37 37 37 40 40 41 39 36 36 38 36 36 35 32 31 27 29 30
5 9 10 12 12 2 4 3 1 5 15 19 23 38 45 43 46 47 47 44 51 54 53 48 44 48 49 54 48 46 43 40 39 39 42 42 44 39 37 37 38 37 37 36 34 32 28 28 30
10 12 12 14 8 1 1 10 9 16 18 22 17 36 38 40 45 47 46 49 56 54 53 50 46 50 46 45 48 52 49 46 42 46 44 42 45 42 39 39 40 38 38 37 35 32 30 27 30
10 12 15 13 11 11 13 5 11 14 13 16 14 37 31 36 40 46 48 50 55 54 54 54 52 51 49 47 47 51 53 51 49 47 48 43 46 46 44 41 44 40 40 39 36 32 32 27 28
8 13 17 15 14 9 12 12 7 20 20 10 10 6 23 26 20 30 40 42 46 49 60 56 54 55 51 51 53 53 55 55 51 45 47 44 44 48 46 48 42 41 42 40 37 34 33 28 27

GFSSGP_500_spd_117.txt.gz
Wind_Speed
29 28 28 29 30 29 28 21 20 24 26 25 23 26 25 26 26 26 25 25 25 27 29 27 21 19 20 21 23 23 21 19 19 17 15 16 17 17 15 14 13 12 13 12 13 11 11 11 10
32 33 32 33 35 35 30 23 20 24 26 25 23 24 26 26 26 26 28 27 28 29 28 24 25 23 21 21 24 24 22 20 18 16 15 15 16 16 15 12 11 12 13 12 12 12 9 9 9
37 37 38 39 39 36 34 28 24 27 30 29 25 24 26 26 27 27 29 28 28 29 27 24 22 24 26 24 23 25 23 21 19 16 14 15 15 16 15 12 11 13 13 12 13 12 9 6 6
38 39 40 41 41 36 31 29 28 27 31 28 26 25 26 28 29 30 29 30 30 30 28 25 28 26 28 28 26 23 22 23 21 16 14 15 15 16 15 13 11 12 12 10 12 10 9 7 8
40 41 40 42 37 35 34 33 30 27 29 31 31 25 29 30 32 33 34 35 32 30 29 26 29 28 29 28 26 25 23 23 21 19 14 16 15 15 15 14 13 13 12 10 11 10 11 9 9
37 37 40 38 37 33 33 32 31 28 28 30 34 32 31 35 33 34 36 36 35 34 31 29 28 27 29 29 28 30 25 23 22 19 17 16 15 15 15 14 13 14 14 12 11 11 11 9 9
34 35 38 38 38 35 31 30 27 29 30 31 35 36 33 35 35 36 38 38 38 36 35 32 29 28 31 31 29 28 25 21 21 19 18 16 15 16 15 14 12 12 13 14 12 13 11 9 7
37 39 40 39 39 39 38 35 33 33 33 35 37 37 37 36 37 39 41 42 43 40 38 35 32 34 35 30 30 26 26 22 18 18 18 15 15 15 16 15 13 12 12 13 12 12 11 10 8
42 43 44 44 44 45 46 43 35 36 38 36 40 41 40 39 40 43 43 44 43 41 40 38 36 36 32 28 27 24 24 21 17 16 18 16 15 15 16 15 14 11 11 11 10 12 11 10 9
48 49 50 52 53 56 56 55 45 41 42 41 38 43 44 43 44 45 46 45 45 42 39 39 35 37 35 29 27 25 25 21 16 16 17 16 15 15 15 16 14 12 11 10 9 10 10 10 8
49 52 53 53 54 57 57 56 56 51 46 44 43 39 45 47 48 49 49 50 47 46 46 42 40 39 38 31 29 27 24 24 20 16 15 16 16 15 15 16 15 13 12 10 9 9 10 9 8
47 47 49 51 51 54 56 57 58 57 56 47 46 44 42 48 49 54 54 53 53 49 47 49 48 42 35 32 31 28 24 26 23 19 17 16 17 16 16 16 17 14 14 11 8 9 9 9 10
48 52 53 56 59 60 61 62 63 63 63 61 51 51 48 46 50 53 58 58 56 55 50 47 46 44 37 31 32 29 26 26 23 23 19 17 17 17 17 16 18 16 14 12 9 8 8 8 10
51 53 57 58 57 60 65 65 66 65 70 68 66 61 58 52 52 54 59 61 61 58 56 49 47 47 39 35 32 30 29 27 24 24 22 20 18 17 18 18 18 17 15 13 11 10 10 8 9
51 56 56 59 64 68 76 70 76 76 78 77 76 72 67 62 58 56 58 62 63 62 55 55 52 49 39 40 34 32 31 29 25 24 23 22 20 18 18 20 19 18 17 15 14 12 10 10 10
56 58 60 66 67 76 85 74 81 82 88 87 86 83 76 71 65 60 60 62 67 69 64 60 56 53 43 41 37 34 34 31 26 23 24 24 23 21 20 21 20 20 20 17 15 14 12 12 12
60 62 65 65 74 83 89 91 81 93 96 98 100 96 89 80 74 67 66 66 68 72 67 64 61 56 47 41 40 36 37 32 28 24 24 24 26 24 22 23 23 23 22 21 18 16 15 14 14
65 68 71 75 76 81 84 85 87 89 86 93 98 104 104 96 82 75 72 70 68 73 72 66 63 60 53 43 45 40 37 36 30 28 26 25 25 26 26 26 25 24 24 24 21 19 17 17 16
66 68 72 73 73 80 75 68 56 54 70 64 76 84 96 106 96 86 76 74 75 75 75 70 66 65 61 48 46 40 39 40 36 34 31 28 25 27 29 29 26 27 27 25 23 22 21 19 19
55 58 60 62 48 43 38 44 43 43 42 47 46 57 69 78 94 93 81 78 79 78 75 72 69 67 63 53 49 46 44 41 39 37 34 28 28 29 32 30 27 30 29 27 25 24 25 23 22
45 50 39 25 21 28 33 27 20 25 27 22 29 32 41 61 76 86 87 81 82 81 78 73 71 69 65 58 54 53 46 41 39 37 34 32 32 33 32 32 33 32 29 29 28 27 27 26 26
37 28 16 25 34 35 37 26 14 16 14 18 20 24 24 31 45 61 77 81 78 79 79 75 72 71 68 66 57 51 45 39 38 40 38 37 36 36 36 36 34 32 32 32 31 31 30 28 28
24 19 22 33 41 38 32 30 22 27 28 23 24 23 19 12 18 41 69 78 74 73 76 76 73 71 69 68 54 49 45 41 42 41 40 40 38 39 37 38 34 35 36 34 32 34 33 30 29
25 21 23 33 33 29 37 29 22 27 25 32 38 14 4 8 21 40 62 63 67 72 72 71 70 70 66 68 61 52 50 44 39 39 38 42 44 41 38 39 36 41 37 35 33 34 35 32 32
27 29 29 23 34 40 26 22 31 31 30 29 27 4 5 4 13 27 51 55 59 66 69 70 70 68 66 62 57 53 51 49 40 42 37 41 43 42 38 42 43 44 40 38 34 34 37 33 33
23 24 27 33 34 34 21 32 36 32 19 19 20 14 7 11 12 21 42 48 55 64 67 69 67 65 64 59 54 53 51 48 41 42 41 42 43 42 42 40 49 49 43 39 36 38 37 34 34
22 24 25 29 31 31 29 32 38 27 21 10 10 9 1 2 13 17 34 43 48 59 67 66 66 65 61 59 54 49 51 49 46 44 44 45 44 45 45 44 40 42 44 43 42 38 36 36 35
26 21 23 25 29 27 28 34 29 20 20 18 20 11 13 4 7 22 26 39 43 49 59 64 65 63 61 59 55 51 51 49 44 46 47 46 45 46 50 45 43 45 44 43 42 39 37 37 37
21 21 23 23 20 19 22 32 20 22 23 21 16 10 8 21 13 16 28 32 39 44 49 54 57 60 60 59 57 55 54 56 51 48 49 49 50 47 53 51 47 46 46 47 43 40 40 41 41
16 16 18 19 15 13 13 21 15 15 17 19 19 8 1 4 12 16 20 26 32 40 46 47 49 50 50 52 53 52 49 51 56 55 52 50 51 53 49 50 51 50 51 48 44 46 43 45 50

GFSSGP_500_spd_120.txt.gz
Wind_Speed
29 30 27 28 28 27 29 25 23 25 26 24 23 22 23 24 25 25 23 24 20 20 21 21 21 19 16 19 21 21 21 20 20 17 16 13 13 14 14 14 12 10 11 9 10 12 14 12 11
29 30 31 32 32 34 30 27 28 29 29 28 24 23 24 26 25 25 26 26 22 22 23 22 17 17 17 19 22 22 22 19 19 19 16 14 13 14 13 13 13 11 12 10 10 13 13 10 9
33 34 35 36 36 34 34 34 32 30 32 32 29 25 27 26 26 25 27 28 25 25 25 24 20 18 21 21 22 22 22 19 18 18 16 14 13 14 13 12 12 11 12 11 10 12 12 9 8
35 37 38 40 40 36 34 34 32 31 32 32 31 29 28 29 28 27 29 30 30 27 27 27 22 20 22 24 22 20 20 20 18 16 14 15 13 14 14 12 11 11 13 11 11 12 13 10 8
35 37 38 39 39 40 34 33 31 31 33 32 35 32 32 33 32 29 31 33 33 33 30 29 24 21 25 26 23 20 19 23 19 16 13 14 14 13 13 12 11 11 11 11 11 12 12 14 9
34 34 37 38 38 33 30 29 32 31 34 33 36 36 34 36 35 33 32 34 36 36 35 31 27 25 27 28 25 22 21 21 19 15 15 13 14 13 12 13 10 10 10 10 11 12 12 13 10
33 34 36 36 33 34 31 32 33 31 32 33 35 36 37 38 36 35 34 35 36 37 35 32 30 29 28 30 29 27 24 23 19 16 15 14 13 12 13 13 12 10 9 9 10 10 12 12 11
34 36 38 38 34 37 37 35 34 34 33 32 34 38 40 38 38 40 38 38 40 39 36 32 31 31 33 32 34 30 26 25 20 15 14 14 14 11 12 12 12 12 9 8 9 8 10 11 11
38 40 41 41 42 42 44 42 39 38 37 36 35 36 39 36 40 41 43 42 43 42 40 36 34 35 38 36 37 30 25 24 22 18 14 14 14 13 12 11 12 13 11 8 7 7 9 9 9
42 44 45 45 48 48 50 51 48 44 42 42 41 40 40 38 38 43 46 47 47 46 44 40 36 37 38 36 37 31 27 24 23 20 17 13 14 14 13 12 12 12 12 9 5 6 8 9 8
37 38 39 40 43 45 45 45 47 44 41 42 43 43 44 44 41 41 47 50 51 50 48 46 42 39 38 38 36 35 30 27 24 22 20 16 14 15 14 14 12 12 12 11 6 6 5 8 8
41 39 42 44 46 47 47 50 51 52 50 43 46 43 44 48 49 47 48 52 54 54 52 50 47 43 40 41 37 37 35 29 25 25 22 20 16 15 16 15 15 14 13 13 8 7 6 5 8
39 42 43 46 48 49 52 52 56 57 57 56 50 51 48 48 50 52 51 54 55 56 57 54 51 48 44 44 37 36 35 30 26 27 23 23 20 17 17 17 17 15 14 13 11 9 9 6 6
39 40 44 45 49 53 55 56 60 63 65 66 65 59 57 54 53 53 55 54 59 60 59 57 54 53 51 48 39 36 35 33 30 27 26 24 23 20 19 18 18 17 15 14 14 11 12 10 8
40 45 46 51 54 59 60 58 66 70 71 73 74 74 70 63 60 58 56 59 56 62 63 60 56 56 53 53 44 37 33 35 34 30 29 26 25 23 21 20 19 18 18 17 16 14 13 13 11
44 46 50 55 63 64 64 58 70 74 78 79 80 78 78 77 68 68 68 63 65 61 65 64 61 60 60 55 51 39 34 36 37 33 30 28 27 25 23 22 21 20 20 20 19 17 16 15 14
45 46 50 56 67 67 70 67 69 79 84 87 88 89 89 87 84 78 75 72 68 67 66 67 66 62 63 60 54 44 40 40 37 34 32 30 29 27 26 24 23 23 23 23 22 20 18 17 16
46 49 52 58 60 65 68 73 75 80 81 86 84 88 93 96 94 96 86 80 76 76 71 70 70 66 65 63 57 53 43 42 36 36 35 33 30 28 26 26 26 26 25 26 25 22 20 19 18
49 52 54 56 59 59 48 40 47 59 53 52 55 57 62 70 77 92 100 86 84 81 77 74 75 70 69 67 62 59 46 42 36 36 39 37 33 29 27 28 28 27 25 27 27 25 23 21 20
52 53 51 51 40 34 28 24 32 27 18 29 26 22 26 33 47 63 81 82 91 85 83 80 77 74 72 68 64 56 51 45 42 41 42 40 34 30 30 30 30 26 27 29 29 28 27 23 23
48 43 41 34 24 28 29 23 30 21 27 31 34 35 34 41 39 37 52 70 78 85 90 86 81 77 74 70 66 62 56 52 48 41 40 40 37 34 34 33 33 30 29 31 30 30 29 28 27
40 34 35 25 24 27 31 27 33 30 33 33 37 40 49 41 40 43 40 54 70 86 92 90 85 80 76 71 68 64 59 52 46 40 40 43 40 37 36 35 35 35 32 29 30 32 32 32 30
33 33 33 26 27 30 35 34 31 39 37 31 32 32 35 35 30 29 33 39 55 89 94 92 85 80 76 73 67 64 62 59 50 47 45 45 45 42 41 39 37 36 32 31 33 35 36 36 33
30 31 34 29 25 26 34 37 41 46 39 26 28 31 30 17 15 14 16 27 42 79 84 88 83 77 75 71 69 69 60 60 52 49 48 44 47 46 45 43 40 37 36 33 39 39 36 36 36
28 30 29 26 28 24 36 34 38 43 39 35 26 24 24 13 11 8 1 11 28 51 68 75 76 74 71 71 70 67 69 48 48 52 50 46 43 37 40 43 43 41 41 41 45 41 37 36 36
26 26 27 27 26 29 31 27 36 39 34 38 35 30 11 8 10 4 7 12 30 40 57 60 69 70 71 71 70 68 60 51 51 48 45 43 38 40 35 39 40 45 48 46 46 43 41 39 38
24 26 29 26 25 31 30 26 33 32 35 36 34 26 9 5 5 2 4 18 33 40 49 52 62 66 69 71 70 64 60 52 43 46 46 44 43 40 41 43 43 42 45 46 44 45 46 47 41
24 29 27 23 21 24 26 26 29 28 29 30 30 21 9 6 13 10 9 18 33 39 49 51 56 56 66 63 55 63 63 52 49 45 48 47 46 43 45 44 46 47 48 50 47 45 44 47 46
23 27 24 20 16 18 19 23 29 27 23 27 31 20 7 12 9 14 15 18 25 43 41 34 45 52 59 66 65 58 56 57 45 43 48 45 44 46 47 47 48 46 49 50 49 45 45 42 44
23 27 22 19 16 16 16 19 22 25 19 24 28 21 9 3 3 9 16 22 23 31 41 50 38 55 47 44 46 47 44 47 46 45 49 50 48 49 49 47 46 50 52 53 52 50 49 49 47

GFSSGP_500_spd_123.txt.gz
Wind_Speed
25 25 24 25 26 24 25 16 25 26 26 25 25 25 25 26 27 25 27 21 22 20 21 20 18 17 15 14 14 16 16 18 20 19 18 17 14 11 10 10 9 9 9 10 11 10 10 12 13
28 27 27 27 25 28 17 15 25 29 32 28 28 27 27 29 28 29 28 23 24 21 22 22 21 19 18 18 19 17 15 16 17 18 17 17 14 12 11 10 10 9 9 9 11 10 10 11 13
30 30 31 30 30 29 23 27 37 31 31 32 32 34 33 33 36 32 28 27 27 24 24 24 22 21 21 21 20 18 15 16 16 16 17 16 14 13 10 11 10 9 9 10 10 10 10 11 13
33 34 34 35 33 34 34 34 35 34 34 36 36 36 37 35 37 35 32 30 29 27 26 25 24 23 22 24 22 19 17 16 18 18 17 16 14 13 11 10 9 9 8 9 11 10 10 11 13
34 36 36 38 35 34 36 34 34 36 36 40 37 35 40 38 35 35 33 33 32 31 30 29 27 26 24 25 25 21 18 17 18 17 16 13 14 13 11 9 9 9 9 9 9 11 11 12 15
32 33 34 34 34 27 35 27 33 35 35 39 39 42 41 40 41 38 36 35 35 34 34 33 31 27 26 26 27 26 21 20 19 19 17 15 12 14 11 9 9 9 9 9 10 10 10 11 12
31 34 33 33 32 32 33 34 32 33 33 36 39 36 38 42 44 34 38 37 37 37 37 36 34 29 28 28 28 28 26 24 22 20 19 16 12 14 14 10 9 8 9 8 9 9 9 10 11
32 34 34 33 33 34 37 40 35 36 34 33 35 37 39 42 36 33 40 38 40 40 39 38 36 32 30 30 30 30 29 27 24 21 19 17 16 13 14 12 10 8 9 8 8 8 8 9 9
33 35 36 36 40 42 43 43 38 40 40 38 38 37 40 43 34 38 40 43 42 42 43 41 39 36 35 35 35 34 32 28 26 23 20 18 17 16 14 13 12 10 9 9 9 7 7 9 8
30 34 34 40 42 43 44 44 45 43 43 43 42 44 47 44 39 40 41 44 45 45 47 46 44 40 40 39 38 35 34 28 25 23 23 20 18 18 16 14 13 12 10 9 9 8 9 7 7
29 33 35 38 40 40 39 39 43 40 38 41 43 42 42 45 45 47 45 45 47 49 50 50 48 43 42 41 41 38 35 30 24 25 25 24 21 19 18 16 15 13 12 11 9 10 10 8 7
35 36 37 37 39 41 40 40 42 45 44 41 43 44 44 44 46 48 50 50 53 52 53 54 51 47 45 45 44 41 37 33 29 25 25 27 23 22 19 17 16 15 15 13 12 11 12 11 8
37 35 38 38 40 40 43 44 47 47 49 50 45 46 47 47 48 50 50 53 54 58 57 56 54 51 48 48 47 46 40 38 35 26 25 26 25 24 21 19 19 17 16 16 14 13 13 13 13
36 37 39 39 41 42 46 49 51 55 56 57 58 56 54 54 53 54 54 53 56 56 61 60 58 54 53 52 50 48 45 42 38 31 28 26 27 24 24 22 21 19 17 18 17 16 14 15 14
37 40 41 44 45 46 50 52 58 62 63 64 64 64 62 59 60 61 63 60 57 59 60 61 62 58 56 55 55 53 49 46 42 37 33 27 28 26 26 26 24 22 20 19 19 17 16 17 16
39 40 42 47 50 50 50 52 62 65 65 66 68 71 72 72 69 69 69 67 66 64 63 63 63 63 60 57 57 57 53 46 45 41 36 29 28 29 28 28 26 24 22 22 21 19 18 19 17
40 38 40 48 50 52 56 51 62 65 68 68 70 74 77 81 82 84 76 74 74 70 71 67 67 65 63 61 59 59 58 48 45 45 39 31 30 32 30 30 29 26 25 24 23 21 18 20 20
33 39 43 50 53 54 57 59 62 53 60 62 56 58 61 69 76 83 87 82 81 81 76 78 72 71 67 63 62 64 62 55 47 47 41 35 34 34 32 30 30 29 29 28 26 24 20 21 22
35 40 46 51 55 55 53 52 52 41 47 43 35 33 36 37 41 52 72 82 72 79 86 81 82 77 72 68 67 67 64 61 52 45 45 38 37 35 34 31 31 31 31 31 29 27 24 23 21
38 42 46 52 53 53 45 36 39 29 36 40 39 47 46 39 34 37 42 47 64 65 82 89 90 81 76 72 69 70 68 63 56 46 46 42 40 37 36 34 34 32 31 31 30 29 27 25 24
39 44 50 51 49 39 38 32 25 32 32 38 49 52 48 46 44 44 44 51 58 55 64 84 89 87 82 78 73 74 72 68 61 54 47 47 42 39 39 38 36 33 33 31 32 31 29 27 27
40 47 49 42 37 39 35 35 29 37 41 43 51 45 50 47 46 49 49 53 57 59 56 73 91 95 88 83 78 75 73 68 60 56 48 47 44 39 40 41 39 38 36 35 33 32 30 29 30
43 48 43 32 37 40 25 33 24 38 41 45 50 39 37 41 43 43 45 46 49 54 60 61 89 98 92 84 77 73 73 70 65 58 52 49 47 45 43 46 43 41 38 38 36 31 32 33 34
45 46 32 29 34 30 22 24 33 41 41 50 47 45 46 45 39 38 37 30 27 32 44 54 85 95 95 87 79 74 73 72 71 63 59 56 50 49 45 47 42 45 45 41 39 36 37 38 37
44 37 25 25 29 29 25 32 39 41 42 45 44 40 43 37 29 29 27 25 21 24 27 41 77 90 90 88 82 77 75 70 71 68 64 62 54 51 46 47 47 46 49 46 45 42 42 43 40
44 32 27 32 31 32 26 34 37 34 39 42 44 47 35 24 25 28 25 17 22 15 12 24 57 79 86 85 80 77 78 73 69 66 50 78 54 50 51 49 46 44 51 46 47 46 46 46 45
38 25 24 30 32 32 25 27 34 30 36 39 41 46 29 16 16 19 10 18 1 4 15 17 37 68 78 79 77 76 74 72 71 69 68 52 62 56 52 49 45 36 38 43 45 46 44 48 49
29 25 23 26 32 27 20 31 28 29 34 40 39 36 22 9 10 14 6 5 7 3 18 16 37 62 65 74 76 75 71 72 74 62 72 71 49 48 52 43 41 40 41 40 42 45 45 54 42
29 21 22 24 25 28 25 28 29 30 29 32 32 29 15 7 9 10 3 6 9 9 15 23 32 55 57 58 61 71 72 72 77 66 45 47 39 37 38 38 38 41 42 43 42 45 47 49 51
23 22 21 23 22 24 28 34 27 26 22 28 30 30 17 12 10 4 5 3 10 18 8 23 26 36 50 48 63 66 70 71 77 50 35 35 33 34 39 41 40 40 42 43 42 44 47 50 49

GFSSGP_500_spd_126.txt.gz
Wind_Speed
28 23 23 24 24 21 21 12 8 28 31 29 21 22 24 26 27 29 35 32 23 20 19 20 20 20 19 19 18 16 17 18 17 16 16 17 14 13 12 8 8 7 8 7 8 10 9 10 10
26 25 24 25 23 22 15 9 19 29 33 20 21 27 29 32 34 36 34 25 27 27 21 21 22 21 21 20 21 19 19 20 18 15 14 15 16 12 11 9 7 7 7 8 9 9 9 10 11
29 29 28 28 27 23 21 16 28 35 38 31 29 33 32 35 37 38 29 30 32 32 24 23 25 25 24 23 23 20 19 18 18 16 15 16 16 15 11 10 7 7 7 7 7 8 9 11 11
30 31 30 31 30 27 26 22 34 40 41 39 38 37 36 38 41 40 31 35 34 35 29 28 27 27 26 25 25 23 21 18 18 16 15 16 15 13 13 11 8 7 7 7 6 7 8 11 12
31 32 32 32 30 28 26 25 34 39 34 38 43 43 35 41 42 39 36 35 36 38 34 31 30 28 27 27 26 24 24 19 17 17 16 15 15 14 12 13 10 7 8 6 6 6 8 10 11
29 30 31 30 27 11 14 27 38 31 36 40 40 45 41 41 44 42 34 36 36 39 37 36 33 32 30 30 30 27 26 23 19 17 17 15 15 15 13 13 12 9 8 6 7 6 7 9 10
29 31 29 28 26 23 25 32 42 38 31 35 39 38 39 39 41 44 33 37 38 39 39 38 37 35 33 33 32 30 29 25 21 19 18 16 15 16 15 14 12 13 9 8 8 7 7 8 9
30 31 29 28 27 28 31 39 43 36 32 33 35 35 38 40 44 38 28 34 39 40 40 40 40 38 35 33 34 33 31 28 24 21 18 16 16 16 16 16 13 13 11 8 8 8 8 7 8
31 32 33 31 31 40 40 41 41 40 39 39 40 41 43 41 44 35 33 38 41 40 42 42 42 41 38 35 36 36 33 32 27 24 21 17 16 16 16 17 16 14 12 12 8 8 9 9 9
27 29 28 31 33 32 32 34 37 40 38 39 42 44 45 48 44 44 41 41 42 44 44 45 46 44 42 38 37 39 37 36 32 24 23 19 18 17 16 17 18 17 13 12 9 8 9 11 10
28 28 31 32 34 36 35 37 39 41 40 39 40 42 42 43 44 43 45 48 48 49 49 48 49 49 44 41 40 40 40 38 35 27 24 22 20 20 18 17 18 19 16 13 12 10 10 12 11
27 29 32 33 34 35 37 39 40 41 40 39 40 40 42 45 47 48 46 45 53 53 53 53 52 51 51 45 44 42 44 41 38 34 26 24 23 24 21 19 18 19 18 16 14 13 12 13 13
30 29 32 33 34 36 38 41 43 42 45 47 46 45 45 45 47 50 50 49 48 52 53 54 56 54 53 50 49 46 46 46 41 39 33 26 24 25 24 22 19 19 20 19 17 16 15 14 15
35 36 37 38 41 40 41 44 45 49 51 52 53 52 49 51 52 53 55 55 53 51 55 56 57 59 56 53 52 50 49 49 44 41 37 32 26 25 25 22 21 21 21 20 20 19 16 16 17
40 41 40 39 41 41 43 43 46 49 52 53 53 53 55 55 55 57 59 59 60 59 56 59 59 58 59 56 55 54 53 52 50 42 42 37 30 25 26 25 24 22 23 21 20 21 19 17 18
37 39 40 42 40 44 45 45 48 52 52 55 58 61 63 64 66 66 65 64 66 66 65 62 64 62 62 59 60 59 57 56 55 47 45 41 34 28 28 28 26 25 24 24 23 22 22 20 19
42 43 42 40 39 43 47 49 53 57 57 58 61 64 67 68 68 68 71 74 68 70 71 71 68 68 66 65 64 62 61 60 58 55 48 45 37 32 31 29 29 27 25 26 27 26 24 22 21
37 40 41 41 41 44 48 49 56 57 57 61 60 58 54 52 49 48 52 58 67 64 71 76 72 73 73 72 70 66 65 63 61 58 50 48 41 36 32 30 31 28 27 28 29 29 26 25 24
43 38 40 40 42 47 51 52 54 50 54 64 45 38 41 45 46 53 58 54 54 49 45 63 74 77 79 77 75 71 68 66 64 62 54 49 46 39 34 32 33 32 32 31 31 30 28 28 27
38 37 38 40 44 48 54 53 57 36 51 57 24 40 41 46 51 55 49 47 49 46 47 43 60 77 84 84 80 77 72 70 66 64 61 53 47 42 38 35 34 36 33 33 32 31 30 29 29
38 36 39 40 44 49 54 51 42 36 45 40 39 45 48 50 56 53 49 44 50 52 53 51 50 58 84 89 89 78 77 72 68 69 67 56 51 46 43 37 34 38 37 34 34 32 31 31 31
37 37 38 41 45 49 44 45 37 28 42 34 38 49 51 57 56 54 55 54 51 56 56 57 57 63 63 89 94 87 79 76 70 68 67 58 55 50 46 40 37 39 40 38 36 34 33 33 30
34 36 39 42 47 52 35 29 31 39 33 35 43 50 55 57 55 53 54 48 45 45 51 54 44 57 69 66 93 92 84 79 69 68 67 62 58 52 49 43 41 41 42 42 39 37 35 34 33
34 35 38 42 48 46 25 34 40 35 27 44 46 49 54 54 53 46 40 38 40 41 47 47 61 52 63 68 81 95 89 79 72 66 70 63 59 54 53 48 45 44 45 45 44 40 38 36 36
34 36 38 43 46 34 25 30 40 40 36 40 47 50 54 55 55 33 33 34 37 39 46 50 46 39 51 68 68 96 88 81 76 72 75 71 62 55 57 55 51 48 47 48 46 44 42 41 39
30 33 37 44 40 29 23 37 33 28 29 37 43 49 52 55 40 25 26 33 34 26 26 33 30 30 37 65 61 92 91 84 76 81 76 82 70 61 65 61 55 51 47 48 47 49 44 45 44
29 31 38 43 31 26 26 28 30 30 32 36 42 44 51 39 22 23 26 29 29 33 29 25 22 9 21 51 53 89 91 85 86 59 49 91 77 65 68 64 60 55 50 48 51 49 46 45 46
27 31 37 36 27 25 25 30 28 28 32 36 37 40 41 30 23 25 21 30 28 32 16 15 3 10 3 19 47 86 86 79 59 75 83 52 66 54 70 72 64 54 53 51 52 44 40 41 46
26 31 40 27 25 30 29 28 31 33 36 35 34 36 36 29 26 17 18 14 23 22 30 8 28 5 9 14 53 78 81 79 82 65 74 50 75 69 48 65 62 50 56 54 51 46 37 35 40
24 29 33 28 27 26 28 31 29 31 31 30 28 32 33 24 18 16 20 18 19 16 12 16 10 11 7 21 54 71 72 78 52 47 78 44 63 65 68 58 58 60 51 51 56 44 38 39 41

GFSSGP_500_spd_129.txt.gz
Wind_Speed
31 32 32 30 25 20 11 9 12 16 22 28 29 27 28 26 27 33 30 30 24 24 20 19 21 24 24 23 22 21 20 19 17 19 16 14 11 12 14 11 11 10 10 10 9 10 9 8 9
29 28 26 24 22 18 12 19 9 19 28 33 30 30 31 29 32 32 33 27 24 26 23 23 25 25 25 24 24 23 22 21 20 19 17 14 12 13 12 13 11 10 9 10 9 9 8 7 9
30 29 28 28 25 22 16 21 21 23 28 33 36 34 34 33 34 37 32 29 34 29 24 28 26 29 28 26 26 25 24 22 22 19 17 16 13 13 13 11 12 9 8 8 9 7 8 9 10
29 30 30 29 27 22 18 21 19 33 39 37 43 43 37 37 39 38 36 31 34 36 30 32 28 30 31 29 28 29 26 25 23 21 18 17 13 12 13 12 11 10 8 9 7 7 8 8 9
28 29 29 29 26 27 17 23 28 33 39 45 47 47 43 42 40 43 41 32 34 35 34 34 32 31 31 32 32 31 28 26 25 23 20 18 15 11 13 13 11 9 10 9 7 7 7 7 8
28 27 27 26 27 27 26 32 34 38 44 45 42 45 45 43 41 43 41 33 32 35 37 34 36 34 33 33 33 34 31 28 27 24 22 19 16 12 13 14 12 11 10 9 8 7 7 8 8
27 27 25 25 22 17 24 32 39 42 40 35 31 33 38 40 38 42 42 32 27 36 36 36 36 38 36 36 34 35 34 31 28 24 22 21 17 14 13 16 14 13 12 10 9 7 8 8 9
26 26 26 25 25 23 35 34 40 37 34 29 30 34 35 41 43 40 36 32 32 34 38 36 36 39 38 37 36 36 35 34 29 27 23 21 19 16 15 15 15 15 14 12 10 9 8 9 10
21 21 20 23 29 30 31 33 33 40 40 35 33 39 40 40 45 47 43 37 37 38 38 39 39 40 40 40 38 37 37 36 31 28 27 22 20 18 15 16 15 14 15 15 13 11 9 8 10
21 20 20 22 25 27 26 27 30 35 37 34 37 39 42 44 46 49 48 43 44 43 42 41 42 42 44 42 41 38 39 37 35 32 28 24 21 19 17 16 16 16 16 16 16 14 11 10 10
17 16 19 19 23 25 27 29 33 33 34 37 38 39 40 41 43 45 45 49 40 45 49 47 45 45 45 47 44 42 41 40 39 35 31 26 24 22 19 18 18 19 17 17 17 16 14 12 13
21 20 20 20 24 26 28 30 31 34 35 37 39 40 38 39 41 43 44 47 47 45 46 49 51 50 49 49 50 43 43 42 42 39 35 29 26 25 22 21 21 21 20 18 19 18 15 15 14
25 25 27 28 30 32 32 35 36 33 36 39 41 40 42 44 44 45 47 50 50 48 49 50 53 52 50 52 53 52 48 44 44 44 40 34 30 27 25 22 20 24 22 21 20 20 19 17 16
28 31 32 32 31 32 37 39 40 38 39 42 44 45 47 47 46 46 47 49 50 51 51 51 53 56 56 55 54 55 54 51 51 49 45 40 34 30 28 24 21 24 24 23 22 21 21 19 18
33 31 31 31 37 39 40 38 37 40 44 45 48 51 50 48 48 50 52 54 55 58 56 55 54 58 60 60 58 57 56 54 53 52 50 45 40 33 30 28 23 25 26 24 23 23 22 20 19
36 34 34 40 44 44 40 39 38 41 45 47 52 54 53 57 58 61 61 63 64 65 65 63 62 61 63 64 63 60 60 59 57 56 53 50 46 38 32 29 26 27 26 25 25 25 25 23 21
39 38 39 43 42 44 45 45 43 45 47 51 56 56 59 59 63 66 66 63 61 61 64 68 67 66 66 66 69 67 62 64 64 60 56 54 51 45 36 31 31 28 28 27 28 28 27 25 23
41 40 44 47 44 41 41 43 43 47 52 55 56 59 58 60 59 47 43 42 47 50 51 53 59 62 70 72 72 72 68 66 65 63 60 57 55 51 43 36 33 31 30 29 29 29 29 27 26
42 45 44 46 43 43 43 42 46 51 54 56 58 59 51 38 41 44 45 47 47 54 57 51 53 61 60 72 77 75 75 71 71 64 61 59 59 56 49 41 34 33 32 31 30 32 30 28 29
44 46 45 47 45 44 44 42 47 50 56 59 60 47 32 36 41 45 47 50 55 58 54 51 45 44 47 45 67 81 79 78 74 71 65 62 63 59 55 45 38 37 35 33 32 32 32 32 31
45 43 40 41 41 42 41 42 43 54 56 51 43 32 33 38 46 49 50 58 58 58 56 57 53 49 50 48 47 54 84 81 77 73 69 67 66 64 58 48 43 39 38 36 35 35 34 33 33
45 42 42 38 40 38 45 41 40 50 49 43 42 45 34 45 50 54 60 64 63 60 57 50 49 53 53 53 52 50 63 87 81 78 75 71 68 67 61 54 49 42 41 39 40 38 36 35 34
42 41 38 36 35 37 37 40 45 46 43 38 42 47 43 45 52 56 61 60 52 38 37 34 38 43 46 48 50 59 59 77 87 83 81 74 67 70 62 57 51 45 44 44 42 42 40 37 36
34 34 34 35 35 37 38 40 45 39 32 43 40 37 41 45 52 54 52 36 28 32 31 40 37 39 47 54 58 57 60 60 88 87 83 78 72 69 68 60 56 54 47 47 45 45 44 40 39
32 32 33 33 35 39 36 38 42 31 33 32 32 35 40 47 50 54 38 32 34 33 36 39 38 42 52 49 50 54 69 67 82 89 85 80 77 70 73 63 59 55 50 50 49 47 46 43 42
31 31 32 31 32 36 29 33 31 28 29 31 32 40 44 47 50 49 41 41 32 32 29 34 34 32 40 50 53 54 55 70 76 92 89 87 82 82 54 65 61 59 58 52 52 51 49 47 45
26 28 29 30 33 34 33 28 27 28 29 32 36 42 44 43 49 43 30 27 27 31 27 31 25 28 23 30 40 49 49 65 71 93 93 89 76 81 51 72 69 67 62 58 57 54 53 50 47
25 27 28 31 31 33 29 29 29 31 31 32 38 37 39 39 44 42 27 27 30 34 30 37 26 28 20 21 18 20 36 60 65 88 91 83 76 73 72 74 75 72 68 65 57 57 56 51 47
26 27 30 26 28 30 33 27 28 30 33 34 35 31 31 36 42 40 28 26 25 27 26 32 40 26 19 17 7 10 29 44 55 74 83 79 68 48 43 59 69 65 70 63 62 58 58 52 48
29 28 27 23 25 27 30 31 31 31 27 30 26 27 32 38 39 36 26 15 23 26 26 20 36 36 32 34 17 10 34 26 40 66 76 74 79 74 45 59 65 59 59 61 62 62 50 54 51